     2              OBSERVATION DATA    GPS                 RINEX VERSION / TYPE
teqc 2000Feb29 Duncan Agnew 20010405 17:44:42UTC            PGM / RUN BY / DATE
                                                            COMMENT
L2: 1 -> 1; 150 -> 5; 250 -> 9                              COMMENT
L2: 1 -> 1; 150 -> 5; 250 -> 9                              COMMENT
L2: 1 -> 1; 150 -> 5; 250 -> 9                              COMMENT
L2: 1 -> 1; 150 -> 5; 250 -> 9                              COMMENT
L2: 1 -> 1; 150 -> 5; 250 -> 9                              COMMENT
Original Marker Name: 7000                                  COMMENT
Campaign Name: Hector postseismic                           COMMENT
4-Character Station Name: 7000                              COMMENT
6-Character Antenna Code: DMRCHT                            COMMENT
Vertical Measurement Point: BCR                             COMMENT
Vertical Offset to Rinex Ref. Point: 0.0348                 COMMENT
Radial Measurement Point: ECF                               COMMENT
Radial Offset to Rinex Ref. Point: 0.1897                   COMMENT
Antenna Height from Field Measurement: 0.8740 m             COMMENT
Additional Antenna Identification Info.:                    COMMENT
Turborogue and Ashtech Choke Ring                           COMMENT
Original XYZ: -2361097.4200 -4691270.3200 3609087.4300      COMMENT
New XYZ position is based on association with SCEC monument COMMENT
E1F2K4N0+0011. Position of that monument is believed to be  COMMENT
valid to within 1 m horizontally; vertical accuracy         COMMENT
should be no worse than 3-times this value.                 COMMENT
                                                            COMMENT
Revised Rinex header created by UCSD GPS archive for        COMMENT
GSAC on 10-Apr-2001 (2001:100) 18:30:17 GMT                 COMMENT
For assistance contact dagnew@ucsd.edu                      COMMENT
or anderson@python.ucsd.edu                                 COMMENT
                                                            COMMENT
T7N S19 S30 R3E                                             MARKER NAME
HYU UNIV CALIF LOS ANGELES                                  OBSERVER / AGENCY
148 ASHTECH Z-XII3 1L00                                     REC # / TYPE / VERS
768 DORNE-MARGOL. TYPE T                                    ANT # / TYPE
 -2361085.8460 -4691247.8934  3609066.5026                  APPROX POSITION XYZ
        0.8184        0.0000        0.0000                  ANTENNA: DELTA H/E/N
     1     1     0                                          WAVELENGTH FACT L1/2
     7    C1    L1    L2    P1    P2    S1    S2            # / TYPES OF OBSERV
     0                                                      INTERVAL
  2001     3    29    17    48    0.000000                  TIME OF FIRST OBS
  2001     3    29    23    59   30.000000                  TIME OF LAST OBS
                                                            END OF HEADER
 01  3 29 17 48  0.0000000  0  6G 9G24G 7G 5G 4G 2
  21477703.015     -226195.09859   -157168.22057  21477703.514    21477714.604
       241.000         204.000
  22331470.245     -406747.08459   -281684.73557  22331470.695    22331485.577
       232.000         188.000
  22017216.624        9786.77055
       234.000         144.000
  24010066.340     -251310.09255                                  24010081.256
       216.000         158.000
  20608595.370     -217329.58359   -159839.49457  20608596.007    20608606.051
       242.000         211.000
  22515719.559       -7373.89359     -5021.60556  22515718.846    22515732.195
       232.000         186.000
 01  3 29 17 48 30.0000000  0  6G 9G24G 7G 5G 4G 2
  21462417.060     -306527.03359   -219764.54657  21462417.115    21462427.979
       241.000         205.000
  22303828.420     -552009.59359   -394876.08156  22303827.824    22303842.640
       232.000         187.000
  22018048.241        2768.26247                                  22018059.630
       234.000         194.000
  23983132.299     -502693.70949   -361603.58145  23983130.962    23983147.359
       214.000         159.000
  20593073.222     -298898.49159   -223399.66357  20593073.906    20593084.136
       243.000         212.000
  22515339.675       -9370.35759     -6577.45056  22515338.992    22515352.351
       229.000         185.000
 01  3 29 17 49  0.0000000  0  6G 9G24G 7G 5G 4G 2
  21447248.768     -386234.44049   -281874.21847  21447248.981    21447259.859
       240.000         205.000
  22276257.747     -696888.34649   -507768.39546  22276257.815    22276272.855
       231.000         186.000
  22018912.391       21267.09059      6306.85757  22018912.295    22018923.889
       234.000         195.000
  23956209.916     -644165.14849   -471840.95245  23956209.833    23956225.519
       213.000         158.000
  20577678.428     -379799.38949   -286439.29747  20577679.204    20577689.287
       243.000         212.000
  22515026.059      -11017.16649     -7860.83446  22515025.936    22515039.388
       229.000         184.000
 01  3 29 17 49 30.0000000  0  6G 9G24G 7G 5G 4G 2
  21432202.879     -465301.90649   -343485.23747  21432203.319    21432214.374
       241.000         205.000
  22248764.199     -841366.31549   -620348.41046  22248764.551    22248779.685
       232.000         187.000
  22019811.820       25992.25749      9988.73247  22019811.628    22019823.554
       234.000         194.000
  23929305.183     -785549.14659   -582010.17855  23929305.215    23929320.805
       213.000         157.000
  20562413.488     -460017.26949   -348946.70847  20562414.077    20562424.208
       243.000         212.000
  22514781.877      -12299.85149     -8860.47646  22514781.987    22514795.260
       229.000         184.000
 01  3 29 17 50  0.0000000  0  6G 9G24G 7G 5G 4G 2
  21417285.220     -543694.22549   -404570.16747  21417285.552    21417296.572
       241.000         205.000
  22221354.195     -985406.19249   -732587.04746  22221354.561    22221369.377
       232.000         187.000
  22020752.323       30934.48149     13839.74347  22020752.206    22020763.848
       234.000         194.000
  23902424.833     -926810.23749   -692083.63445  23902424.273    23902439.775
       213.000         156.000
  20547285.150     -539516.91849   -410894.45647  20547285.917    20547295.882
       243.000         212.000
  22514614.111      -13183.63249     -9549.28846  22514613.634    22514627.390
       229.000         183.000
 01  3 29 17 50 30.0000000  0  6G 9G24G 7G 5G 4G 2
  21402493.308     -621427.21349   -465141.33547  21402493.533    21402504.574
       241.000         205.000
  22194024.693    -1129022.68949   -844495.79547  22194024.873    22194040.068
       233.000         189.000
  22021730.715       36076.18549     17846.18647  22021730.711    22021742.235
       234.000         193.000
  23875564.066    -1067964.13049   -802073.56345  23875564.060    23875578.936
       212.000         154.000
  20532290.639     -618314.15249   -472294.86947  20532291.063    20532301.190
       243.000         212.000
  22514518.869      -13685.00049     -9940.11046  22514518.686    22514531.936
       230.000         184.000
 01  3 29 17 51  0.0000000  0  6G 9G24G 7G 5G 4G 2
  21387828.593     -698490.60049   -525190.74047  21387829.114    21387839.863
       241.000         205.000
  22166778.305    -1272203.50449   -956065.03947  22166778.428    22166793.581
       232.000         189.000
  22022748.919       41425.79449     22014.64047  22022748.411    22022760.446
       232.000         193.000
  23848725.193    -1209000.44649   -911971.87145  23848725.137    23848740.946
       212.000         153.000
  20517431.597     -696398.84949   -533140.05947  20517432.116    20517442.419
       243.000         212.000
  22514497.917      -13794.47949    -10025.56946  22514498.182    22514511.935
       228.000         183.000
 01  3 29 17 51 30.0000000  0  6G 9G24G 7G 5G 4G 2
  21373292.999     -774876.78449   -584712.45747  21373293.083    21373303.839
       241.000         206.000
  22139616.474    -1414939.35349  -1067287.56147  22139617.022    22139631.523
       233.000         189.000
  22023807.487       46988.74949     26349.32647  22023807.208    22023819.019
       233.000         192.000
  23821910.216    -1349911.57449  -1021772.63645  23821910.667    23821925.401
       210.000         151.000
  20502709.437     -773763.60549   -593424.25947  20502710.118    20502720.245
       243.000         212.000
  22514553.160      -13505.13149     -9800.27146  22514553.103    22514567.544
       228.000         183.000
 01  3 29 17 52  0.0000000  0  6G 9G24G 7G 5G 4G 2
  21358886.747     -850582.17349   -643703.68247  21358887.299    21358897.936
       241.000         206.000
  22112540.456    -1557224.58849  -1178158.95547  22112540.610    22112555.273
       233.000         190.000
  22024907.264       52766.89649     30851.69947  22024907.053    22024918.780
       233.000         192.000
  23795120.141    -1490693.42649  -1131472.64845  23795120.439    23795135.831
       210.000         150.000
  20488125.181     -850404.74649   -653144.59747  20488125.837    20488135.880
       243.000         212.000
  22514685.129      -12813.81949     -9261.75546  22514684.624    22514698.562
       228.000         183.000
 01  3 29 17 52 30.0000000  0  6G 9G24G 7G 5G 4G 2
  21344614.385     -925584.32449   -702146.93447  21344614.623    21344625.641
       241.000         206.000
  22085554.431    -1699035.86449  -1288661.03747  22085555.018    22085569.116
       232.000         190.000
  22026051.861       58780.88949     35537.84647  22026051.473    22026063.117
       233.000         191.000
  23768359.987    -1631323.40549  -1241054.31545  23768359.417    23768374.977
       209.000         150.000
  20473682.794     -926300.37949   -712284.02447  20473683.335    20473693.342
       243.000         212.000
  22514897.351      -11699.01949     -8393.25346  22514897.198    22514910.820
       229.000         182.000
 01  3 29 17 53  0.0000000  0  6G 9G24G 7G 5G 4G 2
  21330477.336     -999874.23649   -760035.19847  21330477.786    21330488.410
       241.000         206.000
  22058660.679    -1840362.02649  -1398785.10647  22058660.821    22058675.673
       234.000         191.000
  22027242.418       65037.60749     40413.13147  22027242.293    22027253.833
       233.000         192.000
  23741629.178    -1771792.36349  -1350510.51745  23741629.171    23741644.741
       210.000         151.000
  20459383.802    -1001441.44649   -770835.47647  20459384.285    20459394.496
       243.000         212.000
  22515191.825      -10152.54249     -7188.36046  22515192.259    22515204.843
       228.000         181.000
 01  3 29 17 53 30.0000000  0  6G 9G24G 7G 5G 4G 2
  21316478.099    -1073441.49649   -817360.35447  21316478.285    21316489.479
       241.000         206.000
  22031861.715    -1981191.08349  -1508521.82947  22031861.715    22031876.274
       233.000         192.000
  22028480.963       71545.71249     45484.29847  22028480.622    22028492.440
       233.000         192.000
  23714931.828    -1912089.69449  -1459832.98345  23714931.798    23714946.224
       212.000         151.000
  20445230.469    -1075817.84549   -828791.08047  20445231.031    20445241.215
       243.000         212.000
  22515570.049       -8164.30949     -5639.25146  22515570.239    22515583.781
       227.000         181.000
 01  3 29 17 54  0.0000000  0  6G 9G24G 7G 5G 4G 2
  21302613.722    -1146299.28249   -874132.67447  21302614.037    21302625.143
       241.000         206.000
  22005155.201    -2121534.50549  -1617880.13647  22005155.546    22005169.949
       233.000         192.000
  22029764.552       78290.25649     50739.70047  22029764.616    22029776.191
       233.000         191.000
  23688264.035    -2052228.36749  -1569031.83745  23688264.003    23688278.894
       213.000         152.000
  20431220.086    -1149442.88349   -886161.21047  20431220.631    20431230.743
       243.000         212.000
  22516029.966       -5748.34049     -3756.84346  22516030.614    22516043.359
       228.000         181.000
 01  3 29 17 54 30.0000000  0  6G 9G24G 7G 5G 4G 2
  21288890.003    -1218419.16449   -930330.01547  21288890.245    21288901.098
       242.000         206.000
  21978546.704    -2261361.96149  -1726836.39947  21978547.290    21978561.253
       234.000         192.000
  22031098.077       85297.82449     56200.05647  22031097.935    22031109.428
       232.000         191.000
  23661631.954    -2192179.44649  -1678084.51645  23661631.875    23661647.085
       214.000         154.000
  20417357.991    -1222288.52749   -942924.02347  20417358.626    20417368.792
       243.000         212.000
  22516576.661       -2876.93949     -1519.56146  22516576.338    22516590.901
       228.000         181.000
 01  3 29 17 55  0.0000000  0  6G 9G24G 7G 5G 4G 2
  21275310.170    -1289780.62649   -985936.37347  21275310.422    21275321.433
       241.000         206.000
  21952040.805    -2400651.29249  -1835373.34247  21952041.174    21952055.429
       234.000         193.000
  22032485.141       92587.39549     61880.16147  22032485.278    22032497.062
       233.000         191.000
  23635039.938    -2331921.98149  -1786974.69145  23635040.240    23635054.835
       214.000         155.000
  20403648.315    -1294334.27349   -999063.53248  20403648.829    20403658.932
       243.000         213.000
  22517213.698         470.18949      1088.43646  22517212.970    22517227.959
       227.000         180.000
 01  3 29 17 55 30.0000000  0  6G 9G24G 7G 5G 4G 2
  21261877.783    -1360368.41449  -1040939.87047  21261878.253    21261888.854
       242.000         206.000
  21925640.389    -2539385.44349  -1943477.68347  21925640.981    21925654.930
       234.000         193.000
  22033928.708      100172.29049     67790.37847  22033928.310    22033940.299
       232.000         191.000
  23608490.323    -2471440.31549  -1895690.16545  23608490.448    23608505.469
       214.000         157.000
  20390093.382    -1365565.00449  -1054567.97747  20390094.066    20390103.989
       243.000         212.000
  22517943.998        4307.63749      4078.47846  22517943.640    22517957.661
       227.000         181.000
 01  3 29 17 56  0.0000000  0  6G 9G24G 7G 5G 4G 2
  21248585.470    -1430220.04549  -1095369.73947  21248585.719    21248596.852
       241.000         206.000
  21899338.927    -2677600.24449  -2051177.34047  21899339.207    21899353.259
       235.000         194.000
  22035420.989      108013.69049     73900.46147  22035421.068    22035432.671
       232.000         191.000
  23581976.116    -2610771.46649  -2004259.78245  23581976.414    23581992.007
       215.000         158.000
  20376686.523    -1436018.46649  -1109466.75047  20376687.132    20376697.216
       244.000         212.000
  22518760.632        8597.47249      7421.04246  22518760.503    22518774.577
       227.000         180.000
 01  3 29 17 56 30.0000000  0  6G 9G24G 7G 5G 4G 2
  21235433.623    -1499333.83549  -1149224.67047  21235434.094    21235445.097
       242.000         206.000
  21873136.863    -2815292.15649  -2158469.55947  21873137.072    21873151.218
       234.000         194.000
  22036962.160      116111.49649     80210.35047  22036962.104    22036973.448
       231.000         190.000
  23555498.119    -2749913.21749  -2112681.80345  23555498.241    23555513.496
       214.000         159.000
  20363427.989    -1505693.17949  -1163758.71048  20363428.625    20363438.586
       244.000         213.000
  22519663.058       13340.64549     11116.84346  22519663.220    22519677.708
       227.000         179.000
 01  3 29 17 57  0.0000000  0  6G 9G24G 7G 5G 4G 2
  21222420.606    -1567718.21049  -1202511.22047  21222420.604    21222432.032
       242.000         207.000
  21847032.969    -2952467.60049  -2265359.34847  21847033.547    21847047.190
       234.000         194.000
  22038549.946      124455.72649     86712.25947  22038549.679    22038561.755
       232.000         190.000
  23529055.223    -2888873.48249  -2220962.41845  23529055.491    23529070.076
       215.000         161.000
  20350315.791    -1574597.49649  -1217450.36348  20350316.492    20350326.332
       244.000         213.000
  22520650.650       18528.30549     15158.99146  22520650.803    22520664.245
       226.000         179.000
 01  3 29 17 57 30.0000000  0  6G 9G24G 7G 5G 4G 2
  21209554.592    -1635329.56949  -1255195.42447  21209554.859    21209565.843
       242.000         207.000
  21821036.340    -3089081.59149  -2371811.63647  21821036.479    21821050.706
       235.000         194.000
  22040192.582      133088.33649     93438.88347  22040192.542    22040204.291
       232.000         190.000
  23502654.545    -3027608.26349  -2329067.33845  23502655.287    23502668.826
       215.000         161.000
  20337358.734    -1642688.36449  -1270508.16648  20337359.309    20337369.304
       243.000         213.000
  22521730.420       24203.27249     19580.85646  22521730.088    22521744.349
       226.000         178.000
 01  3 29 17 58  0.0000000  0  6G 9G24G 7G 5G 4G 2
  21196837.900    -1702156.65049  -1307268.49847  21196838.228    21196849.179
       241.000         207.000
  21795148.774    -3225120.29549  -2477815.65547  21795148.891    21795163.063
       234.000         194.000
  22041892.015      142019.12849    100397.85947  22041891.738    22041904.160
       231.000         190.000
  23476299.650    -3166105.67149  -2436987.28345  23476299.545    23476314.059
       216.000         161.000
  20324558.333    -1709954.62549  -1322923.42148  20324558.906    20324568.825
       243.000         213.000
  22522905.560       30376.43549     24390.92546  22522905.908    22522919.011
       227.000         179.000
 01  3 29 17 58 29.9990000  0  6G 9G24G 7G 5G 4G 2
  21184266.578    -1768219.85149  -1358746.34547  21184266.733    21184277.740
       242.000         207.000
  21769367.757    -3360600.37349  -2583384.38847  21769368.178    21769381.938
       235.000         195.000
  22043643.996      151223.76749    107570.21747  22043643.815    22043655.589
       231.000         190.000
  23449986.215    -3304383.02249  -2544735.74345  23449985.668    23450001.069
       214.000         161.000
  20311910.897    -1776416.83449  -1374712.14048  20311911.434    20311921.571
       243.000         213.000
  22524170.792       37024.78849     29571.28546  22524170.095    22524185.099
       226.000         178.000
 01  3 29 17 58 59.9990000  0  6G 9G24G 7G 5G 4G 2
  21171842.810    -1833507.63049  -1409619.95947  21171843.167    21171853.929
       242.000         207.000
  21743694.479    -3495512.72949  -2688510.74247  21743695.122    21743709.024
       235.000         194.000
  22045450.649      160717.17549    114967.58447  22045450.436    22045462.729
       232.000         190.000
  23423716.644    -3442433.04549  -2652307.07945  23423716.175    23423730.734
       215.000         161.000
  20299418.864    -1842063.66249  -1425865.49948  20299419.444    20299429.383
       243.000         213.000
  22525529.392       44163.94649     35134.09146  22525529.917    22525543.954
       226.000         178.000
 01  3 29 17 59 29.9990000  0  6G 9G24G 7G 5G 4G 2
  21159568.116    -1898010.75249  -1459882.15647  21159568.548    21159579.429
       241.000         207.000
  21718131.959    -3629844.38849  -2793184.60747  21718132.141    21718146.254
       235.000         195.000
  22047313.171      170504.51949    122594.00747  22047312.703    22047325.249
       231.000         189.000
  23397491.941    -3580243.54049  -2759691.76045  23397491.349    23397505.953
       216.000         161.000
  20287083.333    -1906886.43349  -1476376.72248  20287083.983    20287093.975
       243.000         213.000
  22526982.502       51799.99149     41084.08546  22526982.357    22526996.291
       225.000         179.000
 01  3 29 17 59 59.9990000  0  6G 9G24G 7G 5G 4G 2
  21147440.209    -1961743.97049  -1509544.42747  21147440.591    21147451.382
       242.000         207.000
  21692677.422    -3763608.00449  -2897415.84247  21692677.893    21692691.759
       235.000         196.000
  22049228.690      180569.74749    130436.94347  22049228.503    22049240.444
       231.000         189.000
  23371309.546    -3717828.51149  -2866900.72245  23371309.336    23371324.562
       214.000         161.000
  20274902.044    -1970900.05349  -1526257.44448  20274902.742    20274912.558
       243.000         213.000
  22528527.505       59917.81749     47409.47646  22528526.962    22528541.252
       225.000         178.000
 01  3 29 18  0 29.9990000  0  6G 9G24G 7G 5G 4G 2
  21135457.274    -2024714.91949  -1558612.72247  21135457.607    21135468.349
       242.000         207.000
  21667330.001    -3896809.90049  -3001209.37947  21667330.171    21667344.314
       235.000         196.000
  22051195.175      190903.80549    138489.36247  22051194.964    22051206.910
       231.000         188.000
  23345169.612    -3855194.86449  -2973939.33245  23345168.878    23345184.341
       214.000         160.000
  20262873.124    -2034112.21949  -1575513.66348  20262873.899    20262883.817
       244.000         213.000
  22530162.718       68509.42849     54104.06246  22530162.216    22530176.845
       226.000         178.000
 01  3 29 18  0 59.9990000  0  6G 9G24G 7G 5G 4G 2
  21123616.928    -2086935.88149  -1607096.60647  21123617.224    21123628.203
       241.000         207.000
  21642087.384    -4029459.97449  -3104572.92447  21642087.734    21642101.633
       236.000         196.000
  22053210.239      201493.16949    146740.72947  22053210.114    22053222.231
       230.000         188.000
  23319069.316    -3992353.96649  -3080816.43245  23319068.588    23319083.001
       214.000         159.000
  20250994.353    -2096535.45449  -1624155.12048  20250994.948    20251004.813
       243.000         213.000
  22531885.599       77562.11749     61157.90946  22531885.787    22531899.537
       226.000         178.000
 01  3 29 18  1 29.9990000  0  6G 9G24G 7G 5G 4G 2
  21111926.510    -2148369.11449  -1654966.67447  21111926.987    21111938.162
       242.000         207.000
  21616957.307    -4161518.31049  -3207475.37047  21616957.894    21616971.407
       236.000         196.000
  22055280.965      212374.38849    155219.51647  22055280.939    22055293.285
       230.000         188.000
  23293015.719    -4129267.00649  -3187501.81045  23293015.562    23293029.837
       214.000         160.000
  20239272.839    -2158132.16049  -1672152.53148  20239273.570    20239283.551
       244.000         213.000
  22533703.225       87113.51849     68600.36146  22533703.354    22533717.587
       226.000         178.000
 01  3 29 18  1 59.9990000  0  6G 9G24G 7G 5G 4G 2
  21100388.581    -2209001.21249  -1702212.48147  21100389.060    21100400.031
       242.000         207.000
  21591943.000    -4292969.65149  -3309904.83647  21591943.221    21591956.933
       236.000         196.000
  22057409.599      223559.24449    163934.90247  22057409.189    22057421.419
       231.000         188.000
  23267011.431    -4265920.22549  -3293984.72745  23267011.174    23267025.870
       215.000         161.000
  20227711.209    -2218889.43749  -1719495.83348  20227711.865    20227721.812
       243.000         213.000
  22535618.524       97176.24249     76441.25346  22535618.608    22535632.368
       226.000         178.000
 01  3 29 18  2 29.9990000  0  6G 9G24G 7G 5G 4G 2
  21089000.833    -2268845.87049  -1748844.69747  21089001.016    21089012.109
       242.000         207.000
  21567041.937    -4423826.01449  -3411870.68447  21567041.959    21567055.661
       237.000         197.000
  22059593.014      235032.83849    172875.27546  22059592.568    22059604.631
       230.000         187.000
  23241053.843    -4402326.29549  -3400275.04545  23241053.782    23241068.687
       215.000         160.000
  20216306.604    -2278821.19849  -1766195.87748  20216307.087    20216317.035
       243.000         213.000
  22537628.140      107736.31049     84669.68446  22537628.070    22537642.208
       225.000         178.000
 01  3 29 18  2 59.9990000  0  6G 9G24G 7G 5G 4G 2
  21077760.065    -2327914.92649  -1794872.54747  21077760.608    21077771.716
       241.000         208.000
  21542251.929    -4554097.17149  -3513380.52247  21542251.974    21542265.526
       236.000         197.000
  22061828.610      246782.19949    182030.52446  22061828.655    22061840.720
       230.000         187.000
  23215141.490    -4538496.09749  -3506381.28345  23215141.946    23215155.934
       215.000         161.000
  20205056.783    -2337939.45349  -1812262.02548  20205057.382    20205067.195
       243.000         213.000
  22539729.952      118781.38649     93276.02246  22539729.522    22539743.865
       225.000         177.000
 01  3 29 18  3 29.9990000  0  6G 9G24G 7G 5G 4G 2
  21066671.860    -2386186.79149  -1840279.21447  21066671.746    21066682.904
       242.000         206.000
  21517577.713    -4683759.67149  -3614416.08647  21517577.894    21517591.360
       237.000         197.000
  22064121.285      258827.94349    191416.72946  22064121.147    22064132.294
       230.000         186.000
  23189279.011    -4674406.97449  -3612285.75645  23189279.080    23189292.166
       216.000         161.000
  20193965.560    -2396222.78749  -1857677.58548  20193966.332    20193976.222
       243.000         213.000
  22541928.044      130332.95349    102277.03646  22541928.356    22541942.887
       225.000         177.000
 01  3 29 18  3 59.9990000  0  6G 9G24G 7G 5G 4G 2
  21055727.311    -2443699.00749  -1885093.93847  21055727.791    21055738.753
       242.000         207.000
  21493013.042    -4812848.72349  -3715004.80247  21493013.251    21493026.762
       237.000         197.000
  22066462.351      271131.20249    201003.59146  22066462.039    22066474.718
       230.000         186.000
  23163457.759    -4810095.51949  -3718016.97045  23163457.434    23163472.163
       215.000         161.000
  20183026.511    -2453709.11749  -1902472.11348  20183026.993    20183036.818
       244.000         213.000
  22544215.659      142353.04849    111643.12046  22544215.888    22544229.831
       225.000         177.000
 01  3 29 18  4 29.9990000  0  6G 9G24G 7G 5G 4G 2
  21044927.356    -2500453.50649  -1929318.23947  21044927.797    21044938.740
       242.000         207.000
  21468557.089    -4941364.45549  -3815146.77447  21468557.583    21468570.478
       237.000         198.000
  22068852.350      283688.72249    210788.58046  22068851.665    22068863.730
       229.000         186.000
  23137679.099    -4945562.92449  -3823575.87545  23137678.298    23137694.017
       215.000         160.000
  20172238.354    -2510400.62749  -1946647.30348  20172238.915    20172248.991
       243.000         213.000
  22546591.926      154839.27449    121372.43546  22546591.689    22546607.638
       225.000         177.000
 01  3 29 18  4 59.9990000  0  6G 9G24G 7G 5G 4G 2
  21034272.691    -2556444.52949  -1972947.62247  21034272.884    21034284.006
       242.000         207.000
  21444211.777    -5069299.18949  -3914836.01947  21444212.087    21444225.501
       237.000         198.000
  22071290.956      296505.44549    220775.55246  22071290.817    22071303.278
       229.000         185.000
  23111943.938    -5080802.37049  -3928957.14545  23111943.220    23111957.861
       215.000         160.000
  20161602.714    -2566291.75049  -1990198.81348  20161603.193    20161613.090
       243.000         213.000
  22549057.950      167797.07149    131469.21246  22549057.818    22549072.222
       225.000         177.000
 01  3 29 18  5 29.9990000  0  6G 9G24G 7G 5G 4G 2
  21023759.486    -2611693.10149  -2015998.47447  21023759.639    21023770.414
       242.000         208.000
  21419973.314    -5196671.71849  -4014087.18047  21419973.579    21419987.086
       237.000         199.000
  22073775.114      309559.00749    230947.06546  22073775.137    22073787.386
       229.000         185.000
  23086248.207    -5215833.97349  -4034176.46745  23086247.504    23086261.944
       216.000         161.000
  20151115.174    -2621404.07649  -2033143.47048  20151115.879    20151125.743
       244.000         213.000
  22551609.766      181205.01749    141916.74446  22551609.867    22551624.174
       224.000         177.000
 01  3 29 18  5 59.9990000  0  6G 9G24G 7G 5G 4G 2
  21013386.139    -2666203.24449  -2058473.92747  21013386.628    21013397.681
       242.000         207.000
  21395841.798    -5323483.99549  -4112901.78547  21395842.030    21395855.630
       237.000         199.000
  22076303.514      322844.62349    241299.39446  22076303.337    22076315.249
       229.000         186.000
  23060591.434    -5350660.30749  -4139235.83045  23060591.710    23060606.121
       217.000         161.000
  20140775.175    -2675741.54849  -2075484.34748  20140775.659    20140785.713
       243.000         213.000
  22554246.304      195059.12649    152711.93646  22554246.311    22554261.492
       225.000         177.000
 01  3 29 18  6 29.9990000  0  6G 9G24G 7G 5G 4G 2
  21003156.832    -2719960.78749  -2100362.93947  21003157.062    21003167.780
       242.000         208.000
  21371819.695    -5449719.94049  -4211267.29047  21371819.934    21371833.565
       237.000         199.000
  22078878.779      336375.55549    251842.88446  22078878.113    22078890.664
       229.000         185.000
  23034977.019    -5485266.14549  -4244123.37345  23034975.644    23034990.627
       218.000         161.000
  20130585.162    -2729290.18149  -2117210.55148  20130585.814    20130595.644
       243.000         213.000
  22556970.394      209373.27449    163865.60946  22556970.131    22556984.621
       224.000         177.000
 01  3 29 18  6 59.9990000  0  6G 9G24G 7G 5G 4G 2
  20993076.749    -2772931.64649  -2141638.95647  20993077.055    20993087.941
       242.000         207.000
  21347914.283    -5575343.59749  -4309155.70647  21347914.657    21347927.800
       237.000         199.000
  22081506.441      350184.63149    262603.10546  22081506.051    22081518.180
       229.000         185.000
  23009410.688    -5619616.24049  -4348811.64846  23009410.978    23009424.518
       218.000         163.000
  20120551.662    -2782016.52649  -2158296.01448  20120552.225    20120562.081
       244.000         213.000
  22559788.355      224181.14249    175403.99046  22559787.792    22559803.081
       223.000         176.000
 01  3 29 18  7 29.9990000  0  6G 9G24G 7G 5G 4G 2
  20983139.849    -2825149.93849  -2182328.55447  20983139.965    20983151.314
       243.000         207.000
  21324119.186    -5700386.79449  -4406591.80647  21324119.570    21324132.907
       237.000         200.000
  22084180.474      364236.91249    273552.82846  22084180.297    22084192.774
       228.000         185.000
  22983887.127    -5753743.39149  -4453326.18945  22983886.945    22983901.120
       218.000         162.000
  20110668.164    -2833954.82649  -2198767.41948  20110668.756    20110678.593
       244.000         213.000
  22562693.665      239448.42349    187300.36246  22562693.515    22562708.539
       224.000         176.000
 01  3 29 18  7 59.9990000  0  6G 9G24G 7G 5G 4G 2
  20973343.346    -2876630.57849  -2222443.35747  20973343.747    20973354.697
       244.000         207.000
  21300432.202    -5824862.67249  -4503585.84447  21300432.491    21300445.548
       237.000         200.000
  22086897.628      378516.49449    284679.67946  22086897.023    22086910.485
       228.000         184.000
  22958403.571    -5887661.65449  -4557677.96846  22958403.913    22958416.873
       220.000         163.000
  20100931.650    -2885120.33249  -2238636.65148  20100932.287    20100942.220
       245.000         213.000
  22565683.635      255159.80949    199542.78146  22565682.755    22565698.364
       222.000         175.000
 01  3 29 18  8 29.9990000  0  6G 9G24G 7G 5G 4G 2
  20963691.745    -2927351.38949  -2261966.09047  20963691.937    20963703.051
       244.000         208.000
  21276857.766    -5948746.61649  -4600118.64547  21276857.960    21276871.347
       238.000         200.000
  22089662.337      393044.81549    296000.34346  22089662.278    22089674.795
       227.000         184.000
  22932963.360    -6021347.61549  -4661848.73645  22932962.548    22932977.549
       217.000         162.000
  20091346.475    -2935491.10149  -2277886.60748  20091347.073    20091356.782
       244.000         213.000
  22568762.132      271337.41849    212148.48946  22568762.714    22568778.034
       222.000         175.000
 01  3 29 18  8 59.9990000  0  6G 9G24G 7G 5G 4G 2
  20954186.592    -2977300.63649  -2300887.60647  20954187.023    20954198.112
       243.000         208.000
  21253398.490    -6072024.69949  -4696179.34647  21253398.887    21253411.891
       238.000         200.000
  22092476.659      407832.76949    307523.31946  22092476.579    22092489.097
       228.000         185.000
  22907570.423    -6154787.84849  -4765828.01746  22907570.372    22907584.809
       219.000         163.000
  20081914.758    -2985055.49249  -2316508.21748  20081915.457    20081925.199
       244.000         213.000
  22571931.661      287992.89149    225126.55746  22571931.335    22571946.884
       221.000         174.000
 01  3 29 18  9 29.9990000  0  6G 9G24G 7G 5G 4G 2
  20944822.648    -3026509.39749  -2339232.12847  20944822.820    20944833.761
       244.000         208.000
  21230049.218    -6194726.17649  -4791790.74847  21230049.502    21230062.626
       238.000         200.000
  22095334.195      422848.52149    319223.80346  22095333.882    22095346.625
       228.000         184.000
  22882218.692    -6288012.17549  -4869639.07246  22882219.036    22882232.812
       219.000         163.000
  20072630.386    -3033845.11949  -2354526.11648  20072630.861    20072640.874
       245.000         213.000
  22575186.497      305094.92149    238452.58946  22575186.021    22575201.486
       221.000         174.000
 01  3 29 18  9 59.9990000  0  6G 9G24G 7G 5G 4G 2
  20935600.579    -3074971.95549  -2376995.18747  20935600.869    20935611.844
       244.000         208.000
  21206811.099    -6316843.05849  -4886946.62047  21206811.385    21206824.127
       239.000         201.000
  22098235.977      438096.85749    331105.51546  22098235.835    22098248.412
       228.000         184.000
  22856909.537    -6421013.68749  -4973276.48946  22856909.906    22856922.866
       219.000         163.000
  20063494.463    -3081854.51949  -2391936.04148  20063495.010    20063504.927
       244.000         213.000
  22578527.002      322648.76949    252130.68546  22578527.283    22578541.629
       221.000         173.000
 01  3 29 18 10 29.9990000  0  6G 9G24G 7G 5G 4G 2
  20926520.786    -3122685.45549  -2414174.56947  20926521.220    20926532.317
       243.000         208.000
  21183685.002    -6438370.83249  -4981643.45647  21183685.061    21183698.200
       239.000         201.000
  22101182.507      453580.01849    343170.20846  22101181.947    22101194.764
       227.000         184.000
  22831643.396    -6553788.18549  -5076737.03246  22831643.056    22831656.812
       219.000         163.000
  20054507.601    -3129081.19549  -2428736.05748  20054508.093    20054517.877
       244.000         213.000
  22581953.908      340657.42449    266163.17446  22581954.399    22581968.871
       221.000         173.000
 01  3 29 18 10 59.9990000  0  6G 9G24G 7G 5G 4G 2
  20917585.209    -3169643.80549  -2450765.51947  20917585.359    20917596.500
       243.000         207.000
  21160672.562    -6559300.60449  -5075874.30947  21160673.034    21160685.769
       239.000         202.000
  22104174.423      469303.27949    355421.98846  22104174.326    22104187.277
       227.000         183.000
  22806421.496    -6686327.95449  -5180014.65946  22806420.763    22806435.431
       218.000         164.000
  20045670.638    -3175519.27749  -2464921.58148  20045671.318    20045681.207
       244.000         213.000
  22585468.953      359126.86949    280554.71146  22585468.085    22585484.695
       222.000         172.000
 01  3 29 18 11 29.9990000  0  6G 9G24G 7G 5G 4G 2
  20908788.850    -3215869.05449  -2486785.22447  20908788.915    20908799.941
       243.000         208.000
  21137770.339    -6679652.59049  -5169654.94747  21137770.541    21137783.281
       238.000         202.000
  22107208.317      485244.02649    367843.25046  22107208.029    22107220.772
       228.000         183.000
  22781240.414    -6818653.61449  -5283125.44746  22781240.131    22781254.431
       217.000         163.000
  20036979.774    -3221191.25149  -2500510.13748  20036980.427    20036990.101
       244.000         213.000
  22589067.187      378034.72149    295287.87146  22589067.110    22589082.574
       222.000         172.000
 01  3 29 18 11 59.9990000  0  6G 9G24G 7G 5G 4G 2
  20900123.184    -3261406.94949  -2522269.33047  20900123.460    20900134.605
       243.000         208.000
  21114969.827    -6799470.27149  -5263019.24747  21114970.137    21114982.952
       239.000         202.000
  22110274.135      501355.91049    380397.86446  22110274.418    22110286.784
       228.000         183.000
  22756092.134    -6950809.16149  -5386103.68746  22756091.803    22756106.324
       217.000         164.000
  20028425.666    -3266142.82549  -2535537.34448  20028426.135    20028436.016
       244.000         213.000
  22592740.045      397335.23749    310326.98846  22592739.783    22592755.058
       221.000         172.000
 01  3 29 18 12 29.9990000  0  6G 9G24G 7G 5G 4G 2
  20891589.308    -3306253.34549  -2557214.60847  20891589.614    20891600.467
       243.000         208.000
  21092271.905    -6918747.27249  -5355962.23147  21092272.149    21092285.383
       239.000         202.000
  22113373.410      517642.50849    393088.61046  22113373.184    22113386.416
       227.000         183.000
  22730976.764    -7082788.96549  -5488944.97546  22730977.047    22730991.868
       215.000         164.000
  20020009.435    -3310370.41149  -2570000.40648  20020010.085    20020019.822
       244.000         213.000
  22596488.620      417032.46349    325675.23646  22596488.236    22596503.913
       222.000         173.000
 01  3 29 18 12 59.9990000  0  6G 9G24G 7G 5G 4G 2
  20883185.654    -3350415.10949  -2591626.41247  20883185.844    20883197.104
       243.000         208.000
  21069676.507    -7037488.13049  -5448487.45647  21069676.605    21069689.631
       239.000         202.000
  22116504.466      534096.25049    405909.59046  22116504.698    22116517.025
       227.000         183.000
  22705894.171    -7214598.53249  -5591653.62046  22705894.169    22705908.358
       216.000         165.000
  20011729.765    -3353881.10349  -2603904.85448  20011730.261    20011740.010
       244.000         213.000
  22600311.175      437119.45649    341327.19546  22600310.717    22600326.656
       222.000         172.000
 01  3 29 18 13 29.9990000  0  6G 9G24G 7G 5G 4G 2
  20874911.343    -3393897.00349  -2625508.44247  20874911.607    20874922.619
       243.000         208.000
  21047182.036    -7155695.80049  -5540597.21147  21047182.075    21047195.071
       239.000         203.000
  22119666.770      550711.67649    418856.55746  22119666.583    22119678.689
       227.000         181.000
  22680843.809    -7346241.17349  -5694232.19946  22680843.554    22680857.610
       217.000         167.000
  20003585.251    -3396680.12649  -2637254.74948  20003586.107    20003595.523
       244.000         213.000
  22604207.120      457591.19049    357278.94246  22604206.704    22604222.639
       222.000         171.000
 01  3 29 18 13 59.9990000  0  6G 9G24G 7G 5G 4G 2
  20866768.282    -3436688.64949  -2658852.62047  20866768.515    20866779.767
       243.000         208.000
  21024791.627    -7273357.62849  -5632281.62947  21024792.240    21024804.682
       239.000         203.000
  22122861.311      567499.03349    431937.50346  22122861.351    22122872.913
       228.000         181.000
  22655827.140    -7477704.70349  -5796671.19846  22655827.011    22655841.170
       219.000         168.000
  19995578.355    -3438757.08749  -2670041.99748  19995578.898    19995588.745
       243.000         213.000
  22608177.873      478458.15049    373538.67546  22608177.182    22608193.256
       222.000         171.000
 01  3 29 18 14 29.9990000  0  6G 9G24G 7G 5G 4G 2
  20858760.163    -3478773.25649  -2691645.85747  20858760.501    20858771.142
       243.000         208.000
  21002508.798    -7390454.17849  -5723525.56847  21002509.094    21002521.774
       239.000         203.000
  22126091.611      584474.61049    445165.11446  22126091.360    22126104.414
       226.000         182.000
  22630847.626    -7608970.34849  -5898955.99646  22630847.833    22630862.243
       220.000         169.000
  19987711.872    -3480095.73949  -2702253.93948  19987712.478    19987722.370
       244.000         213.000
  22612227.703      499737.21249    390119.51046  22612226.810    22612243.189
       223.000         171.000
 01  3 29 18 14 59.9980000  0  6G 9G24G 7G 5G 4G 2
  20850877.600    -3520195.07249  -2723922.63747  20850877.930    20850889.032
       242.000         208.000
  20980326.145    -7507025.44349  -5814360.20347  20980326.511    20980338.956
       241.000         203.000
  22129348.893      601591.63749    458502.93946  22129349.118    22129361.633
       227.000         181.000
  22605898.796    -7740077.82149  -6001117.55046  22605898.689    22605912.394
       217.000         169.000
  19979977.369    -3520740.63949  -2733925.29448  19979977.915    19979987.861
       244.000         213.000
  22616346.563      521381.95749    406985.29546  22616346.209    22616361.627
       223.000         170.000
 01  3 29 18 15 29.9980000  0  6G 9G24G 7G 5G 4G 2
  20843130.235    -3560908.80349  -2755647.66147  20843130.538    20843141.457
       243.000         208.000
  20958251.180    -7623029.07749  -5904752.52247  20958251.212    20958263.989
       241.000         203.000
  22132642.768      618898.83949    471988.94346  22132642.489    22132655.023
       227.000         182.000
  22580987.955    -7870986.04149  -6103123.85146  22580987.195    22581001.759
       220.000         168.000
  19972383.487    -3560646.79449  -2765021.00048  19972384.026    19972393.869
       244.000         213.000
  22620544.988      543442.01649    424174.70046  22620544.933    22620560.525
       223.000         171.000
 01  3 29 18 15 59.9980000  0  6G 9G24G 7G 5G 4G 2
  20835509.601    -3600955.78549  -2786853.14047  20835509.704    20835520.979
       243.000         208.000
  20936277.416    -7738501.45749  -5994730.88447  20936277.664    20936290.399
       241.000         203.000
  22135964.129      636352.37649    485588.99046  22135963.555    22135976.265
       227.000         181.000
  22556107.479    -8001731.96549  -6205003.68046  22556106.939    22556121.562
       219.000         168.000
  19964922.348    -3599855.98449  -2795573.62448  19964922.870    19964932.576
       244.000         213.000
  22624813.593      565873.35049    441653.41946  22624813.386    22624829.777
       222.000         169.000
 01  3 29 18 16 29.9980000  0  6G 9G24G 7G 5G 4G 2
  20828012.670    -3640352.36749  -2817551.81947  20828012.881    20828024.326
       243.000         208.000
  20914402.088    -7853456.72949  -6084306.30847  20914402.291    20914414.966
       241.000         204.000
  22139310.250      653935.77149    499290.21646  22139309.706    22139322.677
       226.000         179.000
  22531255.747    -8132329.83549  -6306768.13646  22531255.444    22531268.961
       220.000         168.000
  19957590.533    -3638384.60349  -2825595.93448  19957591.227    19957600.861
       244.000         213.000
  22629149.507      588659.99849    459408.98646  22629149.247    22629165.656
       221.000         169.000
 01  3 29 18 16 59.9980000  0  6G 9G24G 7G 5G 4G 2
  20820649.612    -3679045.22849  -2847702.14247  20820649.978    20820661.330
       243.000         208.000
  20892635.892    -7967839.11949  -6173435.33547  20892636.128    20892648.404
       241.000         204.000
  22142690.875      671701.99749    513133.89846  22142690.730    22142703.890
       226.000         179.000
  22506442.454    -8262724.54749  -6408374.31046  22506442.030    22506455.911
       220.000         168.000
  19950398.339    -3676179.87349  -2855046.80648  19950399.115    19950408.753
       244.000         213.000
  22633563.669      611855.44349    477483.09946  22633563.545    22633580.158
       220.000         169.000
 01  3 29 18 17 29.9980000  0  6G 9G24G 7G 5G 4G 2
  20813409.610    -3717092.89749  -2877349.71947  20813409.753    20813420.941
       243.000         207.000
  20870967.733    -8081705.14849  -6262161.99947  20870967.804    20870980.350
       241.000         204.000
  22146095.395      689592.10049    527074.11346  22146095.413    22146107.971
       226.000         180.000
  22481656.357    -8392972.86949  -6509866.39746  22481656.610    22481671.005
       219.000         167.000
  19943334.399    -3713300.64649  -2883972.09748  19943334.950    19943344.822
       244.000         213.000
  22638044.814      635401.02949    495830.04246  22638044.485    22638061.826
       220.000         168.000
 01  3 29 18 17 59.9980000  0  6G 9G24G 7G 5G 4G 2
  20806300.010    -3754453.55349  -2906461.96447  20806300.188    20806311.810
       243.000         207.000
  20849406.320    -8195010.67749  -6350451.91547  20849406.528    20849419.018
       242.000         205.000
  22149531.692      707647.96649    541143.49146  22149531.175    22149543.659
       226.000         179.000
  22456907.051    -8523030.92649  -6611210.23546  22456907.572    22456919.931
       220.000         167.000
  19936406.926    -3749705.19149  -2912339.28548  19936407.592    19936417.367
       244.000         213.000
  22642599.924      659338.93949    514482.68946  22642600.360    22642615.698
       219.000         167.000
 01  3 29 18 18 29.9980000  0  6G 9G24G 7G 5G 4G 2
  20799322.625    -3791119.79449  -2935033.11047  20799322.833    20799334.095
       242.000         207.000
  20827953.559    -8307745.73049  -6438297.31247  20827953.877    20827966.277
       242.000         205.000
  22153000.364      725876.68949    555347.56146  22153000.534    22153012.589
       225.000         179.000
  22432196.060    -8652889.42849  -6712398.57646  22432195.668    22432209.756
       221.000         168.000
  19929617.004    -3785386.60849  -2940142.99748  19929617.588    19929627.534
       244.000         213.000
  22647231.704      683676.27949    533446.58146  22647231.466    22647247.880
       218.000         167.000
 01  3 29 18 18 59.9980000  0  6G 9G24G 7G 5G 4G 2
  20792482.236    -3827067.14849  -2963044.08347  20792482.436    20792493.694
       242.000         207.000
  20806614.279    -8419883.79749  -6525677.52747  20806614.514    20806627.041
       241.000         206.000
  22156506.641      744302.35649    569705.10546  22156506.548    22156518.737
       225.000         178.000
  22407528.093    -8782522.11449  -6813410.96046  22407527.844    22407541.928
       223.000         169.000
  19922969.275    -3820320.96149  -2967364.58148  19922969.834    19922979.661
       244.000         213.000
  22651943.781      708437.73149    552740.93546  22651943.672    22651960.114
       218.000         168.000
 01  3 29 18 19 29.9980000  0  6G 9G24G 7G 5G 4G 2
  20785761.942    -3862381.95949  -2990562.16347  20785762.405    20785773.462
       243.000         207.000
  20785372.599    -8531508.57849  -6612657.77947  20785372.872    20785385.346
       242.000         206.000
  22160034.085      762838.44749    584148.67446  22160033.709    22160046.444
       226.000         178.000
  22382886.362    -8912013.27849  -6914313.07646  22382886.284    22382900.080
       223.000         170.000
  19916447.262    -3854594.63849  -2994071.35348  19916447.854    19916457.653
       244.000         213.000
  22656720.500      733536.98549    572298.52546  22656720.146    22656736.669
       219.000         169.000
 01  3 29 18 19 59.9980000  0  6G 9G24G 7G 5G 4G 2
  20779168.016    -3897034.42949  -3017564.13847  20779168.300    20779179.568
       243.000         207.000
  20764234.825    -8642588.68349  -6699213.60947  20764235.002    20764247.547
       242.000         206.000
  22163588.389      781514.69549    598701.46546  22163588.087    22163600.881
       225.000         179.000
  22358278.033    -9041331.12549  -7015080.12746  22358277.829    22358291.535
       223.000         171.000
  19910056.406    -3888178.48749  -3020240.59648  19910057.046    19910066.903
       244.000         213.000
  22661566.448      759003.89549    592142.60046  22661566.508    22661582.591
       218.000         168.000
 01  3 29 18 20 29.9980000  0  6G 9G24G 7G 5G 4G 2
  20772702.880    -3931008.97449  -3044037.85647  20772703.235    20772714.337
       243.000         207.000
  20743203.966    -8753105.47649  -6785330.50147  20743204.379    20743216.709
       242.000         206.000
  22167171.922      800346.85049    613375.75246  22167171.330    22167184.524
       224.000         178.000
  22333705.861    -9170457.71449  -7115698.15846  22333705.889    22333719.473
       223.000         171.000
  19903799.927    -3921056.77649  -3045860.05748  19903800.560    19903810.160
       244.000         213.000
  22666486.390      784854.37149    612285.53946  22666485.461    22666502.627
       217.000         168.000
 01  3 29 18 20 59.9980000  0  6G 9G24G 7G 5G 4G 2
  20766366.435    -3964308.16149  -3069985.32547  20766366.547    20766377.673
       242.000         207.000
  20722280.316    -8863059.30749  -6871008.72447  20722280.668    20722293.161
       241.000         206.000
  22170784.796      819332.24049    628169.44146  22170784.827    22170797.303
       224.000         177.000
  22309170.577    -9299393.52349  -7216167.51746  22309170.687    22309184.041
       224.000         171.000
  19897677.080    -3953232.54449  -3070932.10348  19897677.681    19897687.524
       244.000         213.000
  22671478.059      811085.96949    632725.46046  22671477.885    22671494.605
       217.000         167.000
 01  3 29 18 21 29.9980000  0  6G 9G24G 7G 5G 4G 2
  20760161.995    -3996913.08249  -3095391.80747  20760162.138    20760173.358
       243.000         207.000
  20701467.981    -8972429.32949  -6956232.03547  20701468.097    20701480.743
       242.000         206.000
  22174430.331      838489.76249    643097.25546  22174429.618    22174443.083
       225.000         178.000
  22284674.948    -9428117.52749  -7316471.82846  22284675.344    22284688.920
       223.000         171.000
  19891691.378    -3984687.22649  -3095442.26848  19891692.024    19891701.819
       244.000         213.000
  22676545.849      837717.86949    653477.29746  22676545.630    22676562.616
       217.000         167.000
 01  3 29 18 21 59.9980000  0  6G 9G24G 7G 5G 4G 2
  20754088.964    -4028825.99549  -3120259.05847  20754089.018    20754100.688
       243.000         207.000
  20680766.558    -9081215.26549  -7041000.21247  20680766.751    20680779.309
       241.000         206.000
  22178108.434      857817.02749    658157.32746  22178108.670    22178121.210
       224.000         176.000
  22260219.467    -9556630.17249  -7416611.44746  22260219.729    22260232.458
       223.000         171.000
  19885842.539    -4015423.55649  -3119392.67847  19885842.980    19885852.986
       244.000         212.000
  22681689.687      864747.70849    674539.22646  22681690.181    22681706.436
       217.000         167.000
 01  3 29 18 22 29.9980000  0  6G 9G24G 7G 5G 4G 2
  20748140.754    -4060084.38649  -3144616.29547  20748140.996    20748152.309
       242.000         207.000
  20660169.681    -9189452.42449  -7125340.77147  20660169.778    20660182.169
       241.000         206.000
  22181811.519      877276.55549    673320.46346  22181811.167    22181824.492
       224.000         177.000
  22235797.816    -9684966.44049  -7516613.63746  22235797.694    22235810.801
       222.000         171.000
  19880123.242    -4045479.16749  -3142812.66148  19880123.725    19880133.359
       244.000         213.000
  22686902.424      892138.24549    695882.21246  22686901.932    22686919.608
       219.000         168.000
 01  3 29 18 22 59.9980000  0  6G 9G24G 7G 5G 4G 2
  20742315.180    -4090698.31349  -3168471.35047  20742315.502    20742326.750
       243.000         207.000
  20639675.836    -9297148.24849  -7209259.51547  20639676.137    20639688.497
       241.000         207.000
  22185537.657      896858.35549    688578.88346  22185537.549    22185551.510
       224.000         176.000
  22211408.263    -9813134.23049  -7616484.54946  22211407.994    22211421.733
       222.000         170.000
  19874531.410    -4074864.65549  -3165710.47248  19874531.984    19874541.675
       244.000         213.000
  22692181.664      919879.47149    717498.45046  22692182.040    22692198.386
       219.000         168.000
 01  3 29 18 23 29.9980000  0  6G 9G24G 7G 5G 4G 2
  20736610.007    -4120680.21449  -3191833.92147  20736610.195    20736621.487
       243.000         207.000
  20619283.009    -9404313.16249  -7292764.56947  20619283.285    20619295.456
       241.000         207.000
  22189285.107      916550.04149    703922.92146  22189285.286    22189298.154
       225.000         177.000
  22187048.666    -9941143.72349  -7716232.09446  22187048.040    22187061.610
       223.000         170.000
  19869064.749    -4103592.58349  -3188095.90148  19869065.227    19869075.185
       244.000         213.000
  22697525.726      947959.21449    739378.48346  22697525.006    22697542.389
       219.000         168.000
 01  3 29 18 23 59.9980000  0  6G 9G24G 7G 5G 4G 2
  20731032.309    -4149990.74749  -3214673.35447  20731032.447    20731043.810
       243.000         207.000
  20598999.275    -9510905.03649  -7375823.10147  20598999.443    20599011.691
       241.000         207.000
  22193060.824      936391.18449    719383.41846  22193061.044    22193074.523
       224.000         175.000
  22162727.665   -10068953.37849  -7815823.92846  22162727.158    22162740.799
       222.000         171.000
  19863730.464    -4131624.04349  -3209938.63148  19863731.163    19863741.187
       244.000         213.000
  22702940.790      976417.21049    761553.24346  22702940.413    22702957.308
       219.000         168.000
 01  3 29 18 24 29.9980000  0  6G 9G24G 7G 5G 4G 2
  20725577.869    -4178655.34449  -3237009.45747  20725577.980    20725589.441
       243.000         207.000
  20578820.051    -9616947.48149  -7458453.50647  20578820.475    20578832.498
       242.000         207.000
  22196860.288      956356.48349    734940.66946  22196860.934    22196873.694
       225.000         175.000
  22138439.606   -10196586.17749  -7915277.95146  22138439.742    22138452.901
       223.000         171.000
  19858523.904    -4158985.00349  -3231258.88747  19858524.408    19858534.240
       244.000         212.000
  22708423.504     1005228.17649    784003.04246  22708423.674    22708441.249
       220.000         169.000
 01  3 29 18 24 59.9980000  0  6G 9G24G 7G 5G 4G 2
  20720252.398    -4206639.82149  -3258815.59647  20720252.477    20720264.044
       242.000         207.000
  20558752.412    -9722403.95149  -7540627.30547  20558752.542    20558764.858
       242.000         208.000
  22200690.055      976480.26049    750621.39946  22200689.955    22200702.959
       224.000         176.000
  22114192.289   -10324005.64049  -8014565.75046  22114192.699    22114205.921
       222.000         171.000
  19853451.260    -4185641.40349  -3252030.13547  19853451.846    19853461.888
       244.000         212.000
  22713980.071     1034426.43949    806754.64446  22713979.467    22713996.879
       219.000         168.000
 01  3 29 18 25 29.9980000  0  6G 9G24G 7G 5G 4G 2
  20715046.599    -4233997.74749  -3280133.51747  20715046.802    20715058.100
       243.000         207.000
  20538786.393    -9827325.20249  -7622384.05047  20538786.534    20538798.745
       242.000         208.000
  22204539.725      996709.35749    766384.19646  22204539.433    22204552.366
       224.000         176.000
  22089976.325   -10451262.76249  -8113727.03646  22089976.005    22089989.807
       223.000         172.000
  19848502.679    -4211647.06749  -3272294.31547  19848503.159    19848513.186
       244.000         212.000
  22719600.154     1063958.94949    829766.67946  22719599.815    22719617.154
       220.000         167.000
 01  3 29 18 25 59.9980000  0  6G 9G24G 7G 5G 4G 2
  20709958.449    -4260736.58349  -3300969.03147  20709958.551    20709970.030
       243.000         207.000
  20518921.361    -9931716.09749  -7703727.52847  20518921.683    20518933.657
       243.000         208.000
  22208407.696     1017036.43949    782223.34646  22208407.863    22208420.557
       224.000         176.000
  22065790.251   -10578362.77749  -8212765.89946  22065789.739    22065803.027
       222.000         172.000
  19843676.325    -4237009.94149  -3292057.61647  19843676.922    19843686.816
       244.000         212.000
  22725282.470     1093818.42349    853033.49046  22725281.663    22725298.883
       219.000         166.000
 01  3 29 18 26 29.9980000  0  6G 9G24G 7G 5G 4G 2
  20704991.207    -4286838.27149  -3321308.06247  20704991.521    20705003.199
       242.000         206.000
  20499161.350   -10035556.82649  -7784642.30347  20499161.326    20499173.594
       242.000         208.000
  22212298.287     1037479.77949    798153.08946  22212298.019    22212311.508
       224.000         176.000
  22041637.191   -10705285.21349  -8311666.40146  22041636.508    22041650.393
       222.000         173.000
  19838975.681    -4261712.30149  -3311306.22947  19838976.308    19838986.028
       244.000         212.000
  22731030.695     1124022.98449    876569.20146  22731029.995    22731047.327
       219.000         166.000
 01  3 29 18 26 59.9980000  0  6G 9G24G 7G 5G 4G 2
  20700150.693    -4312276.99549  -3341130.51147  20700150.902    20700162.262
       242.000         206.000
  20479511.045   -10138818.92349  -7865106.20347  20479511.187    20479523.200
       242.000         208.000
  22216215.923     1058065.65549    814193.89846  22216215.093    22216228.672
       224.000         176.000
  22017523.667   -10832001.71849  -8410406.43546  22017523.801    22017537.512
       222.000         173.000
  19834405.629    -4285728.54649  -3330020.21147  19834406.256    19834416.031
       244.000         212.000
  22736849.470     1154598.82049    900394.20846  22736848.558    22736867.115
       218.000         165.000
 01  3 29 18 27 29.9980000  0  6G 9G24G 7G 5G 4G 2
  20695435.745    -4337053.32949  -3360436.80947  20695435.990    20695447.554
       242.000         207.000
  20459971.328   -10241500.06849  -7945117.41147  20459971.590    20459983.519
       243.000         209.000
  22220160.046     1078793.89449    830345.63846  22220159.834    22220173.653
       224.000         175.000
  21993449.640   -10958510.22849  -8508984.39346  21993449.978    21993463.532
       222.000         175.000
  19829965.783    -4309059.63049  -3348200.29747  19829966.274    19829976.241
       244.000         212.000
  22742738.358     1185545.78049    924508.39646  22742737.306    22742755.910
       218.000         164.000
 01  3 29 18 27 59.9980000  0  6G 9G24G 7G 5G 4G 2
  20690838.810    -4361211.23749  -3379261.22247  20690839.075    20690850.429
       242.000         206.000
  20440534.353   -10343642.07849  -8024708.51747  20440534.516    20440546.562
       243.000         209.000
  22224123.440     1099620.95149    846574.36946  22224123.841    22224136.732
       224.000         175.000
  21969407.872   -11084852.26049  -8607432.62346  21969407.525    21969420.904
       223.000         175.000
  19825647.914    -4331749.90949  -3365881.05047  19825648.611    19825658.329
       244.000         212.000
  22748689.952     1216820.41949    948877.91645  22748689.224    22748707.649
       216.000         162.000
 01  3 29 18 28 29.9980000  0  6G 9G24G 7G 5G 4G 2
  20686361.816    -4384738.73049  -3397594.40347  20686362.029    20686373.325
       241.000         206.000
  20421202.688   -10445231.05549  -8103868.68147  20421202.805    20421214.781
       243.000         209.000
  22228107.939     1120558.98549    862889.58546  22228108.327    22228121.377
       223.000         174.000
  21945400.517   -11211013.14649  -8705739.70846  21945399.978    21945412.502
       224.000         175.000
  19821454.487    -4353787.71549  -3383053.38047  19821455.128    19821464.835
       244.000         212.000
  22754705.979     1248434.86149    973512.21345  22754706.063    22754724.587
       215.000         162.000
 01  3 29 18 28 59.9980000  0  6G 9G24G 7G 5G 4G 2
  20681996.298    -4407679.52049  -3415470.40747  20681996.474    20682007.997
       241.000         206.000
  20401968.185   -10546308.22749  -8182630.04147  20401968.522    20401980.319
       243.000         209.000
  22232105.388     1141564.99149    879257.77746  22232105.347    22232119.074
       223.000         173.000
  21921419.297   -11337034.08849  -8803937.74446  21921418.976    21921432.123
       224.000         176.000
  19817376.469    -4375216.86349  -3399751.42547  19817376.971    19817387.001
       244.000         212.000
  22760778.942     1280345.86249    998377.60345  22760778.457    22760795.721
       216.000         162.000
 01  3 29 18 29 29.9980000  0  6G 9G24G 7G 5G 4G 2
  20677751.308    -4429987.26249  -3432853.13247  20677751.615    20677762.904
       241.000         206.000
  20382840.487   -10646824.16449  -8260954.07147  20382840.681    20382852.894
       243.000         209.000
  22236124.719     1162685.56349    895715.23246  22236124.574    22236137.838
       223.000         173.000
  21897473.986   -11462866.07049  -8901988.54046  21897473.378    21897486.629
       224.000         175.000
  19813423.287    -4395991.52349  -3415939.48247  19813423.864    19813433.893
       244.000         212.000
  22766916.664     1312599.99749   1023510.37045  22766916.489    22766935.241
       215.000         160.000
 01  3 29 18 29 59.9980000  0  6G 9G24G 7G 5G 4G 2
  20673623.678    -4451678.78949  -3449755.68647  20673623.930    20673635.203
       241.000         206.000
  20363816.857   -10746794.19949  -8338852.72047  20363817.099    20363829.126
       243.000         209.000
  22240162.558     1183904.49349    912249.33346  22240162.139    22240176.329
       223.000         172.000
  21873562.156   -11588523.28749  -8999903.16146  21873562.700    21873575.657
       225.000         177.000
  19809591.245    -4416128.94049  -3431630.98147  19809591.833    19809601.756
       244.000         212.000
  22773117.733     1345180.89249   1048897.75245  22773117.136    22773135.727
       215.000         160.000
 01  3 29 18 30 29.9980000  0  6G 9G24G 7G 5G 4G 2
  20669612.791    -4472756.28649  -3466179.78147  20669613.169    20669624.620
       241.000         206.000
  20344897.112   -10846217.52049  -8416325.35847  20344897.296    20344909.241
       243.000         209.000
  22244219.068     1205220.34749    928858.96346  22244219.070    22244232.831
       223.000         173.000
  21849683.638   -11714005.07049  -9097681.08346  21849684.109    21849696.499
       225.000         177.000
  19805880.057    -4435631.49349  -3446827.78447  19805880.618    19805890.539
       244.000         212.000
  22779379.188     1378086.78549   1074538.38045  22779379.028    22779396.774
       215.000         160.000
 01  3 29 18 30 59.9980000  0  6G 9G24G 7G 5G 4G 2
  20665715.641    -4493236.11849  -3482138.16247  20665715.804    20665727.501
       241.000         206.000
  20326078.790   -10945108.07349  -8493382.85247  20326079.050    20326091.101
       243.000         209.000
  22248290.957     1226617.09949    945531.62446  22248290.517    22248304.335
       222.000         173.000
  21825836.112   -11839325.06849  -9195332.93846  21825835.969    21825848.890
       226.000         177.000
  19802286.567    -4454515.77449  -3461542.81847  19802287.017    19802297.037
       244.000         212.000
  22785699.961     1411301.75649   1100419.84745  22785700.194    22785718.830
       214.000         158.000
 01  3 29 18 31 29.9980000  0  6G 9G24G 7G 5G 4G 2
  20661934.984    -4513104.62449  -3497620.18747  20661935.319    20661946.715
       241.000         207.000
  20307365.017   -11043449.61449  -8570012.54347  20307365.254    20307377.129
       243.000         210.000
  22252380.949     1248109.09449    962278.50046  22252380.183    22252393.590
       222.000         172.000
  21802022.192   -11964466.76349  -9292845.85146  21802021.311    21802035.150
       225.000         177.000
  19798813.114    -4472768.68049  -3475765.86947  19798813.770    19798823.610
       244.000         212.000
  22792082.671     1444840.12449   1126553.30545  22792082.127    22792099.872
       214.000         160.000
 01  3 29 18 31 59.9980000  0  6G 9G24G 7G 5G 4G 2
  20658277.671    -4532323.32149  -3512595.86847  20658277.907    20658289.308
       241.000         206.000
  20288763.238   -11141201.80249  -8646183.00347  20288763.655    20288775.359
       243.000         209.000
  22256495.821     1269735.21549    979129.89446  22256495.278    22256509.551
       224.000         172.000
  21778250.123   -12089389.11449  -9390187.85446  21778249.975    21778263.195
       225.000         178.000
  19795467.235    -4490351.96449  -3489467.14247  19795467.769    19795477.555
       244.000         212.000
  22798533.401     1478740.31549   1152968.70145  22798533.163    22798551.182
       214.000         159.000
 01  3 29 18 32 29.9970000  0  6G 9G24G 7G 5G 4G 2
  20654737.353    -4550927.70749  -3527092.86247  20654737.484    20654749.597
       241.000         206.000
  20270268.030   -11238394.66849  -8721917.62447  20270268.104    20270280.134
       243.000         210.000
  22260630.247     1291459.47649    996057.76946  22260630.579    22260644.077
       223.000         173.000
  21754514.603   -12214121.14249  -9487381.55146  21754514.391    21754527.631
       224.000         178.000
  19792241.736    -4507301.37549  -3502674.48147  19792242.384    19792252.154
       244.000         212.000
  22805046.567     1512965.60449   1179637.42545  22805046.079    22805064.906
       216.000         159.000
 01  3 29 18 32 59.9970000  0  6G 9G24G 7G 5G 4G 2
  20651318.929    -4568893.62049  -3541092.34647  20651318.934    20651330.531
       241.000         206.000
  20251883.359   -11335007.00349  -8797199.88547  20251883.511    20251895.518
       243.000         210.000
  22264788.197     1313309.25649   1013083.44146  22264787.825    22264802.572
       223.000         171.000
  21730818.759   -12338642.82149  -9584411.34746  21730819.120    21730831.641
       225.000         178.000
  19789141.646    -4523593.31849  -3515369.51147  19789141.990    19789151.988
       244.000         212.000
  22811626.641     1547544.06349   1206581.34445  22811627.268    22811645.679
       215.000         159.000
 01  3 29 18 33 29.9970000  0  6G 9G24G 7G 5G 4G 2
  20648025.409    -4586200.31549  -3554578.15147  20648025.321    20648037.234
       241.000         205.000
  20233614.013   -11431012.80949  -8872009.52347  20233614.117    20233625.879
       243.000         210.000
  22268973.870     1335304.83149   1030222.73346  22268973.764    22268987.709
       223.000         172.000
  21707167.988   -12462927.00949  -9681256.08546  21707167.490    21707181.383
       226.000         178.000
  19786170.308    -4539207.35349  -3527536.30347  19786170.850    19786180.654
       244.000         212.000
  22818278.800     1582495.34849   1233815.77045  22818277.779    22818296.755
       211.000         158.000
 01  3 29 18 33 59.9970000  0  6G 9G24G 7G 5G 4G 2
  20644851.617    -4602878.17549  -3567573.95947  20644852.001    20644863.638
       240.000         205.000
  20215454.653   -11526440.31749  -8946368.53747  20215455.058    20215466.809
       243.000         210.000
  22273181.764     1357416.46049   1047452.45946  22273181.178    22273194.759
       224.000         172.000
  21683557.207   -12587001.18149  -9777937.16946  21683557.015    21683570.685
       225.000         178.000
  19783322.389    -4554174.00049  -3539198.64347  19783322.928    19783332.840
       245.000         211.000
  22824994.659     1617789.58149   1261317.41845  22824994.917    22825012.862
       212.000         159.000
 01  3 29 18 34 29.9970000  0  6G 9G24G 7G 5G 4G 2
  20641794.004    -4618947.80349  -3580095.82447  20641794.330    20641805.831
       241.000         206.000
  20197402.057   -11621307.51449  -9020290.95647  20197402.348    20197414.149
       243.000         210.000
  22277407.790     1379624.31449   1064757.14946  22277407.433    22277421.764
       222.000         172.000
  21659983.347   -12710882.95849  -9874468.34246  21659983.241    21659996.213
       225.000         177.000
  19780593.504    -4568514.41349  -3550373.02247  19780594.121    19780603.854
       244.000         211.000
  22831773.350     1653406.48549   1289070.48945  22831772.418    22831791.979
       216.000         159.000
 01  3 29 18 34 59.9970000  0  6G 9G24G 7G 5G 4G 2
  20638846.732    -4634435.77849  -3592164.45147  20638846.895    20638858.596
       241.000         205.000
  20179451.481   -11715638.41749  -9093795.47647  20179451.515    20179463.320
       244.000         210.000
  22281647.049     1401902.58449   1082116.73646  22281646.893    22281660.587
       221.000         172.000
  21636441.455   -12834595.99749  -9970868.02246  21636441.367    21636454.163
       225.000         177.000
  19777978.546    -4582255.23549  -3561080.18147  19777979.217    19777989.215
       244.000         212.000
  22838607.119     1689320.09749   1317054.77545  22838607.563    22838625.784
       215.000         160.000
 01  3 29 18 35 29.9970000  0  6G 9G24G 7G 5G 4G 2
  20636011.965    -4649333.33149  -3603773.01247  20636012.257    20636023.782
       241.000         205.000
  20161604.961   -11809422.04249  -9166873.55747  20161605.072    20161616.817
       244.000         210.000
  22285901.917     1424261.10949   1099538.83146  22285901.934    22285916.104
       222.000         170.000
  21612934.162   -12958128.56149 -10067127.07946  21612934.291    21612946.956
       225.000         177.000
  19775479.620    -4595388.13349  -3571313.64547  19775480.070    19775490.023
       244.000         212.000
  22845499.838     1725539.50249   1345277.30445  22845499.822    22845518.491
       214.000         161.000
 01  3 29 18 35 59.9970000  0  6G 9G24G 7G 5G 4G 2
  20633291.776    -4663628.00849  -3614911.79547  20633292.120    20633303.596
       241.000         205.000
  20143865.384   -11902643.11449  -9239513.27947  20143865.712    20143877.359
       243.000         210.000
  22290174.065     1446713.26049   1117033.90246  22290173.832    22290188.526
       221.000         170.000
  21589464.071   -13081464.86749 -10163233.19846  21589463.713    21589476.786
       226.000         178.000
  19773098.441    -4607900.91149  -3581063.89247  19773098.924    19773108.983
       244.000         212.000
  22852453.125     1762078.05949   1373748.52545  22852453.237    22852472.313
       214.000         161.000
 01  3 29 18 36 29.9970000  0  6G 9G24G 7G 5G 4G 2
  20630682.528    -4677339.97549  -3625596.52247  20630682.729    20630694.546
       240.000         205.000
  20126229.636   -11995319.44249  -9311728.52447  20126229.853    20126241.554
       244.000         210.000
  22294461.070     1469239.64649   1134586.79046  22294461.019    22294475.007
       220.000         170.000
  21566027.910   -13204622.29449 -10259199.94146  21566027.844    21566040.108
       225.000         178.000
  19770831.588    -4619814.02849  -3590346.87547  19770832.142    19770842.110
       244.000         212.000
  22859463.591     1798915.87149   1402452.94045  22859463.213    22859482.827
       215.000         162.000
 01  3 29 18 36 59.9970000  0  6G 9G24G 7G 5G 4G 2
  20628194.880    -4690413.00849  -3635783.37747  20628195.220    20628206.749
       240.000         205.000
  20108708.746   -12087392.11249  -9383473.39147  20108709.106    20108720.666
       244.000         211.000
  22298773.716     1491897.19049   1152241.87946  22298772.864    22298786.018
       223.000         169.000
  21542637.065   -13327541.61349 -10354981.14346  21542637.107    21542649.864
       226.000         178.000
  19768689.354    -4631071.50549  -3599118.97147  19768689.927    19768699.913
       244.000         211.000
  22866541.964     1836109.81249   1431434.84946  22866541.432    22866560.330
       215.000         163.000
 01  3 29 18 37 29.9970000  0  6G 9G24G 7G 5G 4G 2
  20625814.873    -4702921.32849  -3645530.19347  20625815.018    20625826.721
       241.000         205.000
  20091289.056   -12178933.41849  -9454804.20747  20091289.239    20091300.664
       243.000         211.000
  22303095.582     1514612.81449   1169942.23446  22303095.803    22303109.419
       222.000         170.000
  21519277.912   -13450293.71149 -10450632.03746  21519277.719    21519291.420
       226.000         178.000
  19766657.667    -4641748.30849  -3607438.59447  19766658.245    19766668.036
       244.000         211.000
  22873673.738     1873586.27249   1460636.90145  22873673.803    22873693.151
       216.000         162.000
 01  3 29 18 37 59.9970000  0  6G 9G24G 7G 5G 4G 2
  20623542.730    -4714859.61549  -3654832.83047  20623543.312    20623554.757
       241.000         205.000
  20073971.846   -12269935.21449  -9525714.62547  20073972.110    20073983.669
       243.000         211.000
  22307430.836     1537393.02649   1187692.92246  22307430.134    22307444.529
       221.000         168.000
  21495952.496   -13572869.92449 -10546145.87346  21495952.212    21495965.150
       226.000         179.000
  19764737.541    -4651838.76849  -3615301.32447  19764738.091    19764747.935
       244.000         211.000
  22880859.905     1911351.27849   1490063.78945  22880859.933    22880879.651
       214.000         161.000
 01  3 29 18 38 29.9970000  0  6G 9G24G 7G 5G 4G 2
  20621386.444    -4726192.66449  -3663663.86047  20621386.823    20621398.442
       241.000         205.000
  20056764.450   -12360360.13349  -9596175.53747  20056764.734    20056776.479
       243.000         211.000
  22311785.222     1560273.98249   1205522.10646  22311784.373    22311798.591
       221.000         169.000
  21472667.764   -13695231.91149 -10641492.78646  21472667.639    21472680.228
       226.000         179.000
  19762935.639    -4661308.20749  -3622680.15147  19762936.193    19762945.996
       244.000         211.000
  22888109.104     1949440.68849   1519743.44745  22888108.464    22888128.330
       216.000         161.000
 01  3 29 18 38 59.9970000  0  6G 9G24G 7G 5G 4G 2
  20619342.717    -4736932.79149  -3672032.87447  20619343.035    20619354.765
       240.000         205.000
  20039665.084   -12450217.75049  -9666194.38747  20039665.336    20039676.914
       243.000         211.000
  22316155.877     1583244.20149   1223420.82546  22316156.664    22316170.731
       222.000         169.000
  21449422.131   -13817389.03549 -10736680.06546  21449421.597    21449433.905
       227.000         180.000
  19761249.439    -4670169.46349  -3629585.06447  19761249.987    19761260.088
       244.000         212.000
  22895416.895     1987842.35749   1549666.41945  22895415.964    22895435.614
       217.000         162.000
 01  3 29 18 39 29.9970000  0  6G 9G24G 7G 5G 4G 2
  20617408.070    -4747099.70649  -3679955.22947  20617408.482    20617419.801
       240.000         205.000
  20022670.517   -12539525.02949  -9735784.41247  20022670.703    20022682.149
       244.000         211.000
  22320541.407     1606285.15849   1241374.68546  22320541.026    22320554.350
       220.000         168.000
  21426211.926   -13939357.64249 -10831720.44846  21426211.685    21426224.581
       227.000         180.000
  19759675.081    -4678442.40449  -3636031.54847  19759675.771    19759685.734
       244.000         211.000
  22902780.379     2026537.36149   1579817.95845  22902780.644    22902800.228
       215.000         160.000
 01  3 29 18 39 59.9970000  0  6G 9G24G 7G 5G 4G 2
  20615580.988    -4756701.40349  -3687437.15447  20615581.406    20615592.976
       241.000         205.000
  20005779.406   -12628288.31149  -9804950.53547  20005779.455    20005791.145
       244.000         211.000
  22324937.860     1629389.81049   1259378.17246  22324936.824    22324951.119
       219.000         169.000
  21403037.193   -14061142.73849 -10926617.82846  21403036.465    21403048.912
       228.000         181.000
  19758211.278    -4686135.43349  -3642026.15147  19758211.836    19758221.731
       244.000         211.000
  22910198.912     2065518.18749   1610192.21845  22910198.036    22910217.964
       214.000         159.000
 01  3 29 18 40 29.9970000  0  6G 9G24G 7G 5G 4G 2
  20613868.412    -4765701.25549  -3694450.11447  20613868.707    20613880.517
       240.000         205.000
  19988999.227   -12716468.08249  -9873661.97847  19988999.304    19989011.060
       243.000         211.000
  22329353.438     1652595.84749   1277460.64446  22329353.531    22329367.014
       218.000         167.000
  21379904.646   -14182704.00549 -11021340.80946  21379904.403    21379917.117
       228.000         182.000
  19756864.529    -4693212.26049  -3647540.59947  19756865.133    19756875.061
       244.000         211.000
  22917678.561     2104822.37149   1640818.45145  22917678.155    22917697.604
       214.000         160.000
 01  3 29 18 40 59.9970000  0  6G 9G24G 7G 5G 4G 2
  20612264.779    -4774129.19649  -3701017.42747  20612264.766    20612276.758
       240.000         205.000
  19972325.088   -12804091.34649  -9941939.77747  19972325.399    19972336.832
       244.000         211.000
  22333783.828     1675874.75049   1295599.90646  22333782.638    22333797.601
       220.000         166.000
  21356809.776   -14304067.97949 -11115910.04646  21356809.373    21356821.888
       227.000         181.000
  19755629.515    -4699702.91949  -3652598.28647  19755630.055    19755640.018
       244.000         211.000
  22925213.626     2144420.60149   1671673.79345  22925213.587    22925233.939
       212.000         158.000
 01  3 29 18 41 29.9970000  0  6G 9G24G 7G 5G 4G 2
  20610771.205    -4781977.03349  -3707132.71247  20610771.691    20610783.490
       239.000         204.000
  19955758.800   -12891147.84649 -10009775.94147  19955759.061    19955770.536
       244.000         212.000
  22338228.702     1699235.82149   1313803.18446  22338230.000    22338243.129
       219.000         167.000
  21333754.720   -14425223.36949 -11210316.75746  21333754.504    21333766.906
       227.000         182.000
  19754507.425    -4705599.62949  -3657193.15547  19754508.133    19754517.968
       244.000         211.000
  22932807.379     2184321.46149   1702764.95445  22932806.623    22932827.263
       212.000         157.000
 01  3 29 18 41 59.9970000  0  6G 9G24G 7G 5G 4G 2
  20609383.701    -4789270.88149  -3712816.31747  20609383.879    20609395.435
       241.000         205.000
  19939295.653   -12977661.79349 -10077189.33747  19939295.923    19939307.484
       244.000         212.000
  22342685.145     1722654.12649   1332051.05646  22342685.129    22342699.833
       219.000         166.000
  21310734.919   -14546192.77249 -11304578.53446  21310735.007    21310746.775
       229.000         182.000
  19753493.367    -4710928.72949  -3661345.72947  19753493.897    19753503.859
       244.000         211.000
  22940452.386     2224499.59549   1734072.15345  22940452.908    22940473.307
       210.000         156.000
 01  3 29 18 42 29.9970000  0  6G 9G24G 7G 5G 4G 2
  20608097.576    -4796029.29449  -3718082.69947  20608098.084    20608109.634
       240.000         204.000
  19922932.846   -13063648.52949 -10144191.92247  19922933.029    19922944.407
       244.000         212.000
  22347150.040     1746112.59549   1350330.23546  22347150.313    22347164.051
       218.000         167.000
  21287747.860   -14666991.01449 -11398706.94346  21287747.627    21287759.741
       229.000         183.000
  19752583.740    -4715708.78949  -3665070.47747  19752584.284    19752594.399
       244.000         211.000
  22948148.611     2264937.50249   1765581.78245  22948147.700    22948167.764
       211.000         154.000
 01  3 29 18 42 59.9970000  0  6G 9G24G 7G 5G 4G 2
  20606919.457    -4802220.65249  -3722907.21647  20606919.519    20606931.354
       240.000         203.000
  19906676.834   -13149074.03149 -10210757.18147  19906677.155    19906688.494
       244.000         212.000
  22351627.478     1769643.81349   1368666.09646  22351627.228    22351641.842
       218.000         167.000
  21264799.856   -14787583.38749 -11492674.94446  21264799.385    21264811.905
       229.000         184.000
  19751784.592    -4719908.96749  -3668343.37347  19751785.181    19751795.248
       244.000         211.000
  22955898.767     2305667.11349   1797318.72145  22955897.965    22955918.902
       209.000         153.000
 01  3 29 18 43 29.9970000  0  6G 9G24G 7G 5G 4G 2
  20605841.208    -4807887.37249  -3727322.93247  20605841.642    20605853.205
       240.000         204.000
  19890520.071   -13233978.39449 -10276916.36347  19890520.317    19890531.644
       244.000         212.000
  22356112.107     1793206.57149   1387026.51846  22356111.197    22356125.922
       220.000         167.000
  21241883.225   -14908008.85449 -11586512.88446  21241883.148    21241895.820
       229.000         184.000
  19751087.487    -4723571.76549  -3671197.53047  19751087.971    19751098.195
       244.000         211.000
  22963698.032     2346646.83249   1829250.51045  22963697.231    22963718.128
       209.000         151.000
 01  3 29 18 43 59.9970000  0  6G 9G24G 7G 5G 4G 2
  20604858.767    -4813050.05949  -3731345.89447  20604859.235    20604870.881
       240.000         204.000
  19874458.957   -13318379.64049 -10342683.50647  19874459.017    19874470.612
       244.000         212.000
  22360598.744     1816781.97049   1405396.80246  22360597.856    22360612.831
       221.000         167.000
  21218995.565   -15028284.26249 -11680233.89946  21218994.988    21219007.576
       229.000         183.000
  19750488.790    -4726718.06949  -3673649.22147  19750489.277    19750499.311
       244.000         211.000
  22971539.969     2387856.88649   1861361.78945  22971539.813    22971560.803
       210.000         152.000
 01  3 29 18 44 29.9970000  0  6G 9G24G 7G 5G 4G 2
  20603982.853    -4817653.84249  -3734933.34247  20603983.007    20603994.981
       240.000         204.000
  19858504.419   -13402220.58649 -10408014.04447  19858504.581    19858516.055
       244.000         212.000
  22365097.761     1840426.01649   1423820.56646  22365097.727    22365111.980
       220.000         167.000
  21196147.340   -15148351.42549 -11773792.64446  21196147.577    21196159.779
       228.000         184.000
  19749998.903    -4729293.10649  -3675655.76847  19749999.353    19750009.424
       244.000         211.000
  22979436.457     2429352.84549   1893695.85145  22979435.655    22979457.059
       211.000         151.000
 01  3 29 18 44 59.9970000  0  6G 9G24G 7G 5G 4G 2
  20603218.005    -4821673.20949  -3738065.40847  20603218.298    20603230.098
       240.000         204.000
  19842661.987   -13485473.46649 -10472886.35947  19842662.173    19842673.687
       244.000         212.000
  22369615.548     1864165.48349   1442318.67846  22369615.714    22369629.706
       220.000         166.000
  21173344.619   -15268181.34649 -11867166.52246  21173344.667    21173356.657
       229.000         185.000
  19749622.284    -4731271.84249  -3677197.67047  19749622.889    19749633.130
       244.000         211.000
  22987392.871     2471160.74249   1926272.97545  22987392.767    22987414.308
       209.000         150.000
 01  3 29 18 45 29.9970000  0  6G 9G24G 7G 5G 4G 2
  20602538.541    -4825243.73349  -3740847.72547  20602538.599    20602550.822
       239.000         203.000
  19826906.174   -13568270.66449 -10537403.59147  19826906.342    19826917.710
       244.000         212.000
  22374125.483     1887866.52649   1460786.86546  22374124.704    22374139.347
       218.000         165.000
  21150562.018   -15387905.74749 -11960458.17546  21150561.634    21150573.709
       229.000         184.000
  19749333.611    -4732789.95949  -3678380.64347  19749333.922    19749343.981
       244.000         211.000
  22995383.008     2513145.96849   1958988.29445  22995382.920    22995403.408
       209.000         150.000
 01  3 29 18 45 59.9970000  0  6G 9G24G 7G 5G 4G 2
  20601956.704    -4828301.83949  -3743230.75547  20601957.002    20601969.220
       239.000         203.000
  19811249.458   -13650546.63949 -10601514.67747  19811249.733    19811261.182
       244.000         212.000
  22378641.387     1911593.93849   1479275.59846  22378639.975    22378655.237
       219.000         166.000
  21127811.939   -15507457.59549 -12053615.37146  21127811.670    21127823.700
       230.000         184.000
  19749144.287    -4733784.21349  -3679155.40847  19749144.948    19749154.816
       244.000         211.000
  23003418.814     2555372.70849   1991891.78045  23003418.478    23003439.479
       208.000         149.000
 01  3 29 18 46 29.9970000  0  6G 9G24G 7G 5G 4G 2
  20601478.712    -4830814.09249  -3745188.45147  20601478.932    20601491.120
       240.000         203.000
  19795698.960   -13732265.33949 -10665191.52047  19795699.092    19795710.635
       244.000         212.000
  22383167.912     1935382.59349   1497812.03246  22383167.689    22383182.767
       219.000         166.000
  21105101.455   -15626799.87249 -12146609.27146  21105101.063    21105114.089
       229.000         184.000
  19749061.136    -4734221.49549  -3679496.17647  19749061.654    19749071.698
       244.000         210.000
  23011507.548     2597875.26549   2025010.20645  23011507.147    23011527.593
       209.000         149.000
 01  3 29 18 46 59.9970000  0  6G 9G24G 7G 5G 4G 2
  20601097.657    -4832817.25649  -3746749.45147  20601097.960    20601109.873
       239.000         203.000
  19780247.928   -13813461.36549 -10728461.08547  19780248.223    19780259.375
       244.000         212.000
  22387699.775     1959197.22749   1516368.72246  22387698.744    22387715.246
       219.000         166.000
  21082425.168   -15745965.61149 -12239465.60046  21082424.796    21082437.384
       230.000         184.000
  19749076.822    -4734138.90349  -3679431.84347  19749077.336    19749087.419
       244.000         210.000
  23019641.635     2640617.56149   2058315.43845  23019640.909    23019661.773
       213.000         151.000
 01  3 29 18 47 29.9970000  0  6G 9G24G 7G 5G 4G 2
  20600818.297    -4834286.90949  -3747894.73347  20600818.272    20600830.281
       239.000         202.000
  19764901.288   -13894107.88449 -10791302.46347  19764901.562    19764912.711
       244.000         212.000
  22392241.432     1983063.55449   1534965.67846  22392241.353    22392256.437
       220.000         166.000
  21059787.201   -15864926.97349 -12332162.68746  21059786.932    21059799.416
       230.000         185.000
  19749196.116    -4733512.46649  -3678943.73747  19749196.576    19749206.558
       244.000         210.000
  23027825.776     2683624.60949   2091826.97245  23027824.678    23027846.220
       214.000         151.000
 01  3 29 18 47 59.9970000  0  6G 9G24G 7G 5G 4G 2
  20600643.937    -4835202.34049  -3748608.15747  20600644.324    20600656.430
       239.000         203.000
  19749663.677   -13974181.28349 -10853697.25347  19749664.079    19749675.194
       244.000         212.000
  22396797.021     2007003.97249   1553620.39146  22396796.603    22396812.225
       220.000         165.000
  21037193.215   -15983659.42849 -12424681.39446  21037193.024    21037205.326
       231.000         185.000
  19749422.713    -4732321.45949  -3678015.71147  19749423.324    19749433.534
       244.000         210.000
  23036064.057     2726917.89449   2125561.51845  23036064.302    23036085.762
       213.000         151.000
 01  3 29 18 48 29.9970000  0  6G 9G24G 7G 5G 4G 2
  20600570.388    -4835589.01849  -3748909.56147  20600570.700    20600582.748
       239.000         202.000
  19734530.841   -14053704.92949 -10915663.66647  19734531.057    19734542.223
       244.000         212.000
  22401362.744     2030994.80049   1572314.37646  22401362.787    22401377.517
       220.000         165.000
  21014638.826   -16102184.37749 -12517038.41446  21014638.340    21014650.770
       230.000         185.000
  19749751.944    -4730591.43649  -3676667.67547  19749752.427    19749762.629
       243.000         210.000
  23044352.785     2770473.29949   2159500.31945  23044352.611    23044373.573
       212.000         152.000
 01  3 29 18 48 59.9970000  0  6G 9G24G 7G 5G 4G 2
  20600598.938    -4835439.20149  -3748792.92247  20600599.250    20600611.270
       239.000         203.000
  19719504.450   -14132668.88249 -10977193.96247  19719504.753    19719515.917
       244.000         212.000
  22405939.480     2055045.03049   1591054.64246  22405938.947    22405954.467
       218.000         165.000
  20992125.822   -16220490.73249 -12609225.10346  20992125.944    20992137.718
       231.000         186.000
  19750185.218    -4728315.20349  -3674894.02447  19750185.698    19750195.984
       243.000         210.000
  23052692.222     2814298.87249   2193649.64545  23052693.387    23052715.129
       211.000         153.000
 01  3 29 18 49 29.9970000  0  6G 9G24G 7G 5G 4G 2
  20600717.274    -4834819.17149  -3748309.88547  20600717.495    20600729.475
       240.000         202.000
  19704572.532   -14211136.38649 -11038337.41147  19704572.693    19704584.048
       244.000         212.000
  22410515.719     2079090.31149   1609791.04846  22410514.597    22410530.032
       218.000         165.000
  20969642.369   -16338640.80649 -12701290.01246  20969642.011    20969654.443
       232.000         187.000
  19750709.724    -4725558.98749  -3672746.35847  19750710.158    19750720.436
       243.000         210.000
  23061071.733     2858329.33149   2227958.61645  23061070.816    23061093.919
       213.000         153.000
 01  3 29 18 49 59.9970000  0  6G 9G24G 7G 5G 4G 2
  20600932.324    -4833688.47449  -3747428.93047  20600932.435    20600944.719
       239.000         202.000
  19689743.255   -14289064.71649 -11099060.72747  19689743.417    19689754.786
       243.000         212.000
  22415097.949     2103172.39149   1628556.12746  22415098.085    22415112.987
       219.000         165.000
  20947197.343   -16456590.25949 -12793198.59846  20947196.832    20947208.970
       232.000         187.000
  19751333.101    -4722282.87949  -3670193.58947  19751333.774    19751343.814
       243.000         210.000
  23069497.905     2902605.83949   2262459.30745  23069497.895    23069519.195
       213.000         154.000
 01  3 29 18 50 29.9970000  0  7G 9G24G 7G30G 5G 4G 2
  20601244.049    -4832050.80749  -3746152.93547  20601244.317    20601256.456
       239.000         202.000
  19675016.304   -14366455.09649 -11159364.86347  19675016.628    19675027.694
       244.000         212.000
  22419687.344     2127289.51349   1647348.51046  22419687.139    22419702.940
       220.000         165.000
  23640332.556    -7587205.34059  -5536965.56555  23640332.152    23640348.266
       212.000         143.000
  20924790.506   -16574338.61849 -12884950.47946  20924790.356    20924802.436
       233.000         187.000
  19752054.921    -4718490.41149  -3667238.45747  19752055.411    19752065.645
       244.000         209.000
  23077970.333     2947125.89549   2297149.75745  23077970.090    23077991.399
       212.000         155.000
 01  3 29 18 50 59.9960000  0  7G 9G24G 7G30G 5G 4G 2
  20601654.538    -4829894.83049  -3744473.06047  20601654.592    20601666.970
       239.000         202.000
  19660394.816   -14443291.16149 -11219237.06247  19660394.918    19660406.208
       243.000         212.000
  22424286.500     2151453.91849   1666177.72946  22424285.241    22424301.348
       218.000         165.000
  23613380.802    -7728830.28749  -5647322.62245  23613381.775    23613398.217
       210.000         143.000
  20902425.502   -16691866.97749 -12976530.94146  20902425.441    20902437.292
       233.000         187.000
  19752876.794    -4714170.91549  -3663872.65847  19752877.305    19752887.446
       243.000         209.000
  23086490.421     2991899.92049   2332038.09645  23086491.178    23086513.330
       213.000         156.000
 01  3 29 18 51 29.9960000  0  7G 9G24G 7G30G 5G 4G 2
  20602166.909    -4827202.49949  -3742375.24847  20602167.097    20602179.509
       239.000         202.000
  19645881.711   -14519557.80549 -11278665.55747  19645881.906    19645893.093
       243.000         212.000
  22428897.692     2175686.91849   1685060.39646  22428897.455    22428912.774
       220.000         164.000
  23586435.966    -7870427.37949  -5757657.94545  23586436.656    23586452.506
       211.000         143.000
  20880104.992   -16809161.48949 -13067929.17646  20880104.924    20880116.904
       232.000         187.000
  19753802.655    -4709306.12949  -3660081.96247  19753803.096    19753813.216
       243.000         209.000
  23095063.587     3036949.84149   2367141.42445  23095063.210    23095085.977
       213.000         157.000
 01  3 29 18 51 59.9960000  0  7G 9G24G 7G30G 5G 4G 2
  20602769.362    -4824036.10649  -3739908.04147  20602769.667    20602781.992
       239.000         202.000
  19631465.979   -14595312.15149 -11337694.86347  19631466.319    19631477.454
       243.000         212.000
  22433510.665     2199926.86349   1703948.48546  22433509.646    22433525.552
       220.000         164.000
  23559486.446    -8012051.06749  -5868014.01545  23559486.451    23559501.576
       209.000         143.000
  20857818.691   -16926276.84749 -13159187.82747  20857818.809    20857830.855
       232.000         188.000
  19754820.182    -4703959.04449  -3655915.45147  19754820.722    19754830.875
       243.000         209.000
  23103677.555     3082212.64149   2402410.60545  23103677.060    23103700.217
       214.000         158.000
 01  3 29 18 52 29.9960000  0  7G 9G24G 7G30G 5G 4G 2
  20603463.690    -4820388.26549  -3737065.67947  20603463.897    20603476.175
       238.000         202.000
  19617149.784   -14670544.16449 -11396317.15547  19617150.024    19617161.237
       243.000         212.000
  22438126.454     2224183.36449   1722849.46246  22438126.520    22438141.393
       217.000         163.000
  23532533.177    -8153690.01749  -5978381.93645  23532533.459    23532550.632
       208.000         143.000
  20835568.673   -17043201.24249 -13250297.66246  20835568.663    20835580.432
       233.000         187.000
  19755930.926    -4698122.15049  -3651367.27047  19755931.374    19755941.638
       243.000         209.000
  23112333.509     3127696.80649   2437852.27045  23112333.296    23112355.644
       210.000         156.000
 01  3 29 18 52 59.9960000  0  7G 9G24G 7G30G 5G 4G 2
  20604255.725    -4816225.50449  -3733822.08347  20604256.361    20604268.369
       239.000         202.000
  19602939.696   -14745218.44049 -11454504.84447  19602939.946    19602951.270
       243.000         212.000
  22442752.491     2248491.48649   1741790.68646  22442751.681    22442767.276
       218.000         163.000
  23505583.724    -8295307.68649  -6088733.28045  23505584.877    23505600.667
       205.000         144.000
  20813362.090   -17159897.30149 -13341229.58547  20813361.869    20813374.293
       232.000         189.000
  19757141.224    -4691762.15049  -3646411.46647  19757141.806    19757151.988
       243.000         209.000
  23121037.875     3173436.60649   2473493.12745  23121037.028    23121060.079
       210.000         155.000
 01  3 29 18 53 29.9960000  0  7G 9G24G 7G30G 5G 4G 2
  20605143.970    -4811559.28649  -3730186.18747  20605143.821    20605156.779
       239.000         201.000
  19588834.185   -14819343.74049 -11512264.76747  19588834.441    19588845.658
       244.000         212.000
  22447385.989     2272841.51549   1760764.54546  22447385.699    22447401.659
       218.000         163.000
  23478636.964    -8436911.97749  -6199074.16645  23478637.948    23478653.198
       204.000         144.000
  20791197.619   -17276372.35549 -13431989.29047  20791197.561    20791209.681
       233.000         189.000
  19758448.718    -4684890.80449  -3641057.21747  19758449.228    19758459.435
       243.000         209.000
  23129788.306     3219421.43449   2509324.89845  23129788.434    23129811.693
       209.000         154.000
 01  3 29 18 53 59.9960000  0  7G 9G24G 7G30G 5G 4G 2
  20606129.359    -4806382.66549  -3726152.57347  20606129.582    20606141.997
       239.000         202.000
  19574834.809   -14892910.33349 -11569589.33247  19574834.958    19574846.292
       243.000         212.000
  22452029.758     2297242.33949   1779777.97745  22452029.931    22452045.176
       219.000         162.000
  23451695.016    -8578492.30249  -6309396.38745  23451695.509    23451712.147
       204.000         145.000
  20769077.042   -17392615.60949 -13522568.38147  20769076.818    20769089.017
       233.000         189.000
  19759854.881    -4677501.42349  -3635299.30747  19759855.391    19759865.659
       243.000         208.000
  23138587.546     3265659.33549   2545353.86345  23138586.617    23138610.511
       207.000         152.000
 01  3 29 18 54 29.9960000  0  7G 9G24G 7G30G 5G 4G 2
  20607205.524    -4800727.36349  -3721745.96347  20607205.625    20607218.106
       239.000         202.000
  19560936.077   -14965948.64949 -11626502.25148  19560936.142    19560947.584
       244.000         213.000
  22456676.972     2321663.77849   1798807.49445  22456676.719    22456691.971
       218.000         161.000
  23424752.289    -8720077.27249  -6419722.22645  23424754.005    23424769.191
       204.000         148.000
  20746995.259   -17508655.11949 -13612988.69747  20746995.323    20747006.869
       233.000         189.000
  19761353.714    -4669626.07549  -3629162.72247  19761354.220    19761364.329
       243.000         208.000
  23147428.291     3312119.13649   2581555.73345  23147428.213    23147453.581
       202.000         149.000
 01  3 29 18 54 59.9960000  0  7G 9G24G 7G30G 5G 4G 2
  20608366.119    -4794627.70549  -3716993.10047  20608366.323    20608378.885
       238.000         201.000
  19547131.992   -15038489.58649 -11683027.60748  19547132.129    19547143.343
       243.000         213.000
  22461322.457     2346073.61249   1817827.95445  22461321.279    22461337.313
       214.000         161.000
  23397802.871    -8861697.23049  -6530075.31145  23397803.886    23397821.199
       206.000         148.000
  20724946.813   -17624521.05349 -13703273.76847  20724946.511    20724958.782
       233.000         189.000
  19762938.264    -4661299.16849  -3622674.27747  19762938.860    19762948.923
       243.000         208.000
  23156306.066     3358767.57149   2617904.56745  23156306.086    23156328.600
       203.000         148.000
 01  3 29 18 55 29.9960000  0  7G 9G24G 7G30G 5G 4G 2
  20609619.792    -4788040.55549  -3711860.37947  20609620.001    20609632.556
       238.000         201.000
  19533431.054   -15110487.98149 -11739130.19848  19533431.333    19533442.460
       244.000         213.000
  22465973.703     2370516.83049   1836874.41445  22465973.668    22465988.615
       214.000         160.000
  23370855.850    -9003305.65849  -6640419.41645  23370856.253    23370872.448
       206.000         150.000
  20702940.243   -17740166.26849 -13793386.84847  20702940.243    20702951.995
       233.000         190.000
  19764617.015    -4652477.76049  -3615800.51147  19764617.540    19764627.654
       243.000         208.000
  23165228.228     3405648.73349   2654434.75845  23165228.097    23165250.719
       197.000         146.000
 01  3 29 18 55 59.9960000  0  7G 9G24G 7G30G 5G 4G 2
  20610964.914    -4780972.74449  -3706353.11747  20610965.054    20610977.866
       238.000         201.000
  19519832.794   -15181948.12349 -11794813.38348  19519832.837    19519844.113
       244.000         213.000
  22470630.000     2394988.46049   1855943.02345  22470630.987    22470644.818
       215.000         160.000
  23343909.640    -9144905.66449  -6750756.96245  23343910.203    23343927.121
       207.000         151.000
  20680975.338   -17855593.42849 -13883330.01547  20680975.564    20680987.203
       233.000         190.000
  19766388.403    -4643168.96249  -3608546.96247  19766388.986    19766399.446
       242.000         208.000
  23174192.546     3452756.73749   2691141.65645  23174192.379    23174216.545
       203.000         146.000
 01  3 29 18 56 29.9960000  0  7G 9G24G 7G30G 5G 4G 2
  20612398.409    -4773439.05049  -3700482.82747  20612398.697    20612411.628
       238.000         201.000
  19506334.253   -15252882.25049 -11850086.68148  19506334.656    19506345.628
       244.000         213.000
  22475290.798     2419475.83949   1875023.90145  22475290.535    22475305.424
       218.000         160.000
  23316964.615    -9286508.37749  -6861096.60445  23316964.661    23316980.724
       207.000         152.000
  20659049.671   -17970813.06949 -13973111.48047  20659050.129    20659061.258
       233.000         190.000
  19768249.708    -4633387.43749  -3600925.04947  19768250.450    19768260.668
       243.000         208.000
  23183198.019     3500077.82049   2728014.63245  23183198.731    23183221.913
       204.000         148.000
 01  3 29 18 56 59.9960000  0  7G 9G24G 7G30G 5G 4G 2
  20613917.665    -4765456.38349  -3694262.68947  20613918.057    20613930.453
       238.000         200.000
  19492933.100   -15323305.72849 -11904962.07348  19492933.337    19492944.458
       244.000         213.000
  22479950.652     2443963.75349   1894105.19145  22479951.424    22479965.895
       218.000         161.000
  23290014.709    -9428127.24549  -6971448.83345  23290014.879    23290032.000
       211.000         154.000
  20637160.860   -18085838.19649 -14062741.37747  20637160.896    20637172.837
       232.000         190.000
  19770197.871    -4623150.59949  -3592948.34247  19770198.479    19770208.705
       243.000         208.000
  23192240.650     3547595.74749   2765040.96645  23192240.916    23192264.930
       203.000         147.000
 01  3 29 18 57 29.9960000  0  7G 9G24G 7G30G 5G 4G 2
  20615523.428    -4757018.49849  -3687687.84347  20615523.635    20615536.487
       238.000         200.000
  19479631.016   -15393208.87149 -11959432.01648  19479631.137    19479642.489
       245.000         213.000
  22484612.352     2468460.74049   1913193.54745  22484612.506    22484627.319
       218.000         160.000
  23263064.786    -9569751.83249  -7081805.52545  23263064.901    23263081.877
       210.000         154.000
  20615311.433   -18200658.17349 -14152211.42547  20615311.250    20615323.219
       233.000         191.000
  19772233.748    -4612452.34249  -3584612.09247  19772234.357    19772244.424
       243.000         208.000
  23201323.240     3595317.96449   2802226.48045  23201322.994    23201346.998
       205.000         147.000
 01  3 29 18 57 59.9960000  0  7G 9G24G 7G30G 5G 4G 2
  20617211.430    -4748149.46549  -3680777.04447  20617211.453    20617224.163
       238.000         200.000
  19466423.487   -15462614.03349 -12013513.91648  19466423.811    19466434.830
       245.000         213.000
  22489271.599     2492944.71349   1932271.75845  22489271.314    22489287.327
       215.000         160.000
  23236109.066    -9711402.75249  -7192182.72445  23236109.930    23236125.669
       212.000         155.000
  20593496.943   -18315292.80649 -14241537.05147  20593496.975    20593508.994
       232.000         190.000
  19774352.943    -4601316.58249  -3575934.92647  19774353.574    19774363.750
       243.000         207.000
  23210439.737     3643221.44449   2839553.25445  23210438.700    23210463.242
       208.000         147.000
 01  3 29 18 58 29.9960000  0  7G 9G24G 7G30G 5G 4G 2
  20618981.614    -4738847.36449  -3673528.79247  20618982.040    20618994.429
       239.000         200.000
  19453311.883   -15531516.82849 -12067204.37048  19453312.108    19453323.060
       246.000         214.000
  22493929.363     2517419.60949   1951342.90845  22493928.595    22493945.028
       214.000         159.000
  23209149.936    -9853074.26349  -7302575.99645  23209150.921    23209166.973
       212.000         154.000
  20571719.169   -18429736.07049 -14330713.55247  20571718.683    20571731.002
       233.000         190.000
  19776555.668    -4589741.77549  -3566915.64547  19776556.087    19776566.274
       243.000         208.000
  23219591.019     3691308.89449   2877023.36845  23219590.806    23219614.329
       208.000         146.000
 01  3 29 18 58 59.9960000  0  7G 9G24G 7G30G 5G 4G 2
  20620841.202    -4729075.61049  -3665914.57447  20620841.274    20620854.463
       238.000         200.000
  19440303.150   -15599878.15849 -12120472.90148  19440303.357    19440314.344
       246.000         213.000
  22498592.633     2541923.86749   1970436.92445  22498592.580    22498607.693
       214.000         158.000
  23182194.431    -9994726.15449  -7412953.96845  23182194.500    23182210.571
       213.000         153.000
  20549985.326   -18543947.19249 -14419709.16547  20549985.456    20549997.511
       233.000         191.000
  19778848.601    -4577691.63049  -3557525.96847  19778849.177    19778859.328
       243.000         207.000
  23228783.440     3739617.85349   2914666.07945  23228784.063    23228807.992
       208.000         146.000
 01  3 29 18 59 29.9960000  0  7G 9G24G 7G30G 5G 4G 2
  20622791.391    -4718828.27849  -3657929.78247  20622791.378    20622804.343
       238.000         200.000
  19427398.876   -15667690.16549 -12173313.39248  19427399.130    19427410.018
       245.000         213.000
  22503262.754     2566465.44449   1989560.02545  22503262.231    22503278.231
       214.000         157.000
  23155244.823   -10136348.86249  -7523309.21045  23155244.608    23155261.523
       213.000         153.000
  20528297.828   -18657916.19949 -14508516.11747  20528297.883    20528309.835
       233.000         191.000
  19781233.233    -4565160.52449  -3547761.51547  19781233.686    19781244.117
       243.000         207.000
  23238020.793     3788155.11749   2952486.68545  23238020.327    23238044.411
       209.000         145.000
 01  3 29 18 59 59.9960000  0  7G 9G24G 7G30G 5G 4G 2
  20624823.933    -4708146.26949  -3649606.28147  20624824.435    20624837.093
       238.000         200.000
  19414591.962   -15734990.83149 -12225755.43948  19414592.212    19414603.202
       245.000         214.000
  22507932.217     2591005.79349   2008682.16045  22507933.254    22507948.611
       214.000         157.000
  23128292.914   -10277979.14149  -7633670.36345  23128293.317    23128309.316
       214.000         153.000
  20506649.397   -18771679.50649 -14597162.78147  20506649.017    20506661.312
       233.000         192.000
  19783701.750    -4552189.18349  -3537654.02647  19783702.121    19783712.526
       242.000         207.000
  23247293.607     3836881.13949   2990454.34345  23247293.423    23247317.684
       208.000         145.000
 01  3 29 19  0 29.9960000  0  7G 9G24G 7G30G 5G 4G 2
  20626941.755    -4697018.95449  -3640935.79647  20626941.931    20626954.828
       238.000         200.000
  19401884.813   -15801767.26849 -12277788.99048  19401885.091    19401895.926
       245.000         213.000
  22512604.627     2615557.75649   2027813.35845  22512604.290    22512620.311
       211.000         157.000
  23101342.712   -10419602.45649  -7744026.08945  23101343.609    23101359.387
       216.000         152.000
  20485042.830   -18885222.19649 -14685637.53447  20485042.533    20485054.377
       234.000         192.000
  19786255.851    -4538766.99649  -3527195.22247  19786256.418    19786266.655
       242.000         207.000
  23256604.199     3885807.37749   3028578.01445  23256603.368    23256629.513
       211.000         144.000
 01  3 29 19  0 59.9960000  0  7G 9G24G 7G30G 5G 4G 2
  20629142.650    -4685453.03849  -3631923.54247  20629142.920    20629155.789
       238.000         199.000
  19389276.545   -15868023.96849 -12329417.56148  19389276.684    19389287.692
       245.000         214.000
  22517278.552     2640116.46349   2046949.79545  22517278.231    22517293.547
       215.000         159.000
  23074393.314   -10561221.72049  -7854378.67845  23074394.074    23074410.230
       215.000         152.000
  20463477.734   -18998546.83249 -14773942.37747  20463477.919    20463489.610
       234.000         192.000
  19788894.321    -4524901.16049  -3516390.71447  19788894.942    19788905.277
       241.000         206.000
  23265952.329     3934927.97849   3066853.12545  23265951.465    23265977.314
       210.000         145.000
 01  3 29 19  1 29.9960000  0  7G 9G24G 7G30G 5G 4G 2
  20631437.303    -4673395.32149  -3622528.06747  20631437.714    20631450.420
       238.000         199.000
  19376777.730   -15933705.84549 -12380598.21748  19376777.801    19376788.743
       245.000         214.000
  22521963.531     2664737.26849   2066134.62145  22521963.141    22521979.411
       214.000         158.000
  23047455.867   -10702780.27349  -7964683.96045  23047455.917    23047472.336
       214.000         152.000
  20441965.111   -19111595.93949 -14862032.52647  20441965.358    20441976.750
       234.000         192.000
  19791627.476    -4510538.67449  -3505199.21247  19791627.974    19791638.236
       242.000         206.000
  23275347.112     3984297.07449   3105321.86245  23275346.823    23275372.667
       208.000         144.000
 01  3 29 19  1 59.9960000  0  7G 9G24G 7G30G 5G 4G 2
  20633835.022    -4660797.71149  -3612711.89347  20633834.884    20633847.662
       238.000         199.000
  19364397.858   -15998762.01249 -12431291.30648  19364398.212    19364409.126
       245.000         214.000
  22526670.204     2689470.53249   2085407.07945  22526669.933    22526686.971
       218.000         159.000
  23020539.275   -10844225.66149  -8074901.07045  23020539.526    23020555.356
       213.000         150.000
  20420515.041   -19224317.03849 -14949867.08947  20420514.789    20420526.698
       234.000         192.000
  19794464.422    -4495631.32449  -3493583.13647  19794465.088    19794475.462
       242.000         206.000
  23284799.102     4033963.97849   3144022.66245  23284798.847    23284823.501
       209.000         145.000
 01  3 29 19  2 29.9960000  0  7G 9G24G 7G30G 5G 4G 2
  20636318.897    -4647744.59949  -3602540.78447  20636318.878    20636331.822
       237.000         198.000
  19352121.535   -16063274.65049 -12481560.86548  19352121.918    19352132.733
       246.000         214.000
  22531383.040     2714234.10149   2104703.14745  22531382.940    22531399.379
       216.000         158.000
  22993629.996   -10985638.17649  -8185092.53845  22993629.660    22993645.903
       213.000         148.000
  20399112.317   -19336790.12549 -15037508.39147  20399112.197    20399123.565
       235.000         193.000
  19797388.703    -4480263.82849  -3481608.49847  19797389.321    19797399.740
       242.000         206.000
  23294292.239     4083845.22849   3182890.48445  23294292.460    23294316.849
       209.000         145.000
 01  3 29 19  2 59.9960000  0  6G 9G24G 7G30G 5G 4
  20638884.266    -4634263.27349  -3592035.99847  20638884.602    20638897.398
       237.000         198.000
  19339943.905   -16127268.70049 -12531426.33148  19339944.117    19339955.049
       245.000         214.000
  22536096.833     2739002.98649   2124003.35145  22536096.464    22536112.048
       215.000         158.000
  22966721.577   -11127041.05349  -8295276.53345  22966722.054    22966735.373
       210.000         147.000
  20377752.235   -19449037.87249 -15124974.10647  20377752.102    20377763.385
       235.000         193.000
  19800395.627    -4464463.29049  -3469296.42947  19800396.071    19800406.438
       242.000         206.000
 01  3 29 19  3 29.9960000  0  6G 9G24G 7G30G 5G 4
  20641520.924    -4620408.89749  -3581240.52747  20641521.071    20641534.088
       238.000         198.000
  19327854.863   -16190796.91849 -12580928.81148  19327855.056    19327865.975
       246.000         214.000
  22540801.115     2763724.24949   2143266.45045  22540800.336    22540817.369
       214.000         159.000
  22939804.998   -11268485.77149  -8405493.07545  22939805.299    22939820.476
       208.000         145.000
  20356425.110   -19561111.34449 -15212304.01547  20356424.836    20356436.780
       234.000         193.000
  19803474.189    -4448285.28049  -3456690.22747  19803474.727    19803485.292
       242.000         206.000
 01  3 29 19  3 59.9960000  0  6G 9G24G 7G30G 5G 4
  20644242.387    -4606108.34949  -3570097.39347  20644242.634    20644255.564
       238.000         198.000
  19315868.811   -16253783.91949 -12630009.57048  19315869.106    19315879.963
       245.000         214.000
  22545511.125     2788473.18249   2162551.09545  22545511.539    22545527.418
       215.000         158.000
  22912895.169   -11409895.14849  -8515682.10245  22912894.434    22912910.954
       208.000         143.000
  20335146.063   -19672933.04549 -15299437.74347  20335145.863    20335157.879
       234.000         194.000
  19806638.464    -4431656.57549  -3443732.83947  19806639.170    19806649.425
       242.000         206.000
 01  3 29 19  4 29.9960000  0  6G 9G24G 7G30G 5G 4
  20647044.733    -4591381.51249  -3558622.08847  20647044.864    20647058.131
       237.000         198.000
  19303982.315   -16316247.44149 -12678682.41648  19303982.364    19303993.501
       245.000         214.000
  22550222.757     2813232.13449   2181843.55845  22550223.096    22550238.239
       213.000         158.000
  22885990.602   -11551284.95149  -8625855.87145  22885991.454    22886006.148
       208.000         144.000
  20313912.002   -19784518.46149 -15386387.34747  20313912.091    20313923.838
       234.000         194.000
  19809884.846    -4414597.41149  -3430440.02547  19809885.212    19809895.708
       242.000         206.000
 01  3 29 19  4 59.9960000  0  6G 9G24G 7G30G 5G 4
  20649930.119    -4576218.89549  -3546807.21947  20649930.321    20649943.617
       237.000         198.000
  19292197.748   -16378175.96549 -12726938.38648  19292197.872    19292208.731
       245.000         214.000
  22554938.856     2838013.13949   2201153.18945  22554938.425    22554954.782
       217.000         158.000
  22859090.597   -11692641.45649  -8736003.66745  22859091.445    22859107.222
       208.000         144.000
  20292725.553   -19895853.50949 -15473141.86447  20292725.440    20292737.269
       235.000         194.000
  19813214.959    -4397098.17849  -3416804.29847  19813215.456    19813225.717
       242.000         206.000
 01  3 29 19  5 29.9960000  0  6G 9G24G 7G30G 5G 4
  20652895.945    -4560634.79449  -3534663.92047  20652896.605    20652909.271
       237.000         197.000
  19280512.667   -16439581.06049 -12774786.48748  19280512.939    19280523.686
       245.000         214.000
  22559656.441     2862804.16049   2220470.63145  22559656.770    22559672.562
       216.000         159.000
  22832196.107   -11833975.05549  -8846133.60445  22832196.673    22832210.173
       210.000         145.000
  20271585.225   -20006947.91849 -15559708.86947  20271585.043    20271596.366
       235.000         194.000
  19816625.901    -4379173.27749  -3402836.88447  19816626.567    19816636.883
       241.000         205.000
 01  3 29 19  5 59.9960000  0  6G 9G24G 7G30G 5G 4
  20655947.675    -4544598.18249  -3522168.01947  20655947.993    20655961.362
       237.000         197.000
  19268933.660   -16500429.72149 -12822201.00248  19268933.788    19268944.754
       245.000         213.000
  22564382.599     2887638.40949   2239821.74345  22564382.746    22564399.397
       216.000         159.000
  22805311.788   -11975250.49849  -8956218.24445  22805312.736    22805328.000
       211.000         149.000
  20250497.091   -20117766.38549 -15646060.85847  20250497.268    20250508.481
       235.000         194.000
  19820123.812    -4360792.00849  -3388513.86347  19820124.148    19820134.447
       241.000         205.000
 01  3 29 19  6 29.9960000  0  6G 9G24G 7G30G 5G 4
  20659080.172    -4528137.72049  -3509341.85047  20659080.443    20659093.854
       237.000         197.000
  19257455.278   -16560748.09749 -12869202.31648  19257455.601    19257466.323
       245.000         213.000
  22569111.382     2912489.55149   2259186.02745  22569110.748    22569127.714
       214.000         161.000
  22778434.077   -12116492.28449  -9066276.62745  22778434.268    22778451.473
       210.000         151.000
  20229457.012   -20228332.99449 -15732216.59347  20229456.890    20229468.238
       235.000         195.000
  19823702.970    -4341982.92849  -3373857.48647  19823703.651    19823714.343
       241.000         205.000
 01  3 29 19  6 59.9960000  0  6G 9G24G 7G30G 5G 4
  20662292.140    -4511259.85049  -3496190.42647  20662292.262    20662305.701
       237.000         197.000
  19246077.215   -16620540.57549 -12915793.83548  19246077.290    19246088.378
       245.000         214.000
  22573842.639     2937353.85949   2278560.55545  22573842.919    22573859.651
       215.000         159.000
  22751562.819   -12257702.64549  -9176310.52845  22751562.780    22751579.051
       212.000         155.000
  20208464.309   -20338649.55749 -15818177.48647  20208463.892    20208475.553
       236.000         195.000
  19827362.459    -4322752.54749  -3358872.82447  19827363.069    19827373.649
       241.000         204.000
 01  3 29 19  7 29.9960000  0  6G 9G24G 7G30G 5G 4
  20665584.725    -4493956.86949  -3482707.75347  20665584.821    20665598.452
       235.000         197.000
  19234801.061   -16679797.10449 -12961967.72748  19234801.228    19234812.170
       246.000         214.000
  22578578.651     2962241.20049   2297953.05545  22578578.403    22578595.597
       212.000         158.000
  22724699.428   -12398869.58749  -9286310.60545  22724699.924    22724716.058
       215.000         158.000
  20187521.660   -20448703.96849 -15903934.10847  20187521.325    20187533.010
       236.000         195.000
  19831103.487    -4303093.20649  -3343553.91447  19831103.973    19831114.657
       241.000         204.000
 01  3 29 19  7 59.9960000  0  6G 9G24G 7G30G 5G 4
  20668955.107    -4476246.22849  -3468907.42647  20668955.393    20668968.692
       236.000         196.000
  19223624.001   -16738532.58649 -13007735.60948  19223624.210    19223635.066
       245.000         213.000
  22583316.146     2987136.50149   2317351.73945  22583316.074    22583333.492
       214.000         158.000
  22697842.140   -12540006.31949  -9396287.13745  22697842.101    22697858.140
       216.000         160.000
  20166626.260   -20558509.34249 -15989496.67647  20166626.248    20166637.289
       236.000         195.000
  19834922.907    -4283022.46049  -3327914.42447  19834923.284    19834933.920
       241.000         204.000
 01  3 29 19  8 29.9960000  0  6G 9G24G 7G30G 5G 4
  20672404.481    -4458121.37749  -3454784.33847  20672404.596    20672418.068
       237.000         196.000
  19212547.859   -16796738.43949 -13053090.79248  19212548.074    19212559.023
       245.000         214.000
  22588056.947     3012048.63549   2336763.53645  22588056.514    22588075.963
       211.000         156.000
  22670992.287   -12681102.33649  -9506231.94946  22670993.084    22671008.865
       217.000         163.000
  20145780.584   -20668054.47049 -16074856.45147  20145780.225    20145791.550
       236.000         195.000
  19838821.921    -4262533.97649  -3311949.42947  19838822.523    19838832.871
       241.000         204.000
 01  3 29 19  8 59.9960000  0  6G 9G24G 7G30G 5G 4
  20675937.320    -4439556.22049  -3440318.15947  20675937.548    20675950.972
       236.000         196.000
  19201577.572   -16854386.81849 -13098011.57748  19201577.816    19201588.736
       245.000         213.000
  22592807.327     3037006.32749   2356210.81945  22592807.917    22592822.582
       215.000         157.000
  22644155.913   -12822127.45549  -9616121.50846  22644156.629    22644172.722
       217.000         163.000
  20124990.004   -20777308.52149 -16159989.41647  20124990.041    20125001.160
       236.000         196.000
  19842805.204    -4241601.61849  -3295638.56047  19842805.841    19842816.241
       241.000         204.000
 01  3 29 19  9 29.9950000  0  6G 9G24G 7G30G 5G 4
  20679553.404    -4420554.91749  -3425512.12847  20679553.776    20679566.804
       237.000         196.000
  19190713.636   -16911477.04649 -13142497.44048  19190713.878    19190724.648
       245.000         213.000
  22597564.341     3062007.55249   2375692.02845  22597564.739    22597582.035
       214.000         157.000
  22617334.349   -12963076.14949  -9725951.53446  22617334.710    22617350.678
       218.000         163.000
  20104255.860   -20886267.10049 -16244892.14447  20104255.708    20104266.983
       236.000         196.000
  19846872.159    -4220229.85149  -3278985.29247  19846872.723    19846883.056
       241.000         203.000
 01  3 29 19  9 59.9950000  0  6G 9G24G 7G30G 5G 4
  20683242.534    -4401168.77449  -3410406.22747  20683242.711    20683256.456
       236.000         196.000
  19179945.710   -16968063.52849 -13186590.77648  19179945.881    19179956.613
       243.000         213.000
  22602321.731     3087003.86349   2395169.41245  22602321.105    22602338.368
       210.000         157.000
  22590515.844   -13104005.75949  -9835766.68146  22590517.117    22590532.371
       217.000         163.000
  20083567.397   -20994985.40949 -16329607.65847  20083567.180    20083578.734
       236.000         197.000
  19851012.917    -4198469.75449  -3262029.43347  19851013.615    19851024.188
       240.000         203.000
 01  3 29 19 10 29.9950000  0  6G 9G24G 7G30G 5G 4
  20687011.261    -4381364.06749  -3394974.16847  20687011.413    20687025.373
       237.000         196.000
  19169280.795   -17024107.36249 -13230261.27148  19169281.075    19169291.885
       243.000         214.000
  22607083.988     3112031.32149   2414671.05245  22607083.046    22607101.715
       212.000         155.000
  22563709.749   -13244872.84449  -9945533.11446  22563710.917    22563725.821
       217.000         163.000
  20062932.601   -21103420.57949 -16414102.54147  20062932.343    20062944.001
       236.000         196.000
  19855234.171    -4176287.67749  -3244744.75747  19855234.736    19855245.126
       240.000         203.000
 01  3 29 19 10 59.9950000  0  6G 9G24G 7G30G 5G 4
  20690858.288    -4361148.14949  -3379221.69447  20690858.730    20690872.009
       236.000         195.000
  19158718.422   -17079613.30249 -13273512.62648  19158718.601    19158729.400
       243.000         214.000
  22611851.949     3137085.27749   2434193.35745  22611850.829    22611870.177
       210.000         153.000
  22536915.186   -13385680.53349 -10055253.27745  22536915.045    22536930.808
       217.000         161.000
  20042351.444   -21211575.46149 -16498379.02147  20042351.321    20042362.819
       236.000         197.000
  19859534.124    -4153690.94049  -3227136.96747  19859534.618    19859545.328
       240.000         203.000
 01  3 29 19 11 29.9950000  0  6G 9G24G 7G30G 5G 4
  20694775.185    -4340565.65849  -3363183.57847  20694775.190    20694789.483
       236.000         195.000
  19148250.089   -17134624.83849 -13316378.72248  19148250.248    19148261.132
       243.000         213.000
  22616616.585     3162123.37649   2453703.28945  22616617.156    22616634.319
       211.000         154.000
  22510124.011   -13526469.20349 -10164958.61545  22510124.796    22510139.146
       215.000         160.000
  20021816.111   -21319490.07649 -16582468.28147  20021816.245    20021827.141
       236.000         197.000
  19863904.697    -4130724.25449  -3209240.91047  19863905.283    19863915.982
       240.000         203.000
 01  3 29 19 11 59.9950000  0  6G 9G24G 7G30G 5G 4
  20698771.554    -4319565.89449  -3346820.30847  20698771.612    20698785.467
       237.000         196.000
  19137885.846   -17189088.50049 -13358817.91248  19137886.165    19137896.946
       243.000         213.000
  22621388.946     3187199.14549   2473242.57745  22621388.307    22621405.798
       208.000         153.000
  22483346.774   -13667183.54549 -10274606.02445  22483346.961    22483361.689
       216.000         157.000
  20001337.054   -21427108.94249 -16666327.08647  20001336.836    20001348.103
       237.000         198.000
  19868354.972    -4107336.90849  -3191017.07147  19868355.643    19868366.484
       240.000         202.000
 01  3 29 19 12 29.9950000  0  6G 9G24G 7G30G 5G 4
  20702841.499    -4298179.24149  -3330155.57347  20702841.542    20702855.527
       237.000         195.000
  19127620.669   -17243032.64149 -13400852.28148  19127620.842    19127631.737
       243.000         214.000
  22626162.190     3212284.83549   2492789.59545  22626162.156    22626179.563
       208.000         152.000
  22456578.717   -13807849.33349 -10384215.60645  22456578.368    22456594.221
       214.000         154.000
  19980909.041   -21534457.83149 -16749975.52447  19980908.772    19980920.293
       236.000         198.000
  19872879.917    -4083559.19649  -3172489.05347  19872880.594    19872890.922
       240.000         202.000
 01  3 29 19 12 59.9950000  0  6G 9G24G 7G30G 5G 4
  20706985.880    -4276400.94849  -3313185.66647  20706986.156    20706999.772
       236.000         195.000
  19117455.709   -17296450.31749 -13442476.42048  19117455.828    19117466.545
       243.000         214.000
  22630940.527     3237387.56449   2512349.87445  22630939.868    22630956.332
       214.000         152.000
  22429821.762   -13948457.80349 -10493780.51945  22429821.777    22429837.499
       215.000         154.000
  19960534.376   -21641527.44049 -16833406.34147  19960533.989    19960545.528
       237.000         198.000
  19877479.917    -4059386.53749  -3153653.28547  19877480.429    19877491.313
       240.000         202.000
 01  3 29 19 13 29.9950000  0  6G 9G24G 7G30G 5G 4
  20711209.848    -4254204.89349  -3295890.23247  20711209.914    20711223.764
       237.000         195.000
  19107396.121   -17349313.28749 -13483668.32948  19107396.313    19107407.153
       243.000         214.000
  22635725.871     3262535.91549   2531945.71045  22635725.860    22635743.499
       208.000         151.000
  22403081.604   -14088978.37849 -10603276.95445  22403082.765    22403096.668
       214.000         153.000
  19940218.467   -21748287.01449 -16916595.57647  19940218.511    19940230.348
       237.000         198.000
  19882159.818    -4034793.08049  -3134489.62547  19882160.614    19882171.089
       240.000         202.000
 01  3 29 19 13 59.9950000  0  6G 9G24G 7G30G 5G 4
  20715506.663    -4231625.47749  -3278296.07147  20715506.599    20715520.842
       236.000         195.000
  19097436.080   -17401653.75349 -13524453.09048  19097436.287    19097447.020
       243.000         214.000
  22640513.894     3287698.18849   2551552.37945  22640514.022    22640529.957
       203.000         151.000
  22376351.868   -14229440.90349 -10712728.14245  22376353.130    22376367.407
       212.000         152.000
  19919956.134   -21854766.10349 -16999566.24647  19919956.287    19919967.661
       238.000         198.000
  19886913.572    -4009813.04449  -3115024.73047  19886914.051    19886924.642
       240.000         202.000
 01  3 29 19 14 29.9950000  0  6G 9G24G 7G30G 5G 4
  20719874.163    -4208674.84049  -3260412.64447  20719874.414    20719888.641
       236.000         195.000
  19087573.335   -17453482.07449 -13564838.77948  19087573.487    19087584.349
       243.000         214.000
  22645303.688     3312864.80249   2571162.44545  22645303.512    22645320.976
       211.000         149.000
  22349632.397   -14369852.88949 -10822139.95545  22349632.836    22349648.065
       213.000         153.000
  19899745.673   -21960972.29049 -17082324.26647  19899745.789    19899757.261
       237.000         199.000
  19891738.405    -3984458.62549  -3095268.11247  19891738.912    19891749.535
       240.000         202.000
 01  3 29 19 14 59.9950000  0  7G 9G24G 7G30G10G 5G 4
  20724316.988    -4185328.42049  -3242220.82547  20724317.195    20724331.458
       235.000         194.000
  19077813.341   -17504771.50049 -13604804.55548  19077813.446    19077824.458
       243.000         214.000
  22650098.842     3338063.08749   2590797.19045  22650099.093    22650115.210
       211.000         150.000
  22322927.913   -14510185.39449 -10931489.84245  22322928.720    22322943.652
       216.000         154.000
  23301730.916    -7491966.95159  -5804453.51055  23301731.023    23301759.972
       209.000         142.000
  19879592.917   -22066876.20349 -17164846.75347  19879592.786    19879604.288
       237.000         199.000
  19896639.415    -3958705.19349  -3075200.58147  19896640.034    19896650.320
       240.000         202.000
 01  3 29 19 15 29.9950000  0  7G 9G24G 7G30G10G 5G 4
  20728838.636    -4161567.84449  -3223706.27247  20728838.605    20728852.949
       236.000         194.000
  19068159.717   -17555501.85349 -13644334.69448  19068160.027    19068170.590
       243.000         214.000
  22654903.313     3363314.04649   2610472.96645  22654903.723    22654922.521
       206.000         150.000
  22296242.780   -14650415.57149 -11040759.98645  22296243.696    22296259.057
       215.000         157.000
  23274419.643    -7635486.41959  -5916286.29255  23274418.771    23274446.951
       209.000         142.000
  19859502.194   -22172454.75849 -17247115.71847  19859502.067    19859513.155
       237.000         199.000
  19901619.358    -3932534.25749  -3054807.71947  19901619.815    19901630.589
       240.000         202.000
 01  3 29 19 15 59.9950000  0  7G 9G24G 7G30G10G 5G 4
  20733437.732    -4137400.01449  -3204874.39447  20733437.633    20733452.022
       235.000         193.000
  19058611.453   -17605677.67449 -13683432.72548  19058611.700    19058622.566
       243.000         214.000
  22659718.703     3388613.17549   2630186.29045  22659718.094    22659735.093
       207.000         148.000
  22269576.581   -14790545.77249 -11149952.23845  22269576.504    22269592.658
       217.000         158.000
  23247096.814    -7779066.24949  -6028166.12545  23247097.061    23247126.155
       210.000         143.000
  19839472.691   -22277710.03849 -17329132.77147  19839472.562    19839483.839
       238.000         199.000
  19906677.594    -3905953.00749  -3034095.13547  19906678.146    19906689.023
       240.000         202.000
 01  3 29 19 16 29.9950000  0  7G 9G24G 7G30G10G 5G 4
  20738109.856    -4112847.36149  -3185742.65347  20738110.161    20738124.678
       234.000         193.000
  19049165.194   -17655319.12349 -13722114.37348  19049165.359    19049176.018
       243.000         214.000
  22664538.550     3413941.11949   2649922.05145  22664538.212    22664555.244
       209.000         148.000
  22242926.710   -14930593.61349 -11259080.29745  22242926.874    22242942.847
       218.000         160.000
  23219759.314    -7922723.35949  -6140106.19445  23219758.722    23219787.470
       209.000         142.000
  19819501.219   -22382659.84449 -17410911.80147  19819500.985    19819512.283
       238.000         199.000
  19911809.963    -3878983.58749  -3013080.08547  19911810.400    19911821.076
       240.000         201.000
 01  3 29 19 16 59.9950000  0  7G 9G24G 7G30G10G 5G 4
  20742855.050    -4087913.65849  -3166313.98547  20742855.102    20742869.194
       235.000         193.000
  19039819.978   -17704428.02549 -13760381.04248  19039820.072    19039830.961
       243.000         214.000
  22669363.102     3439296.77149   2669679.42545  22669363.148    22669381.706
       208.000         148.000
  22216292.073   -15070558.39249 -11368143.62545  22216292.393    22216306.922
       218.000         161.000
  23192407.231    -8066456.01249  -6252105.11245  23192407.240    23192435.437
       207.000         143.000
  19799588.182   -22487303.04749 -17492451.91747  19799588.036    19799599.393
       237.000         200.000
  19917015.433    -3851629.56549  -2991765.34447  19917015.787    19917026.552
       240.000         201.000
 01  3 29 19 17 29.9950000  0  7G 9G24G 7G30G10G 5G 4
  20747669.281    -4062613.26549  -3146599.59147  20747669.805    20747684.181
       234.000         193.000
  19030573.804   -17753016.32649 -13798242.05148  19030573.946    19030584.800
       243.000         214.000
  22674191.795     3464668.58349   2689449.38445  22674192.045    22674209.788
       211.000         148.000
  22189671.634   -15210449.57949 -11477149.61345  22189672.253    22189687.512
       218.000         161.000
  23165039.893    -8210273.01249  -6364169.75445  23165039.772    23165068.793
       208.000         143.000
  19779731.771   -22591648.98649 -17573760.39647  19779731.932    19779743.341
       238.000         200.000
  19922291.166    -3823905.44949  -2970162.22147  19922291.580    19922302.427
       239.000         201.000
 01  3 29 19 17 59.9950000  0  7G 9G24G 7G30G10G 5G 4
  20752543.157    -4037002.42649  -3126643.29147  20752543.783    20752557.684
       234.000         192.000
  19021416.588   -17801138.47849 -13835739.82848  19021416.868    19021427.645
       243.000         214.000
  22679013.536     3490002.85249   2709190.07845  22679013.444    22679030.876
       213.000         148.000
  22163055.457   -15350318.95949 -11586138.60046  22163056.224    22163070.750
       218.000         163.000
  23137646.296    -8354225.34749  -6476339.85945  23137645.848    23137673.685
       209.000         145.000
  19759922.169   -22695749.47449 -17654877.61547  19759922.084    19759933.343
       238.000         200.000
  19927626.649    -3795867.37149  -2948314.45747  19927627.217    19927637.842
       239.000         201.000
 01  3 29 19 18 29.9950000  0  7G 9G24G 7G30G10G 5G 4
  20757483.259    -4011043.56049  -3106415.80747  20757483.314    20757497.407
       235.000         192.000
  19012355.350   -17848755.39249 -13872843.90748  19012355.543    19012366.241
       243.000         214.000
  22683834.709     3515339.90149   2728932.93745  22683833.762    22683852.861
       210.000         149.000
  22136451.299   -15490124.47649 -11695077.83346  22136451.667    22136466.582
       217.000         163.000
  23110235.038    -8498270.07649  -6588581.96545  23110233.828    23110262.233
       207.000         145.000
  19740167.118   -22799562.25649 -17735770.64747  19740166.725    19740178.338
       238.000         200.000
  19933029.173    -3767477.66749  -2926192.69147  19933029.547    19933040.451
       239.000         200.000
 01  3 29 19 18 59.9950000  0  7G 9G24G 7G30G10G 5G 4
  20762484.087    -3984765.35949  -3085939.49047  20762484.368    20762498.718
       235.000         192.000
  19003385.257   -17895893.73249 -13909575.07248  19003385.362    19003396.305
       243.000         214.000
  22688651.956     3540653.84749   2748657.82145  22688652.583    22688668.762
       214.000         149.000
  22109854.976   -15629889.94149 -11803985.84046  22109855.792    22109869.363
       218.000         163.000
  23082802.001    -8642429.82549  -6700913.67745  23082802.129    23082829.546
       206.000         146.000
  19720462.291   -22903110.99249 -17816457.92547  19720462.322    19720473.913
       238.000         200.000
  19938492.778    -3738765.14349  -2903819.37847  19938493.299    19938504.596
       238.000         200.000
 01  3 29 19 19 29.9950000  0  7G 9G24G 7G30G10G 5G 4
  20767549.355    -3958147.80449  -3065198.74147  20767549.418    20767563.936
       234.000         192.000
  18994510.492   -17942530.97149 -13945915.76448  18994510.840    18994521.554
       243.000         214.000
  22693470.026     3565967.26549   2768382.25045  22693469.025    22693488.271
       212.000         151.000
  22083270.629   -15769591.01349 -11912843.66946  22083271.292    22083285.210
       218.000         163.000
  23055351.219    -8786679.44149  -6813315.43145  23055350.870    23055379.573
       204.000         145.000
  19700812.809   -23006371.02449 -17896920.23847  19700812.640    19700823.799
       238.000         201.000
  19944021.657    -3709709.81349  -2881178.94347  19944022.470    19944033.601
       237.000         200.000
 01  3 29 19 19 59.9950000  0  7G 9G24G 7G30G10G 5G 4
  20772676.312    -3931205.14049  -3044204.67247  20772676.761    20772691.307
       234.000         191.000
  18985728.573   -17988679.47649 -13981875.62748  18985728.762    18985739.611
       243.000         214.000
  22698284.807     3591268.84249   2788097.47045  22698284.908    22698301.427
       213.000         151.000
  22056696.876   -15909236.79149 -12021658.41146  22056696.553    22056711.752
       219.000         164.000
  23027882.815    -8931027.64749  -6925794.00645  23027882.524    23027910.014
       203.000         144.000
  19681216.187   -23109351.49449 -17977164.71747  19681216.074    19681227.408
       238.000         201.000
  19949613.642    -3680325.69349  -2858282.30847  19949614.103    19949625.006
       238.000         199.000
 01  3 29 19 20 29.9950000  0  7G 9G24G 7G30G10G 5G 4
  20777870.131    -3903911.96049  -3022937.47247  20777870.429    20777885.163
       234.000         190.000
  18977045.081   -18034312.30749 -14017433.66148  18977045.364    18977056.039
       243.000         214.000
  22703102.457     3616586.97449   2807825.58945  22703102.371    22703120.449
       209.000         151.000
  22030138.873   -16048797.37149 -12130406.77646  22030139.654    22030154.905
       218.000         165.000
  23000399.957    -9075443.35449  -7038325.19445  23000399.781    23000428.325
       201.000         144.000
  19661678.604   -23212022.11449 -18057167.75447  19661678.632    19661689.748
       238.000         201.000
  19955272.882    -3650587.29049  -2835109.61447  19955273.284    19955284.194
       238.000         199.000
 01  3 29 19 20 59.9950000  0  7G 9G24G 7G30G10G 5G 4
  20783129.650    -3876275.60949  -3001402.86147  20783129.643    20783144.285
       234.000         191.000
  18968458.630   -18079434.34949 -14052593.67848  18968458.688    18968469.511
       243.000         214.000
  22707922.837     3641916.92849   2827562.91145  22707922.820    22707941.034
       212.000         152.000
  22003596.602   -16188275.21649 -12239090.67446  22003597.622    22003612.107
       219.000         165.000
  22972905.514    -9219928.30049  -7150910.30445  22972905.854    22972932.903
       204.000         144.000
  19642199.628   -23314385.54449 -18136931.42247  19642199.358    19642210.730
       239.000         201.000
  19960997.904    -3620501.99749  -2811666.61447  19960998.443    19961009.510
       238.000         199.000
 01  3 29 19 21 29.9950000  0  7G 9G24G 7G30G10G 5G 4
  20788476.018    -3848179.55449  -2979510.05547  20788476.124    20788491.247
       233.000         190.000
  18959991.916   -18123927.09749 -14087263.33848  18959992.115    18960002.907
       243.000         214.000
  22712767.954     3667377.94449   2847402.34245  22712767.554    22712786.738
       210.000         153.000
  21977093.909   -16327549.00949 -12347615.57046  21977094.357    21977108.805
       219.000         164.000
  22945420.364    -9364360.65849  -7263454.46445  22945420.385    22945447.629
       204.000         146.000
  19622801.944   -23416320.44449 -18216361.17447  19622801.859    19622813.032
       239.000         202.000
  19966811.067    -3589952.92949  -2787862.23347  19966811.653    19966823.029
       238.000         199.000
 01  3 29 19 21 59.9950000  0  7G 9G24G 7G30G10G 5G 4
  20793903.614    -3819658.53349  -2957286.10747  20793903.844    20793918.268
       234.000         190.000
  18951638.655   -18167823.40549 -14121468.23848  18951638.883    18951649.661
       243.000         214.000
  22717632.827     3692938.35049   2867319.21445  22717632.393    22717651.243
       212.000         154.000
  21950624.065   -16466648.70849 -12456004.82046  21950624.644    21950639.338
       219.000         165.000
  22917940.253    -9508768.71749  -7375979.67945  22917940.483    22917967.462
       204.000         145.000
  19603480.144   -23517856.51449 -18295480.14747  19603480.099    19603491.414
       239.000         202.000
  19972706.195    -3558974.87549  -2763723.57647  19972706.601    19972717.684
       238.000         198.000
 01  3 29 19 22 29.9950000  0  7G 9G24G 7G30G10G 5G 4
  20799390.824    -3790826.14349  -2934819.53647  20799390.794    20799405.540
       234.000         190.000
  18943377.660   -18211235.40249 -14155295.75748  18943377.801    18943388.650
       243.000         214.000
  22722494.533     3718487.32249   2887227.17345  22722494.700    22722513.370
       210.000         153.000
  21924166.633   -16605683.10549 -12564343.17746  21924167.052    21924181.978
       219.000         165.000
  22890444.474    -9653260.68849  -7488570.28445  22890443.323    22890471.403
       206.000         148.000
  19584213.605   -23619102.58549 -18374373.14747  19584213.217    19584224.757
       238.000         202.000
  19978661.108    -3527681.38949  -2739339.12447  19978662.117    19978673.008
       238.000         199.000
 01  3 29 19 22 59.9950000  0  7G 9G24G 7G30G10G 5G 4
  20804940.335    -3761662.81649  -2912095.09247  20804940.275    20804955.477
       233.000         190.000
  18935212.948   -18254141.27949 -14188728.89248  18935213.188    18935223.826
       244.000         214.000
  22727358.867     3744047.03749   2907143.53845  22727358.523    22727376.251
       209.000         152.000
  21897725.708   -16744628.26449 -12672611.98646  21897727.145    21897741.038
       219.000         165.000
  22862936.916    -9797811.84249  -7601207.00445  22862936.510    22862962.768
       207.000         149.000
  19565006.793   -23720034.42749 -18453021.28447  19565006.746    19565018.024
       238.000         202.000
  19984679.955    -3496052.99749  -2714693.70747  19984680.515    19984691.534
       238.000         198.000
 01  3 29 19 23 29.9950000  0  7G 9G24G 7G30G10G 5G 4
  20810551.021    -3732179.53249  -2889121.32747  20810551.120    20810566.101
       232.000         190.000
  18927142.856   -18296549.91749 -14221774.57248  18927143.065    18927153.812
       244.000         214.000
  22732223.524     3769609.56149   2927062.07445  22732222.697    22732241.682
       210.000         153.000
  21871301.432   -16883489.92049 -12780815.74446  21871302.705    21871317.493
       218.000         164.000
  22835416.847    -9942427.06649  -7713893.63345  22835417.086    22835442.618
       209.000         151.000
  19545859.002   -23820657.86949 -18531429.10447  19545858.940    19545870.039
       239.000         202.000
  19990760.482    -3464100.34649  -2689795.61147  19990760.825    19990771.914
       238.000         198.000
 01  3 29 19 23 59.9950000  0  7G 9G24G 7G30G10G 5G 4
  20816223.264    -3702372.12849  -2865895.01147  20816223.615    20816238.066
       234.000         190.000
  18919168.419   -18338455.68249 -14254428.40848  18919168.565    18919179.342
       243.000         214.000
  22737089.087     3795181.97349   2946988.30745  22737088.676    22737107.989
       210.000         151.000
  21844894.285   -17022259.12749 -12888947.44946  21844895.642    21844909.243
       216.000         163.000
  22807886.628   -10087096.77249  -7826622.72545  22807886.064    22807913.397
       207.000         151.000
  19526771.290   -23920963.91549 -18609589.60147  19526771.202    19526782.556
       239.000         203.000
  19996903.398    -3431819.35549  -2664641.66847  19996903.899    19996915.076
       238.000         198.000
 01  3 29 19 24 29.9950000  0  7G 9G24G 7G30G10G 5G 4
  20821949.549    -3672282.58249  -2842448.84247  20821949.225    20821964.361
       235.000         189.000
  18911282.138   -18379898.46549 -14286721.47948  18911282.361    18911293.018
       244.000         214.000
  22741951.003     3820725.00349   2966891.63445  22741950.664    22741968.941
       206.000         151.000
  21818498.272   -17160973.32249 -12997036.27546  21818499.159    21818513.283
       217.000         164.000
  22780339.721   -10231857.17949  -7939422.48945  22780338.796    22780365.100
       209.000         151.000
  19507736.953   -24020989.83749 -18687531.81947  19507736.769    19507747.737
       239.000         203.000
  20003100.965    -3399251.77949  -2639264.41647  20003101.288    20003112.609
       237.000         198.000
 01  3 29 19 24 59.9950000  0  7G 9G24G 7G30G10G 5G 4
  20827733.893    -3641884.57649  -2818762.30647  20827734.215    20827749.371
       232.000         189.000
  18903489.335   -18420849.99349 -14318631.75848  18903489.594    18903500.323
       243.000         214.000
  22746810.604     3846268.13449   2986795.04345  22746811.295    22746831.318
       208.000         151.000
  21792118.350   -17299600.85749 -13105057.58946  21792118.900    21792132.812
       217.000         164.000
  22752780.834   -10376675.79549  -8052267.59145  22752780.376    22752806.759
       210.000         152.000
  19488761.937   -24120704.18949 -18765231.26147  19488761.717    19488773.028
       239.000         203.000
  20009357.972    -3366371.00349  -2613643.11347  20009358.355    20009369.550
       237.000         197.000
 01  3 29 19 25 29.9950000  0  7G 9G24G 7G30G10G 5G 4
  20833583.096    -3611147.38249  -2794811.47947  20833583.395    20833598.666
       231.000         188.000
  18895796.171   -18461277.69349 -14350133.85548  18895796.290    18895807.150
       243.000         214.000
  22751678.106     3871845.06149   3006724.80445  22751678.592    22751697.143
       209.000         151.000
  21765761.571   -17438105.97849 -13212983.51646  21765761.942    21765776.551
       219.000         164.000
  22725218.160   -10521516.41449  -8165129.85945  22725217.594    22725243.928
       211.000         152.000
  19469852.993   -24220071.42849 -18842660.22447  19469852.686    19469863.904
       241.000         203.000
  20015680.482    -3333145.91949  -2587753.51647  20015680.771    20015692.145
       237.000         197.000
 01  3 29 19 25 59.9950000  0  7G 9G24G 7G30G10G 5G 4
  20839481.684    -3580151.60049  -2770659.15747  20839481.694    20839497.181
       232.000         188.000
  18888187.807   -18501260.25749 -14381289.09948  18888187.940    18888198.684
       244.000         214.000
  22756538.497     3897377.91549   3026620.19445  22756536.901    22756557.375
       203.000         149.000
  21739413.636   -17576564.56849 -13320873.19446  21739413.907    21739428.706
       219.000         166.000
  22697637.526   -10666454.04649  -8278067.72945  22697637.273    22697662.796
       213.000         152.000
  19450995.420   -24319167.23049 -18919877.67947  19450995.702    19451006.690
       241.000         203.000
  20022053.341    -3299657.36349  -2561658.62147  20022053.866    20022064.898
       237.000         197.000
 01  3 29 19 26 29.9950000  0  8G 9G24G 7G30G10G 6G 5G 4
  20845437.288    -3548856.02349  -2746273.23046  20845437.347    20845452.854
       232.000         187.000
  18880672.295   -18540754.63249 -14412063.93948  18880672.453    18880683.202
       244.000         214.000
  22761397.708     3922910.78349   3046515.58445  22761396.123    22761416.027
       204.000         147.000
  21713083.280   -17714930.54849 -13428690.71046  21713083.723    21713097.793
       222.000         166.000
  22670046.705   -10811441.42049  -8391044.36645  22670046.338    22670072.730
       212.000         151.000
  23374365.992    -3919865.74259  -2756712.97055  23374366.217    23374390.473
       210.000         142.000
  19432198.530   -24417945.61149 -18996847.79347  19432198.460    19432209.529
       241.000         204.000
  20028483.987    -3265863.97449  -2535326.18847  20028484.488    20028495.795
       237.000         197.000
 01  3 29 19 26 59.9950000  0  8G 9G24G 7G30G10G 6G 5G 4
  20851440.703    -3517309.05349  -2721691.41047  20851440.705    20851456.180
       232.000         188.000
  18873240.775   -18579807.52749 -14442494.77048  18873241.039    18873251.735
       244.000         214.000
  22766247.418     3948398.53449   3066375.81745  22766246.640    22766265.332
       205.000         147.000
  21686762.581   -17853247.31949 -13536469.88946  21686763.608    21686777.419
       223.000         167.000
  22642438.736   -10956521.31849  -8504093.10445  22642438.888    22642463.760
       212.000         151.000
  23352566.636    -4034419.40849  -2845975.24245  23352565.546    23352589.875
       208.000         142.000
  19413453.893   -24516449.88949 -19073604.32347  19413453.914    19413464.822
       241.000         204.000
  20034963.645    -3231813.92749  -2508793.76847  20034964.027    20034975.343
       237.000         196.000
 01  3 29 19 27 29.9950000  0  8G 9G24G 7G30G10G 6G 5G 4
  20857499.424    -3485470.92949  -2696882.71947  20857500.035    20857514.584
       234.000         188.000
  18865901.162   -18618377.32249 -14472549.16248  18865901.232    18865912.034
       243.000         214.000
  22771097.710     3973883.60649   3086233.96045  22771096.225    22771115.146
       206.000         146.000
  21660459.296   -17991470.47949 -13644176.12446  21660460.079    21660474.407
       223.000         169.000
  22614821.292   -11101648.17349  -8617178.45545  22614820.651    22614845.498
       212.000         150.000
  23330768.443    -4148965.95149  -2935231.95945  23330769.904    23330793.100
       210.000         142.000
  19394769.707   -24614635.32349 -19150112.40347  19394769.417    19394780.685
       241.000         204.000
  20041499.547    -3197467.34549  -2482030.27947  20041500.238    20041511.234
       237.000         196.000
 01  3 29 19 27 59.9940000  0  8G 9G24G 7G30G10G 6G 5G 4
  20863612.133    -3453351.61849  -2671854.92347  20863612.000    20863627.437
       233.000         188.000
  18858652.349   -18656469.89749 -14502231.69248  18858652.736    18858663.271
       244.000         214.000
  22775944.023     3999359.03249   3106084.59945  22775945.397    22775964.636
       209.000         146.000
  21634174.126   -18129599.01149 -13751808.61446  21634174.010    21634189.036
       223.000         168.000
  22587195.582   -11246820.15849  -8730298.94145  22587196.602    22587220.573
       208.000         149.000
  23308971.849    -4263507.85549  -3024485.07945  23308972.746    23308995.752
       206.000         143.000
  19376146.186   -24712502.76249 -19226372.70447  19376146.255    19376156.841
       241.000         204.000
  20048089.990    -3162834.09449  -2455043.41547  20048090.402    20048101.784
       236.000         196.000
 01  3 29 19 28 29.9940000  0  8G 9G24G 7G30G10G 6G 5G 4
  20869766.602    -3421008.07349  -2646652.40247  20869767.259    20869782.523
       232.000         188.000
  18851482.970   -18694145.13849 -14531589.02548  18851483.316    18851493.989
       244.000         214.000
  22780781.215     4024770.69349   3125885.53845  22780781.898    22780800.303
       206.000         146.000
  21607895.143   -18267696.21849 -13859416.69146  21607895.960    21607909.227
       224.000         168.000
  22559550.207   -11392100.04949  -8843503.51245  22559548.853    22559573.966
       211.000         149.000
  23287162.992    -4378109.27549  -3113784.56445  23287162.995    23287187.657
       207.000         142.000
  19357571.680   -24810112.96349 -19302432.55047  19357571.154    19357582.421
       242.000         204.000
  20054724.380    -3127970.83349  -2427877.31747  20054724.644    20054736.082
       237.000         195.000
 01  3 29 19 28 59.9940000  0  8G 9G24G 7G30G10G 6G 5G 4
  20875966.026    -3388430.67449  -2621267.66846  20875966.436    20875982.420
       232.000         187.000
  18844395.817   -18731388.85249 -14560610.10948  18844396.114    18844406.608
       243.000         214.000
  22785607.968     4050131.31849   3145646.71045  22785607.006    22785627.126
       207.000         146.000
  21581626.059   -18405742.04849 -13966984.75246  21581626.994    21581639.194
       224.000         167.000
  22531886.798   -11537466.73349  -8956775.73045  22531885.881    22531911.050
       209.000         149.000
  23265347.428    -4492752.78949  -3203116.89045  23265348.611    23265370.879
       206.000         142.000
  19339049.365   -24907446.91749 -19378277.15347  19339049.561    19339060.409
       240.000         204.000
  20061404.302    -3092867.85849  -2400524.44147  20061404.801    20061416.173
       236.000         195.000
 01  3 29 19 29 29.9940000  0  8G 9G24G 7G30G10G 6G 5G 4
  20882218.154    -3355578.49849  -2595668.80846  20882218.066    20882233.698
       232.000         187.000
  18837398.706   -18768158.74249 -14589261.97948  18837398.936    18837409.605
       244.000         214.000
  22790431.276     4075484.72249   3165402.25145  22790431.358    22790451.624
       205.000         145.000
  21555374.912   -18543690.42849 -14074476.86246  21555375.234    21555388.743
       222.000         168.000
  22504215.882   -11682873.64849  -9070079.28145  22504215.964    22504241.554
       210.000         148.000
  23243532.040    -4607395.08049  -3292448.22245  23243531.569    23243555.381
       205.000         141.000
  19320588.605   -25004458.98449 -19453870.93447  19320588.400    19320599.539
       241.000         204.000
  20068137.521    -3057483.97149  -2372952.66647  20068138.254    20068149.647
       236.000         195.000
 01  3 29 19 29 59.9940000  0  8G 9G24G 7G30G10G 6G 5G 4
  20888529.759    -3322410.81149  -2569824.10746  20888529.482    20888545.380
       232.000         186.000
  18830499.802   -18804412.28749 -14617511.50048  18830500.010    18830510.657
       244.000         214.000
  22795263.465     4100874.42749   3185186.08945  22795263.843    22795282.441
       202.000         145.000
  21529151.141   -18681495.83049 -14181857.56846  21529151.737    21529165.076
       222.000         166.000
  22476547.433   -11828273.97049  -9183377.70345  22476547.060    22476570.711
       212.000         149.000
  23221723.966    -4721992.77349  -3381744.81545  23221725.546    23221747.793
       206.000         143.000
  19302197.551   -25101103.65949 -19529178.44047  19302197.615    19302208.540
       241.000         205.000
  20074932.162    -3021778.40949  -2345130.24047  20074932.912    20074944.023
       236.000         195.000
 01  3 29 19 30 29.9940000  0  8G 9G24G 7G30G10G 6G 5G 4
  20894890.380    -3288986.67149  -2543779.58046  20894890.561    20894905.613
       231.000         187.000
  18823688.447   -18840206.62349 -14645403.19548  18823688.569    18823699.212
       244.000         214.000
  22800091.977     4126244.74749   3204954.80745  22800091.709    22800111.601
       207.000         147.000
  21502944.490   -18819212.14049 -14289168.83346  21502944.789    21502959.504
       222.000         167.000
  22448869.035   -11973720.81049  -9296712.36445  22448869.158    22448893.210
       212.000         150.000
  23199915.366    -4836602.02849  -3471050.41845  23199914.604    23199937.455
       205.000         142.000
  19283866.401   -25197434.92249 -19604241.73147  19283866.464    19283877.385
       241.000         205.000
  20081777.172    -2985810.00049  -2317102.99747  20081777.456    20081788.741
       236.000         194.000
 01  3 29 19 30 59.9940000  0  8G 9G24G 7G30G10G 6G 5G 4
  20901309.436    -3255256.25049  -2517496.40046  20901309.372    20901325.262
       231.000         187.000
  18816974.108   -18875490.80249 -14672897.36848  18816974.413    18816985.064
       244.000         214.000
  22804926.685     4151648.25949   3224749.39345  22804926.573    22804946.169
       212.000         145.000
  21476764.912   -18956784.36149 -14396367.83746  21476765.918    21476779.499
       220.000         168.000
  22421192.838   -12119158.35049  -9410039.77545  22421192.695    22421215.732
       211.000         151.000
  23178113.519    -4951170.45549  -3560324.19845  23178113.135    23178136.499
       206.000         142.000
  19265605.284   -25293397.87949 -19679018.03847  19265605.106    19265616.271
       242.000         205.000
  20088681.216    -2949528.69749  -2288831.94547  20088681.962    20088693.262
       235.000         194.000
 01  3 29 19 31 29.9940000  0  8G 9G24G 7G30G10G 6G 5G 4
  20907782.936    -3221236.69649  -2490987.91246  20907783.444    20907799.218
       232.000         186.000
  18810353.982   -18910279.69149 -14700005.59548  18810354.263    18810364.916
       244.000         214.000
  22809764.529     4177071.25249   3244559.15045  22809764.501    22809783.552
       209.000         145.000
  21450611.083   -19094224.27149 -14503463.72846  21450612.214    21450626.163
       221.000         170.000
  22393516.988   -12264597.79149  -9523368.67145  22393516.038    22393539.363
       215.000         153.000
  23156314.746    -5065712.22449  -3649577.21345  23156316.197    23156338.929
       201.000         141.000
  19247411.900   -25389004.73249 -19753516.85347  19247411.575    19247422.719
       241.000         205.000
  20095641.760    -2912951.29349  -2260330.14547  20095642.054    20095653.665
       235.000         193.000
 01  3 29 19 31 59.9940000  0  8G 9G24G 7G30G10G 6G 5G 4
  20914314.728    -3186912.59749  -2464242.12146  20914315.299    20914331.101
       231.000         187.000
  18803831.358   -18944556.50749 -14726714.80548  18803831.551    18803842.300
       244.000         214.000
  22814609.234     4202531.94349   3264398.28845  22814610.160    22814628.730
       209.000         145.000
  21424485.992   -19231511.63149 -14610440.75246  21424486.730    21424500.180
       222.000         172.000
  22365843.098   -12410017.92249  -9636682.52245  22365842.693    22365867.254
       215.000         154.000
  23134528.048    -5180209.35049  -3738795.41645  23134528.055    23134550.305
       203.000         142.000
  19229290.129   -25484235.10449 -19827722.30947  19229290.058    19229300.989
       242.000         206.000
  20102661.508    -2876062.05249  -2231585.37347  20102661.882    20102673.545
       235.000         193.000
 01  3 29 19 32 29.9940000  0  8G 9G24G 7G30G10G 6G 5G 4
  20920907.303    -3152270.03949  -2437248.18946  20920908.253    20920923.813
       231.000         186.000
  18797409.202   -18978305.38749 -14753012.64148  18797409.262    18797419.980
       244.000         214.000
  22819466.308     4228047.44649   3284280.13845  22819465.673    22819485.979
       209.000         144.000
  21398393.675   -19368627.45849 -14717284.11646  21398394.131    21398408.647
       222.000         173.000
  22338177.451   -12555398.73549  -9749965.73645  22338177.114    22338201.711
       214.000         155.000
  23112751.359    -5294645.11649  -3827965.80545  23112751.798    23112774.212
       201.000         145.000
  19211243.727   -25579070.06749 -19901619.64847  19211243.470    19211254.391
       242.000         205.000
  20109743.268    -2838846.96049  -2202586.69247  20109743.636    20109755.430
       235.000         193.000
 01  3 29 19 32 59.9940000  0  8G 9G24G 7G30G10G 6G 5G 4
  20927558.933    -3117316.41849  -2410011.86646  20927559.303    20927575.898
       231.000         185.000
  18791086.315   -19011532.05049 -14778903.55348  18791086.531    18791097.394
       244.000         214.000
  22824330.909     4253613.16349   3304201.12345  22824329.575    22824351.809
       212.000         143.000
  21372333.628   -19505574.25749 -14823995.75946  21372334.305    21372348.179
       224.000         172.000
  22310519.588   -12700742.08149  -9863219.74945  22310519.440    22310543.634
       214.000         156.000
  23090985.186    -5409024.53349  -3917092.31845  23090984.333    23091008.272
       204.000         144.000
  19193271.810   -25673512.17949 -19975210.87147  19193271.636    19193282.752
       242.000         206.000
  20116885.636    -2801313.41249  -2173339.86047  20116886.189    20116898.020
       234.000         192.000
 01  3 29 19 33 29.9940000  0  8G 9G24G 7G30G10G 6G 5G 4
  20934270.752    -3082048.14249  -2382530.36446  20934270.764    20934286.435
       231.000         185.000
  18784863.832   -19044231.50049 -14804383.65348  18784864.125    18784874.870
       244.000         214.000
  22829206.925     4279235.60249   3324166.32145  22829207.743    22829227.242
       211.000         142.000
  21346307.292   -19642343.35149 -14930568.93646  21346308.347    21346321.745
       223.000         173.000
  22282869.962   -12846038.30249  -9976437.05345  22282869.701    22282893.985
       215.000         155.000
  23069230.859    -5523341.24649  -4006169.94745  23069231.700    23069253.710
       200.000         144.000
  19175376.308   -25767553.15749 -20048489.52447  19175376.288    19175387.092
       241.000         206.000
  20124089.569    -2763457.53549  -2143841.86447  20124090.338    20124101.707
       234.000         192.000
 01  3 29 19 33 59.9940000  0  8G 9G24G 7G30G10G 6G 5G 4
  20941043.594    -3046457.21349  -2354797.44646  20941043.474    20941059.790
       230.000         184.000
  18778743.630   -19076393.27749 -14829444.78648  18778743.749    18778754.556
       244.000         214.000
  22834096.779     4304926.06449   3344184.51645  22834096.583    22834117.588
       208.000         141.000
  21320317.464   -19778921.36549 -15036993.22346  21320318.176    21320332.474
       224.000         172.000
  22255232.712   -12991273.27849 -10089606.63545  22255231.624    22255256.196
       213.000         155.000
  23047491.166    -5637584.46249  -4095190.30745  23047491.491    23047514.190
       200.000         145.000
  19157559.880   -25861179.72349 -20121445.25747  19157559.857    19157570.735
       241.000         206.000
  20131356.462    -2725270.95049  -2114086.17347  20131357.155    20131368.466
       234.000         192.000
 01  3 29 19 34 29.9940000  0  8G 9G24G 7G30G10G 6G 5G 4
  20947883.253    -3010515.99249  -2326791.56846  20947883.459    20947899.387
       231.000         185.000
  18772731.213   -19107988.81949 -14854064.69748  18772731.409    18772742.011
       244.000         214.000
  22839004.322     4330715.28749   3364279.64345  22839002.451    22839025.147
       210.000         140.000
  21294370.006   -19915275.37049 -15143242.95746  21294370.764    21294384.487
       223.000         172.000
  22227612.369   -13136413.22049 -10202702.15145  22227612.601    22227636.052
       211.000         154.000
  23025771.433    -5751723.69849  -4184129.62745  23025771.412    23025793.433
       204.000         146.000
  19139828.342   -25954359.35649 -20194052.73447  19139828.358    19139839.100
       241.000         206.000
  20138691.244    -2686725.76249  -2084051.05547  20138691.694    20138703.693
       234.000         192.000
 01  3 29 19 34 59.9940000  0  8G 9G24G 7G30G10G 6G 5G 4
  20954791.688    -2974213.84149  -2298504.44646  20954791.746    20954808.078
       231.000         184.000
  18766828.843   -19139005.85349 -14878233.82648  18766829.022    18766839.945
       243.000         214.000
  22843932.422     4356616.89349   3384462.34845  22843934.936    22843951.819
       208.000         138.000
  21268468.252   -20051389.84749 -15249306.04846  21268468.337    21268482.585
       223.000         172.000
  22200014.346   -13281441.61149 -10315710.74745  22200014.201    22200037.278
       213.000         154.000
  23004072.894    -5865745.56649  -4272977.51145  23004073.696    23004094.631
       201.000         147.000
  19122184.714   -26047076.28849 -20266299.66547  19122184.611    19122195.772
       241.000         207.000
  20146096.551    -2647811.08849  -2053728.02247  20146097.142    20146108.745
       233.000         191.000
 01  3 29 19 35 29.9940000  0  8G 9G24G 7G30G10G 6G 5G 4
  20961755.357    -2937619.50749  -2269989.65846  20961755.317    20961772.052
       232.000         184.000
  18761023.836   -19169511.44749 -14902004.43048  18761024.146    18761034.793
       243.000         214.000
  22848871.058     4382565.10649   3404681.36545  22848871.469    22848889.563
       207.000         140.000
  21242599.655   -20187328.54449 -15355232.16946  21242600.019    21242614.325
       223.000         171.000
  22172425.055   -13426421.23349 -10428681.34945  22172424.679    22172448.839
       211.000         154.000
  22982384.940    -5979716.26949  -4361785.53945  22982385.240    22982407.815
       208.000         147.000
  19104617.342   -26139394.67949 -20338236.04347  19104617.387    19104628.080
       241.000         207.000
  20153558.914    -2608595.77549  -2023170.72747  20153559.519    20153570.752
       234.000         191.000
 01  3 29 19 35 59.9940000  0  8G 9G24G 7G30G10G 6G 5G 4
  20968764.719    -2900784.05449  -2241286.97746  20968765.268    20968781.253
       230.000         184.000
  18755306.849   -19199554.84949 -14925414.88548  18755307.038    18755317.843
       244.000         215.000
  22853808.395     4408511.94949   3424899.30845  22853809.118    22853829.059
       209.000         140.000
  21216756.189   -20323137.04649 -15461056.84746  21216756.253    21216770.665
       223.000         171.000
  22144836.265   -13571397.37849 -10541649.24845  22144835.407    22144859.261
       210.000         154.000
  22960697.150    -6093683.96249  -4450591.22245  22960697.143    22960719.587
       206.000         149.000
  19087116.823   -26231360.55549 -20409897.73647  19087116.650    19087127.618
       241.000         207.000
  20161069.053    -2569130.25949  -1992418.46547  20161069.650    20161081.223
       233.000         191.000
 01  3 29 19 36 29.9940000  0  8G 9G24G 7G30G10G 6G 5G 4
  20975820.109    -2863709.15849  -2212397.71746  20975820.415    20975836.929
       229.000         183.000
  18749677.520   -19229136.70749 -14948465.69548  18749677.785    18749688.510
       243.000         215.000
  22858746.529     4434458.80249   3445117.25945  22858745.864    22858765.793
       207.000         140.000
  21190937.967   -20458812.07549 -15566777.51446  21190939.117    21190951.823
       224.000         171.000
  22117249.520   -13716365.86749 -10654611.18245  22117248.805    22117272.296
       211.000         153.000
  22939010.562    -6207647.70249  -4539393.83445  22939011.281    22939033.437
       207.000         151.000
  19069683.875   -26322970.72849 -20481282.25247  19069683.982    19069694.688
       241.000         207.000
  20168626.515    -2529416.20549  -1961472.52747  20168627.226    20168638.914
       233.000         190.000
 01  3 29 19 36 59.9940000  0  8G 9G24G 7G30G10G 6G 5G 4
  20982928.387    -2826356.25249  -2183291.84646  20982929.183    20982945.922
       229.000         182.000
  18744143.874   -19258216.41649 -14971125.22348  18744144.098    18744154.771
       244.000         214.000
  22863692.695     4460447.62149   3465367.92945  22863693.197    22863712.649
       209.000         142.000
  21165153.375   -20594309.45249 -15672359.74746  21165154.264    21165167.404
       223.000         171.000
  22089672.637   -13861281.36549 -10767531.84045  22089671.343    22089696.037
       211.000         153.000
  22917332.030    -6321566.10149  -4628161.13145  22917332.634    22917354.513
       206.000         152.000
  19052326.981   -26414181.60249 -20552355.63447  19052326.872    19052337.810
       241.000         207.000
  20176238.455    -2489414.39349  -1930302.37247  20176239.237    20176251.037
       233.000         190.000
 01  3 29 19 37 29.9940000  0  7G 9G24G30G10G 6G 5G 4
  20990082.069    -2788764.45149  -2153999.81346  20990082.361    20990098.748
       229.000         182.000
  18738698.582   -19286831.38949 -14993422.61448  18738698.816    18738709.613
       244.000         214.000
  21139396.528   -20729663.16749 -15777830.02946  21139396.991    21139410.061
       225.000         174.000
  22062099.047   -14006177.11949 -10880437.10445  22062098.773    22062122.536
       210.000         154.000
  22895656.175    -6435475.55849  -4716921.45045  22895656.561    22895677.717
       210.000         152.000
  19035039.611   -26505027.29049 -20623144.45047  19035039.561    19035050.424
       241.000         207.000
  20183898.123    -2449163.90749  -1898938.44747  20183899.014    20183910.234
       233.000         189.000
 01  3 29 19 37 59.9940000  0  7G 9G24G30G10G 6G 5G 4
  20997277.745    -2750953.84949  -2124537.28446  20997278.026    20997294.166
       229.000         182.000
  18733338.310   -19315000.23249 -15015372.37248  18733338.480    18733349.327
       244.000         214.000
  21113664.111   -20864888.33049 -15883200.14746  21113664.693    21113677.705
       226.000         175.000
  22034527.597   -14151067.36649 -10993338.12445  22034526.924    22034549.725
       212.000         156.000
  22873977.840    -6549393.25849  -4805688.20945  22873978.135    22874000.205
       211.000         152.000
  19017818.800   -26595522.84649 -20693660.43947  19017818.790    19017829.612
       241.000         207.000
  20191601.210    -2408684.33249  -1867396.01247  20191602.050    20191613.298
       233.000         189.000
 01  3 29 19 38 29.9940000  0  7G 9G24G30G10G 6G 5G 4
  21004513.069    -2712932.45349  -2094910.50646  21004513.237    21004529.870
       227.000         182.000
  18728061.543   -19342729.63149 -15036979.70748  18728061.762    18728072.465
       244.000         214.000
  21087955.175   -20999987.67649 -15988472.23446  21087956.109    21087969.199
       226.000         175.000
  22006955.994   -14295954.65649 -11106236.81345  22006955.605    22006978.099
       213.000         155.000
  22852297.554    -6663324.56049  -4894465.57845  22852297.803    22852319.767
       211.000         152.000
  19000663.969   -26685671.67849 -20763906.25747  19000663.947    19000674.890
       241.000         208.000
  20199346.535    -2367983.80449  -1835681.40747  20199346.815    20199358.814
       233.000         189.000
 01  3 29 19 38 59.9940000  0  7G 9G24G30G10G 6G 5G 4
  21011794.058    -2674671.79649  -2065097.30346  21011794.629    21011811.123
       228.000         183.000
  18722874.231   -19369989.24749 -15058220.97548  18722874.607    18722885.301
       243.000         214.000
  21062276.731   -21134927.54349 -16093620.05946  21062277.732    21062290.442
       226.000         176.000
  21979391.507   -14440803.76949 -11219105.77345  21979390.703    21979413.937
       214.000         157.000
  22830620.973    -6777238.17849  -4983229.18945  22830619.767    22830641.874
       210.000         152.000
  18983581.653   -26775440.05549 -20833855.61947  18983581.554    18983592.404
       241.000         208.000
  20207139.213    -2327033.09949  -1803771.85847  20207139.753    20207151.050
       234.000         189.000
 01  3 29 19 39 29.9940000  0  7G 9G24G30G10G 6G 5G 4
  21019127.014    -2636138.32949  -2035071.51746  21019127.313    21019143.946
       229.000         182.000
  18717783.033   -19396744.17449 -15079068.97348  18717783.192    18717793.989
       244.000         214.000
  21036635.931   -21269669.01749 -16198613.29146  21036637.150    21036650.075
       226.000         175.000
  21951842.312   -14585574.88649 -11331913.96645  21951842.454    21951864.628
       216.000         160.000
  22808953.191    -6891097.71149  -5071950.64545  22808953.350    22808975.117
       212.000         152.000
  18966579.055   -26864789.55649 -20903478.58947  18966579.041    18966589.788
       242.000         208.000
  20214985.894    -2285798.51149  -1771641.10047  20214986.412    20214997.926
       233.000         190.000
 01  3 29 19 39 59.9940000  0  7G 9G24G30G10G 6G 5G 4
  21026523.245    -2597272.33349  -2004786.61646  21026524.281    21026540.273
       229.000         182.000
  18712799.322   -19422933.34949 -15099476.12648  18712799.532    18712810.287
       244.000         214.000
  21011045.619   -21404147.24949 -16303401.40146  21011046.323    21011059.913
       226.000         173.000
  21924320.083   -14730202.22549 -11444610.12745  21924319.910    21924341.979
       216.000         161.000
  22787308.399    -7004840.53549  -5160581.17245  22787308.675    22787330.877
       209.000         152.000
  18949668.422   -26953655.59649 -20972724.83747  18949668.236    18949678.852
       242.000         208.000
  20222898.066    -2244220.04649  -1739242.38247  20222898.652    20222910.111
       233.000         188.000
 01  3 29 19 40 29.9940000  0  7G 9G24G30G10G 6G 5G 4
  21033968.950    -2558144.68849  -1974297.84246  21033968.937    21033986.865
       229.000         181.000
  18707910.224   -19448625.92749 -15119496.31648  18707910.297    18707921.100
       244.000         214.000
  20985492.774   -21538427.54849 -16408035.27646  20985493.044    20985506.631
       227.000         174.000
  21896813.888   -14874750.81549 -11557244.92145  21896813.210    21896835.715
       217.000         162.000
  22765673.388    -7118534.90049  -5249173.93245  22765673.098    22765694.092
       211.000         152.000
  18932837.112   -27042104.13449 -21041645.75447  18932837.062    18932847.848
       242.000         208.000
  20230862.288    -2202368.02549  -1706630.50847  20230863.031    20230874.105
       233.000         188.000
 01  3 29 19 40 59.9940000  0  7G 9G24G30G10G 6G 5G 4
  21041462.668    -2518767.83849  -1943614.88246  21041463.129    21041479.851
       228.000         182.000
  18703113.544   -19473832.98449 -15139138.17948  18703113.827    18703124.485
       244.000         214.000
  20959976.456   -21672517.10249 -16512520.53346  20959977.284    20959989.921
       226.000         175.000
  21869320.529   -15019226.61449 -11669823.01445  21869319.758    21869342.518
       217.000         162.000
  22744044.932    -7232190.31649  -5337736.35745  22744044.959    22744066.051
       211.000         152.000
  18916083.981   -27130142.72049 -21110247.23047  18916083.924    18916094.671
       242.000         208.000
  20238876.493    -2160254.77749  -1673815.08547  20238877.070    20238888.571
       232.000         188.000
 01  3 29 19 41 29.9940000  0  7G 9G24G30G10G 6G 5G 4
  21048996.593    -2479175.37649  -1912763.91646  21048996.920    21049014.438
       227.000         180.000
  18698402.943   -19498586.56649 -15158426.68048  18698403.239    18698414.124
       244.000         215.000
  20934490.803   -21806444.38349 -16616879.34546  20934490.712    20934504.409
       226.000         175.000
  21841835.900   -15163657.46849 -11782366.10345  21841835.596    21841856.974
       214.000         162.000
  22722417.795    -7345837.78149  -5426292.58845  22722417.654    22722439.812
       207.000         151.000
  18899403.340   -27217800.12349 -21178551.68047  18899403.186    18899414.007
       242.000         208.000
  20246933.582    -2117913.62249  -1640822.07547  20246934.334    20246945.931
       232.000         188.000
 01  3 29 19 41 59.9940000  0  7G 9G24G30G10G 6G 5G 4
  21056581.030    -2439321.58949  -1881709.33046  21056580.854    21056598.814
       227.000         180.000
  18693787.767   -19522839.53549 -15177325.09748  18693788.033    18693798.790
       244.000         214.000
  20909045.519   -21940158.83749 -16721072.31746  20909045.991    20909059.812
       227.000         175.000
  21814369.129   -15307991.75649 -11894833.93245  21814369.175    21814391.285
       215.000         160.000
  22700802.023    -7459429.01049  -5514804.98545  22700801.476    22700823.399
       211.000         150.000
  18882804.567   -27305026.04549 -21246519.91247  18882804.541    18882815.695
       242.000         209.000
  20255043.199    -2075298.67849  -1607615.71246  20255043.678    20255055.434
       232.000         187.000
 01  3 29 19 42 29.9940000  0  7G 9G24G30G10G 6G 5G 4
  21064210.184    -2399229.50649  -1850469.04946  21064210.240    21064227.631
       225.000         179.000
  18689263.699   -19546613.52549 -15195850.28148  18689263.966    18689274.749
       244.000         214.000
  20883637.817   -22073677.75249 -16825112.91646  20883639.427    20883652.107
       227.000         176.000
  21786918.866   -15452246.23349 -12007239.57945  21786918.401    21786939.866
       216.000         160.000
  22679192.767    -7572983.83749  -5603289.01845  22679193.095    22679215.584
       209.000         151.000
  18866284.784   -27391838.24649 -21314165.76447  18866284.880    18866295.569
       242.000         209.000
  20263200.271    -2032432.39549  -1574213.51346  20263200.801    20263212.627
       232.000         187.000
 01  3 29 19 42 59.9940000  0  7G 9G24G30G10G 6G 5G 4
  21071887.999    -2358883.15949  -1819030.65546  21071888.315    21071906.173
       226.000         178.000
  18684834.207   -19569890.80349 -15213988.42048  18684834.517    18684845.258
       244.000         214.000
  20858271.034   -22206979.71249 -16928984.46246  20858271.891    20858284.833
       227.000         176.000
  21759486.767   -15596398.71549 -12119565.75745  21759485.883    21759508.729
       215.000         159.000
  22657595.473    -7686483.42049  -5691730.01945  22657595.579    22657615.938
       212.000         151.000
  18849847.767   -27478215.97449 -21381473.06747  18849847.617    18849858.546
       242.000         208.000
  20271408.697    -1989298.46349  -1540602.76346  20271409.116    20271420.532
       232.000         187.000
 01  3 29 19 43 29.9940000  0  7G 9G24G30G10G 6G 5G 4
  21079609.899    -2318305.18949  -1787411.77946  21079610.643    21079628.195
       226.000         179.000
  18680495.069   -19592693.18649 -15231756.51148  18680495.283    18680506.009
       244.000         214.000
  20832942.789   -22340082.30449 -17032700.65846  20832943.327    20832956.847
       227.000         177.000
  21732071.327   -15740465.58649 -12231825.23845  21732071.732    21732092.608
       214.000         160.000
  22636003.285    -7799947.76649  -5780143.54445  22636003.830    22636024.678
       211.000         150.000
  18833489.895   -27564176.77749 -21448455.48847  18833489.933    18833500.735
       242.000         209.000
  20279663.480    -1945919.16449  -1506800.81046  20279664.225    20279675.473
       232.000         187.000
 01  3 29 19 43 59.9940000  0  7G 9G24G30G10G 6G 5G 4
  21087369.908    -2277530.61449  -1755639.70446  21087370.102    21087387.493
       227.000         179.000
  18676239.978   -19615053.77749 -15249180.34848  18676240.180    18676250.918
       244.000         214.000
  20807646.327   -22473015.03049 -17136284.48346  20807647.325    20807660.113
       227.000         177.000
  21704666.846   -15884475.76949 -12344040.54745  21704666.256    21704688.586
       213.000         158.000
  22614412.375    -7913409.02249  -5868554.66745  22614413.486    22614433.372
       212.000         150.000
  18817205.727   -27649750.99049 -21515136.67547  18817205.727    18817216.324
       242.000         209.000
  20287958.406    -1902329.19849  -1472834.70146  20287959.267    20287970.409
       232.000         187.000
 01  3 29 19 44 29.9940000  0  7G 9G24G30G10G 6G 5G 4
  21095168.393    -2236551.27649  -1723708.07946  21095168.029    21095185.624
       226.000         179.000
  18672070.792   -19636963.39749 -15266252.78248  18672070.960    18672081.880
       244.000         215.000
  20782384.964   -22605764.49149 -17239725.50746  20782385.651    20782398.957
       227.000         177.000
  21677275.483   -16028415.08349 -12456200.63145  21677275.130    21677297.179
       214.000         158.000
  22592824.005    -8026856.17349  -5956954.79545  22592823.052    22592845.095
       207.000         149.000
  18800997.560   -27734925.51549 -21581506.41647  18800997.301    18801008.237
       242.000         209.000
  20296295.029    -1858520.02149  -1438697.78046  20296295.625    20296307.349
       231.000         185.000
 01  3 29 19 44 59.9940000  0  7G 9G24G30G10G 6G 5G 4
  21103006.817    -2195361.30949  -1691612.32346  21103006.398    21103024.836
       227.000         179.000
  18667988.617   -19658414.98649 -15282968.31248  18667989.026    18667999.817
       244.000         214.000
  20757160.147   -22738319.84649 -17343015.27846  20757160.525    20757174.202
       227.000         177.000
  21649900.438   -16172271.75149 -12568296.32145  21649900.017    21649921.990
       217.000         158.000
  22571238.957    -8140280.86749  -6045337.40345  22571240.154    22571260.431
       208.000         148.000
  18784867.237   -27819689.94049 -21647556.60047  18784867.303    18784878.099
       242.000         209.000
  20304674.677    -1814485.69149  -1404385.41246  20304674.957    20304687.068
       231.000         186.000
 01  3 29 19 45 29.9940000  0  7G 9G24G30G10G 6G 5G 4
  21110890.621    -2153933.19849  -1659331.00546  21110890.507    21110908.457
       227.000         179.000
  18663999.279   -19679379.62849 -15299304.40348  18663999.437    18664010.216
       244.000         214.000
  20731979.174   -22870648.03249 -17446128.02946  20731979.534    20731992.301
       227.000         177.000
  21622547.657   -16316011.81949 -12680301.16145  21622546.767    21622568.030
       217.000         159.000
  22549665.273    -8253652.59149  -6133678.71945  22549665.497    22549686.119
       208.000         148.000
  18768821.455   -27904011.86349 -21713261.97747  18768821.414    18768832.119
       242.000         210.000
  20313102.285    -1770198.29649  -1369875.85146  20313103.118    20313114.574
       231.000         186.000
 01  3 29 19 45 59.9940000  0  7G 9G24G30G10G 6G 5G 4
  21118816.917    -2112279.39949  -1626873.83646  21118816.968    21118834.851
       227.000         178.000
  18660100.375   -19699868.05249 -15315269.41948  18660100.507    18660111.419
       244.000         214.000
  20706839.832   -23002755.83449 -17549069.05946  20706840.140    20706853.295
       228.000         179.000
  21595215.523   -16459641.46549 -12792219.96145  21595215.084    21595235.503
       217.000         159.000
  22528099.044    -8366980.75149  -6221986.09545  22528099.567    22528121.101
       208.000         147.000
  18752858.425   -27987898.25849 -21778627.98047  18752858.418    18752869.154
       242.000         209.000
  20321575.819    -1725669.42149  -1335178.12946  20321576.442    20321588.450
       230.000         184.000
 01  3 29 19 46 29.9930000  0  7G 9G24G30G10G 6G 5G 4
  21126776.685    -2070452.28749  -1594281.59346  21126777.064    21126794.960
       225.000         178.000
  18656282.981   -19719929.14249 -15330901.44848  18656283.083    18656293.952
       244.000         215.000
  20681734.383   -23134684.67449 -17651870.63546  20681734.752    20681747.726
       227.000         179.000
  21567896.468   -16603200.61249 -12904083.84045  21567896.374    21567916.335
       217.000         158.000
  22506533.768    -8480309.85849  -6310294.20345  22506533.428    22506554.803
       208.000         147.000
  18736969.778   -28071392.87249 -21843688.69547  18736969.774    18736980.558
       242.000         210.000
  20330085.623    -1680951.39949  -1300333.01846  20330086.632    20330098.297
       231.000         185.000
 01  3 29 19 46 59.9930000  0  7G 9G24G30G10G 6G 5G 4
  21134775.923    -2028416.60949  -1561526.85146  21134776.080    21134794.280
       225.000         177.000
  18652552.864   -19739530.58649 -15346175.31348  18652553.111    18652563.961
       244.000         214.000
  20656668.562   -23266405.39649 -17754510.03346  20656669.225    20656681.856
       227.000         179.000
  21540597.058   -16746660.27449 -13015870.17745  21540596.392    21540617.378
       216.000         159.000
  22484972.643    -8593611.94749  -6398581.25645  22484973.110    22484992.861
       206.000         147.000
  18721161.989   -28154463.82649 -21908419.28747  18721161.862    18721172.738
       242.000         210.000
  20338638.047    -1636008.18149  -1265312.43446  20338638.747    20338650.595
       230.000         184.000
 01  3 29 19 47 29.9930000  0  7G 9G24G30G10G 6G 5G 4
  21142817.451    -1986160.76749  -1528600.55546  21142817.705    21142836.705
       226.000         177.000
  18648913.291   -19758657.11749 -15361079.12448  18648913.574    18648924.256
       244.000         214.000
  20631646.817   -23397895.42949 -17856969.69446  20631648.171    20631660.682
       227.000         180.000
  21513320.509   -16889996.61449 -13127560.43745  21513320.493    21513341.147
       217.000         160.000
  22463420.171    -8706867.50049  -6486832.03945  22463421.289    22463441.104
       208.000         147.000
  18705438.560   -28237090.64149 -21972803.79847  18705438.371    18705449.353
       243.000         210.000
  20347235.599    -1590828.06249  -1230107.25246  20347236.000    20347248.422
       230.000         184.000
 01  3 29 19 47 59.9930000  0  7G 9G24G30G10G 6G 5G 4
  21150892.984    -1943724.52749  -1495533.68046  21150893.864    21150911.713
       226.000         177.000
  18645356.677   -19777347.51349 -15375643.08148  18645356.708    18645367.560
       244.000         214.000
  20606662.285   -23529189.28949 -17959276.48246  20606663.372    20606675.821
       228.000         179.000
  21486061.743   -17033243.21149 -13239180.76845  21486061.155    21486081.479
       218.000         162.000
  22441869.968    -8820113.61749  -6575075.49745  22441870.145    22441891.239
       211.000         148.000
  18689793.089   -28319308.33749 -22036869.51047  18689793.084    18689803.723
       242.000         210.000
  20355870.582    -1545450.60449  -1194748.29246  20355871.048    20355883.317
       230.000         183.000
 01  3 29 19 48 29.9930000  0  7G 9G24G30G10G 6G 5G 4
  21158997.912    -1901133.10049  -1462345.87946  21158997.931    21159016.440
       225.000         176.000
  18641878.255   -19795625.65549 -15389885.81048  18641878.599    18641889.314
       243.000         214.000
  20581711.630   -23660306.42149 -18061445.56046  20581712.613    20581724.796
       228.000         180.000
  21458815.696   -17176419.12549 -13350746.02045  21458815.373    21458836.031
       217.000         162.000
  22420317.438    -8933372.39349  -6663328.81245  22420318.305    22420338.641
       207.000         149.000
  18674221.621   -28401137.13449 -22100632.18747  18674221.605    18674232.142
       243.000         210.000
  20364538.476    -1499900.04449  -1159254.46146  20364539.019    20364551.196
       229.000         182.000
 01  3 29 19 48 59.9930000  0  7G 9G24G30G10G 6G 5G 4
  21167142.603    -1858333.90949  -1428996.18946  21167142.949    21167160.820
       226.000         176.000
  18638488.922   -19813437.50949 -15403765.19448  18638489.197    18638499.905
       243.000         214.000
  20556805.409   -23791188.83149 -18163431.74746  20556805.705    20556819.160
       229.000         181.000
  21431594.514   -17319465.31949 -13462210.20046  21431594.071    21431614.170
       215.000         163.000
  22398772.980    -9046588.39749  -6751548.79945  22398772.888    22398793.273
       209.000         151.000
  18658734.899   -28482519.46549 -22164046.97247  18658734.828    18658745.801
       242.000         210.000
  20373249.812    -1454123.60049  -1123584.61546  20373249.933    20373262.822
       230.000         183.000
 01  3 29 19 49 29.9930000  0  7G 9G24G30G10G 6G 5G 4
  21175319.334    -1815366.75249  -1395515.62246  21175320.341    21175338.480
       225.000         175.000
  18635180.786   -19830821.95249 -15417311.53848  18635181.082    18635191.876
       244.000         214.000
  20531937.011   -23921871.35349 -18265262.17546  20531937.730    20531950.950
       228.000         181.000
  21404391.487   -17462415.55749 -13573599.60046  21404391.665    21404411.982
       217.000         164.000
  22377229.378    -9159798.99649  -6839764.56645  22377229.766    22377250.858
       210.000         151.000
  18643326.597   -28563490.91949 -22227141.59247  18643326.457    18643337.151
       243.000         210.000
  20381996.209    -1408161.09449  -1087769.78746  20381996.320    20382008.847
       230.000         182.000
 01  3 29 19 49 59.9930000  0  7G 9G24G30G10G 6G 5G 4
  21183525.425    -1772243.21349  -1361913.20146  21183525.884    21183544.358
       226.000         176.000
  18631952.215   -19847788.88649 -15430532.54548  18631952.363    18631963.232
       243.000         214.000
  20507105.961   -24052359.89149 -18366941.44446  20507106.392    20507119.174
       228.000         182.000
  21377205.685   -17605275.00649 -13684918.27646  21377205.497    21377226.365
       218.000         165.000
  22355684.886    -9273012.49849  -6927982.59845  22355685.674    22355706.068
       210.000         152.000
  18627995.436   -28644057.76749 -22289920.93947  18627995.288    18628005.727
       243.000         210.000
  20390776.184    -1362023.03049  -1051818.15946  20390776.899    20390788.743
       229.000         182.000
 01  3 29 19 50 29.9930000  0  7G 9G24G30G10G 6G 5G 4
  21191759.191    -1728978.75749  -1328200.97146  21191759.169    21191777.780
       225.000         176.000
  18628800.191   -19864352.55449 -15443439.31948  18628800.335    18628811.006
       245.000         214.000
  20482309.883   -24182664.64949 -18468477.50946  20482310.427    20482322.932
       229.000         182.000
  21350036.238   -17748052.97349 -13796173.45746  21350035.940    21350055.905
       219.000         166.000
  22334138.736    -9386241.73349  -7016212.89945  22334139.014    22334158.131
       212.000         153.000
  18612738.906   -28724231.03349 -22352393.59447  18612738.822    18612749.519
       244.000         211.000
  20399586.368    -1315724.99149  -1015741.87546  20399587.417    20399599.182
       229.000         181.000
 01  3 29 19 50 59.9930000  0  7G 9G24G30G10G 6G 5G 4
  21200017.780    -1685579.11849  -1294383.40146  21200018.383    21200036.624
       224.000         176.000
  18625724.021   -19880517.85749 -15456035.68248  18625724.469    18625735.238
       244.000         214.000
  20457548.715   -24312785.74249 -18569870.46346  20457549.010    20457562.073
       230.000         182.000
  21322881.599   -17890749.17349 -13907364.92846  21322880.616    21322901.426
       219.000         166.000
  22312588.317    -9499489.50649  -7104457.65745  22312588.044    22312608.100
       210.000         155.000
  18597556.904   -28804011.77649 -22414560.39047  18597556.788    18597567.678
       243.000         210.000
  20408426.162    -1269271.94849   -979544.81946  20408426.821    20408438.949
       229.000         182.000
 01  3 29 19 51 29.9930000  0  7G 9G24G30G10G 6G 5G 4
  21208313.452    -1641987.08849  -1260415.91646  21208313.101    21208332.419
       223.000         176.000
  18622734.957   -19896225.91649 -15468275.75048  18622735.051    18622746.051
       244.000         214.000
  20432833.870   -24442660.87749 -18671071.75746  20432834.131    20432847.398
       229.000         182.000
  21295755.190   -18033300.33149 -14018443.38046  21295754.074    21295774.226
       219.000         166.000
  22291045.668    -9612695.83749  -7192670.10745  22291045.728    22291065.721
       214.000         155.000
  18582461.549   -28883338.15849 -22476373.13847  18582461.470    18582472.200
       243.000         211.000
  20417306.587    -1222606.59949   -943182.32746  20417307.730    20417319.612
       229.000         181.000
 01  3 29 19 51 59.9930000  0  7G 9G24G30G10G 6G 5G 4
  21216637.904    -1598242.63649  -1226329.66746  21216637.839    21216657.499
       222.000         175.000
  18619825.330   -19911515.91349 -15480190.05548  18619825.556    18619836.495
       244.000         214.000
  20408159.811   -24572324.18749 -18772107.99046  20408160.268    20408172.517
       230.000         183.000
  21268649.249   -18175739.68449 -14129434.71746  21268648.904    21268669.157
       218.000         166.000
  22269503.416    -9725897.78849  -7280879.14745  22269503.713    22269524.211
       212.000         157.000
  18567446.171   -28962244.93349 -22537858.92047  18567446.030    18567456.881
       243.000         211.000
  20426219.621    -1175768.06049   -906684.87946  20426220.151    20426232.451
       229.000         182.000
 01  3 29 19 52 29.9930000  0  7G 9G24G30G10G 6G 5G 4
  21224986.963    -1554369.32949  -1192143.04746  21224987.546    21225006.289
       226.000         174.000
  18616991.099   -19926410.04249 -15491795.89348  18616991.287    18617002.145
       243.000         214.000
  20383522.434   -24701794.15549 -18872993.56846  20383522.949    20383535.785
       230.000         183.000
  21241561.094   -18318084.76549 -14240352.59646  21241560.445    21241580.376
       217.000         166.000
  22247958.673    -9839115.87549  -7369100.75345  22247959.788    22247978.780
       213.000         158.000
  18552507.094   -29040750.92849 -22599032.40847  18552506.935    18552517.647
       243.000         211.000
  20435161.298    -1128779.67549   -870070.67546  20435161.788    20435173.992
       228.000         181.000
 01  3 29 19 52 59.9930000  0  7G 9G24G30G10G 6G 5G 4
  21233364.108    -1510347.02049  -1157840.27646  21233365.202    21233383.637
       220.000         174.000
  18614236.412   -19940886.44749 -15503076.22548  18614236.553    18614247.549
       244.000         214.000
  20358926.472   -24831044.88449 -18973708.30546  20358927.000    20358939.938
       229.000         183.000
  21214496.474   -18460309.16049 -14351176.42246  21214496.064    21214515.779
       217.000         166.000
  22226415.430    -9952327.09749  -7457317.01245  22226415.717    22226434.809
       214.000         159.000
  18537648.944   -29118831.29249 -22659874.23247  18537648.665    18537659.247
       243.000         211.000
  20444135.473    -1081620.36749   -833323.26846  20444135.905    20444148.153
       227.000         181.000
 01  3 29 19 53 29.9930000  0  7G 9G24G30G10G 6G 5G 4
  21241773.602    -1466159.47949  -1123408.75546  21241773.859    21241793.107
       224.000         174.000
  18611564.313   -19954928.27649 -15514017.92948  18611564.425    18611575.384
       243.000         214.000
  20334376.314   -24960055.01449 -19074235.55946  20334377.522    20334389.883
       229.000         183.000
  21187459.485   -18602390.69649 -14461888.93646  21187458.578    21187478.521
       218.000         167.000
  22204876.215   -10065512.38049  -7545513.06945  22204876.168    22204896.938
       215.000         159.000
  18522875.497   -29196465.38749 -22720368.32347  18522875.416    18522886.176
       243.000         211.000
  20453145.352    -1034273.98649   -796430.10046  20453145.815    20453157.919
       229.000         181.000
 01  3 29 19 53 59.9930000  0  7G 9G24G30G10G 6G 5G 4
  21250205.997    -1421849.18449  -1088881.58246  21250205.671    21250224.891
       224.000         174.000
  18608967.105   -19968576.65549 -15524653.04348  18608967.219    18608978.154
       244.000         213.000
  20309865.423   -25088861.36649 -19174604.02046  20309866.511    20309878.587
       229.000         182.000
  21160442.271   -18744365.40249 -14572518.21046  21160441.971    21160460.885
       217.000         167.000
  22183335.238   -10178711.26749  -7633719.72745  22183335.937    22183355.408
       213.000         159.000
  18508179.961   -29273690.82649 -22780543.97047  18508180.046    18508190.626
       243.000         212.000
  20462182.549     -986782.23249   -759423.64746  20462183.109    20462195.794
       228.000         180.000
 01  3 29 19 54 29.9930000  0  7G 9G24G30G10G 6G 5G 4
  21258661.649    -1377413.32649  -1054256.60646  21258662.164    21258681.499
       225.000         174.000
  18606445.436   -19981828.09249 -15534978.85248  18606445.715    18606456.520
       244.000         213.000
  20285394.658   -25217456.05949 -19274807.56946  20285395.792    20285408.076
       229.000         183.000
  21133447.101   -18886224.07549 -14683057.06746  21133446.605    21133466.099
       219.000         166.000
  22161792.751   -10291918.25649  -7721932.70645  22161792.739    22161812.328
       214.000         159.000
  18493563.634   -29350500.44549 -22840395.60547  18493563.423    18493574.176
       243.000         212.000
  20471248.509     -939142.15749   -722301.62946  20471249.216    20471261.929
       228.000         179.000
 01  3 29 19 54 59.9930000  0  7G 9G24G30G10G 6G 5G 4
  21267147.654    -1332824.71349  -1019512.53746  21267146.667    21267166.244
       225.000         173.000
  18604004.880   -19994653.68049 -15544972.82648  18604005.031    18604015.845
       244.000         213.000
  20260970.585   -25345806.31249 -19374820.63646  20260971.067    20260983.676
       230.000         183.000
  21106479.912   -19027933.55049 -14793479.68346  21106479.217    21106499.321
       218.000         166.000
  22140254.391   -10405103.09049  -7810128.41045  22140254.043    22140273.545
       215.000         158.000
  18479032.395   -29426861.95849 -22899898.06747  18479032.365    18479043.154
       243.000         212.000
  20480347.701     -891325.75349   -685042.21246  20480347.777    20480360.648
       227.000         179.000
 01  3 29 19 55 29.9930000  0  7G 9G24G30G10G 6G 5G 4
  21275652.796    -1288125.59149   -984682.41146  21275654.518    21275672.671
       222.000         173.000
  18601637.393   -20007094.62349 -15554667.08148  18601637.477    18601648.347
       244.000         213.000
  20236585.804   -25473948.87349 -19474671.87046  20236586.653    20236598.699
       230.000         183.000
  21079535.105   -19169529.83149 -14903814.09846  21079534.913    21079554.046
       219.000         168.000
  22118712.466   -10518305.27549  -7898337.64745  22118712.521    22118731.119
       214.000         158.000
  18464579.367   -29502813.10649 -22959080.75547  18464579.349    18464589.982
       243.000         212.000
  20489472.264     -843374.91349   -647678.03846  20489472.998    20489485.842
       227.000         178.000
 01  3 29 19 55 59.9930000  0  7G 9G24G30G10G 6G 5G 4
  21284184.667    -1243294.89749   -949749.74746  21284184.676    21284203.520
       223.000         172.000
  18599347.368   -20019128.81649 -15564044.38948  18599347.753    18599358.502
       244.000         214.000
  20212245.604   -25601857.39349 -19574340.74246  20212246.128    20212258.854
       231.000         184.000
  21052616.975   -19310985.55149 -15014038.97746  21052616.591    21052635.389
       220.000         167.000
  22097171.074   -10631500.75749  -7986541.65745  22097172.014    22097190.653
       213.000         156.000
  18450209.374   -29578328.31649 -23017923.75547  18450209.263    18450219.921
       243.000         212.000
  20498627.292     -795268.04249   -610192.27946  20498627.119    20498640.357
       227.000         179.000
 01  3 29 19 56 29.9930000  0  7G 9G24G30G10G 6G 5G 4
  21292741.471    -1198332.21649   -914714.22446  21292740.827    21292760.697
       225.000         172.000
  18597134.988   -20030754.69149 -15573103.53048  18597135.307    18597146.111
       244.000         213.000
  20187950.850   -25729525.94149 -19673822.62546  20187951.673    20187963.835
       230.000         184.000
  21025726.419   -19452294.26549 -15124149.31446  21025726.216    21025745.139
       220.000         169.000
  22075632.650   -10744686.17649  -8074737.84745  22075633.241    22075653.047
       213.000         155.000
  18435923.370   -29653402.47549 -23076423.08047  18435923.022    18435933.852
       243.000         212.000
  20507811.711     -747004.13349   -572584.17246  20507811.420    20507824.429
       227.000         179.000
 01  3 29 19 56 59.9930000  0  7G 9G24G30G10G 6G 5G 4
  21301320.029    -1153250.82649   -879586.22146  21301319.123    21301339.524
       224.000         172.000
  18594998.207   -20041984.13949 -15581853.76948  18594998.254    18595009.300
       244.000         213.000
  20163700.290   -25856961.99449 -19773123.34846  20163700.897    20163713.769
       231.000         184.000
  20998863.124   -19593462.60549 -15234150.28246  20998862.498    20998881.285
       220.000         169.000
  22054094.713   -10857871.87949  -8162934.26145  22054094.325    22054113.517
       211.000         156.000
  18421719.422   -29728044.07749 -23134585.35147  18421719.278    18421729.876
       243.000         212.000
  20517023.738     -698595.86449   -534863.55846  20517024.080    20517037.252
       227.000         178.000
 01  3 29 19 57 29.9930000  0  7G 9G24G30G10G 6G 5G 4
  21309922.027    -1108047.90549   -844363.50946  21309922.052    21309941.221
       221.000         171.000
  18592937.487   -20052813.72649 -15590292.43648  18592937.771    18592948.416
       244.000         213.000
  20139495.651   -25984157.53249 -19872236.66546  20139496.541    20139509.131
       231.000         185.000
  20972027.730   -19734481.74749 -15344034.98746  20972027.804    20972046.203
       222.000         169.000
  22032556.053   -10971052.29449  -8251126.54745  22032556.216    22032575.030
       211.000         153.000
  18407599.127   -29802245.78749 -23192404.85447  18407598.907    18407609.614
       243.000         212.000
  20526263.529     -650040.13349   -497028.05946  20526263.628    20526276.010
       228.000         178.000
 01  3 29 19 57 59.9930000  0  7G 9G24G30G10G 6G 5G 4
  21318549.037    -1062711.69849   -809036.95246  21318549.370    21318569.745
       219.000         170.000
  18590955.232   -20063230.43849 -15598409.37148  18590955.424    18590966.211
       244.000         213.000
  20115340.217   -26111095.68449 -19971149.41846  20115340.687    20115352.741
       231.000         186.000
  20945223.663   -19875333.53449 -15453789.27446  20945223.037    20945242.849
       222.000         169.000
  22011022.123   -11084212.79349  -8339303.31645  22011021.739    22011042.230
       210.000         152.000
  18393565.883   -29875991.36249 -23249868.91847  18393565.720    18393576.252
       243.000         212.000
  20535533.667     -601324.61849   -459068.03246  20535534.558    20535547.096
       227.000         177.000
 01  3 29 19 58 29.9930000  0  7G 9G24G30G10G 6G 5G 4
  21327192.243    -1017292.74149   -773645.90346  21327193.343    21327212.845
       221.000         171.000
  18589041.955   -20073284.22049 -15606243.49948  18589042.257    18589053.075
       244.000         213.000
  20091224.857   -26237821.61049 -20069896.79246  20091225.544    20091238.108
       231.000         185.000
  20918444.302   -20016062.67649 -15563447.99846  20918443.541    20918462.312
       223.000         169.000
  21989482.667   -11197401.26349  -8427501.86045  21989483.206    21989502.651
       207.000         150.000
  18379610.732   -29949326.76849 -23307013.37247  18379610.668    18379621.348
       243.000         212.000
  20544824.943     -552499.49249   -421022.58446  20544825.858    20544837.786
       226.000         176.000
 01  3 29 19 58 59.9930000  0  7G 9G24G30G10G 6G 5G 4
  21335847.594     -971811.47549   -738206.29046  21335847.141    21335867.616
       220.000         171.000
  18587194.527   -20082993.60549 -15613809.26448  18587194.673    18587205.556
       244.000         213.000
  20067147.611   -26364350.01649 -20168490.25646  20067147.994    20067160.238
       231.000         186.000
  20891684.430   -20156683.11249 -15673022.01146  20891684.156    20891701.874
       223.000         170.000
  21967935.467   -11310634.92749  -8515735.62245  21967935.278    21967953.174
       211.000         150.000
  18365730.480   -30022267.64949 -23363850.40247  18365730.283    18365740.961
       243.000         212.000
  20554133.131     -503584.40949   -382907.05946  20554133.361    20554146.887
       227.000         176.000
 01  3 29 19 59 29.9930000  0  7G 9G24G30G10G 6G 5G 4
  21344520.736     -926235.41549   -702692.81746  21344521.726    21344541.571
       223.000         170.000
  18585418.579   -20092325.28849 -15621080.72748  18585418.908    18585429.763
       244.000         213.000
  20043114.784   -26490642.92449 -20266900.22046  20043115.220    20043127.239
       232.000         186.000
  20864953.228   -20297155.84149 -15782480.94246  20864952.244    20864970.920
       223.000         170.000
  21946385.382   -11423878.45249  -8603977.07845  21946385.077    21946404.523
       209.000         150.000
  18351932.295   -30094777.02249 -23420351.19747  18351932.185    18351942.897
       243.000         212.000
  20563464.733     -454546.32949   -344695.67746  20563465.251    20563477.988
       225.000         176.000
 01  3 29 19 59 59.9930000  0  7G 9G24G30G10G 6G 5G 4
  21353209.443     -880579.09149   -667116.79546  21353209.446    21353228.887
       222.000         171.000
  18583712.284   -20101292.78849 -15628068.40948  18583712.600    18583723.340
       244.000         213.000
  20019124.896   -26616709.11449 -20365133.52346  20019125.597    20019137.964
       233.000         187.000
  20838248.168   -20437489.43149 -15891831.45346  20838247.788    20838266.148
       222.000         171.000
  21924831.459   -11537143.44749  -8692235.25245  21924831.685    21924850.994
       210.000         151.000
  18338214.410   -30166864.88049 -23476523.53747  18338214.315    18338225.044
       243.000         212.000
  20572817.515     -405399.25349   -306399.37746  20572817.942    20572830.488
       226.000         176.000
 01  3 29 20  0 29.9930000  0  7G 9G24G30G10G 6G 5G 4
  21361920.881     -834799.50649   -631444.73546  21361921.152    21361941.397
       220.000         170.000
  18582083.572   -20109852.20149 -15634738.10448  18582083.719    18582094.738
       244.000         213.000
  19995187.651   -26742500.40949 -20463152.62547  19995188.307    19995199.803
       233.000         188.000
  20811579.060   -20577634.90549 -16001035.37346  20811578.992    20811597.655
       223.000         172.000
  21903282.814   -11650384.05749  -8780474.43845  21903282.732    21903302.212
       212.000         153.000
  18324585.813   -30238483.73749 -23532330.42548  18324585.572    18324596.447
       243.000         213.000
  20582198.648     -356099.65249   -267984.22546  20582199.080    20582212.016
       226.000         175.000
 01  3 29 20  0 59.9930000  0  7G 9G24G30G10G 6G 5G 4
  21370647.980     -788938.55849   -595709.27046  21370647.859    21370668.277
       222.000         169.000
  18580524.627   -20118044.17849 -15641121.48848  18580524.881    18580535.763
       244.000         213.000
  19971295.614   -26868053.19649 -20560985.87547  19971296.055    19971308.672
       233.000         188.000
  20784938.709   -20717627.26649 -16110119.98246  20784939.151    20784957.780
       222.000         172.000
  21881730.578   -11763639.16749  -8868724.94345  21881731.109    21881748.970
       211.000         152.000
  18311039.385   -30309670.86949 -23587800.90847  18311039.216    18311049.975
       243.000         212.000
  20591601.467     -306688.76449   -229482.35546  20591601.920    20591615.044
       226.000         175.000
 01  3 29 20  1 29.9930000  0  7G 9G24G30G10G 6G 5G 4
  21379391.354     -742997.56449   -559911.42746  21379390.940    21379411.714
       222.000         170.000
  18579035.634   -20125868.96749 -15647218.75148  18579035.924    18579046.732
       244.000         213.000
  19947449.885   -26993363.46749 -20658630.14947  19947450.585    19947462.623
       233.000         189.000
  20758329.341   -20857462.05249 -16219081.80246  20758328.773    20758347.164
       223.000         172.000
  21860176.405   -11876907.02449  -8956985.35245  21860176.463    21860195.757
       213.000         153.000
  18297575.574   -30380423.15449 -23642932.54948  18297575.465    18297586.165
       243.000         213.000
  20601025.363     -257167.42049   -190894.41146  20601026.167    20601039.257
       224.000         175.000
 01  3 29 20  1 59.9930000  0  7G 9G24G30G10G 6G 5G 4
  21388146.175     -696987.81449   -524060.00946  21388146.548    21388166.694
       222.000         168.000
  18577614.514   -20133337.23749 -15653038.20348  18577614.656    18577625.593
       244.000         213.000
  19923648.971   -27118437.01849 -20756089.96147  19923649.718    19923662.211
       233.000         189.000
  20731748.276   -20997144.08149 -16327924.58946  20731747.487    20731765.431
       222.000         172.000
  21838618.194   -11990196.27449  -9045262.43245  21838618.291    21838636.645
       215.000         155.000
  18284193.268   -30450747.52249 -23697730.74748  18284193.195    18284203.940
       243.000         213.000
  20610467.949     -207546.49549   -152228.87846  20610468.786    20610481.500
       225.000         176.000
 01  3 29 20  2 29.9930000  0  7G 9G24G30G10G 6G 5G 4
  21396911.168     -650931.28049   -488172.12946  21396910.833    21396931.546
       220.000         170.000
  18576257.045   -20140470.22949 -15658596.40448  18576257.310    18576268.159
       244.000         213.000
  19899890.121   -27243290.74149 -20853378.48147  19899890.628    19899902.780
       233.000         189.000
  20705193.605   -21136689.32449 -16436660.79946  20705192.870    20705211.086
       223.000         172.000
  21817052.033   -12103526.18249  -9133571.20545  21817052.410    21817070.951
       215.000         157.000
  18270889.076   -30520661.83649 -23752209.42548  18270889.068    18270899.794
       243.000         213.000
  20619925.166     -157847.48549   -113502.49846  20619925.457    20619939.406
       224.000         175.000
 01  3 29 20  2 59.9930000  0  7G 9G24G30G10G 6G 5G 4
  21405688.728     -604805.06049   -452229.96046  21405688.818    21405709.518
       218.000         166.000
  18574968.125   -20147243.60449 -15663874.38248  18574968.416    18574979.312
       244.000         213.000
  19876178.470   -27367896.12349 -20950473.49447  19876178.925    19876191.235
       233.000         189.000
  20678670.260   -21276068.73549 -16545267.78546  20678669.454    20678687.919
       220.000         172.000
  21795482.722   -12216870.88949  -9221891.50945  21795483.283    21795501.630
       215.000         157.000
  18257668.316   -30590138.28249 -23806346.91148  18257668.280    18257678.796
       244.000         213.000
  20629402.308     -108046.77349    -74696.88146  20629402.624    20629415.408
       225.000         175.000
 01  3 29 20  3 29.9930000  0  7G 9G24G30G10G 6G 5G 4
  21414473.761     -558642.06949   -416259.14246  21414474.634    21414494.376
       223.000         167.000
  18573741.751   -20153689.24049 -15668896.97848  18573741.899    18573752.704
       244.000         213.000
  19852508.966   -27492280.35549 -21047396.17847  19852509.617    19852521.752
       233.000         189.000
  20652173.401   -21415308.83449 -16653766.21446  20652173.049    20652190.980
       221.000         173.000
  21773906.151   -12330260.04349  -9310246.45545  21773905.785    21773924.118
       216.000         158.000
  18244525.227   -30659205.34949 -23860165.39748  18244525.200    18244535.880
       244.000         213.000
  20638892.575      -58176.51749    -35837.07446  20638893.254    20638905.882
       224.000         175.000
 01  3 29 20  3 59.9930000  0  7G 9G24G30G10G 6G 5G 4
  21423265.380     -512442.28049   -380259.65946  21423265.523    21423285.896
       220.000         168.000
  18572577.616   -20159806.21049 -15673663.47448  18572577.856    18572589.005
       244.000         213.000
  19828882.155   -27616438.25049 -21144142.49847  19828883.111    19828895.275
       233.000         189.000
  20625704.428   -21554403.40449 -16762151.25646  20625703.773    20625721.840
       221.000         174.000
  21752320.361   -12443690.85349  -9398633.84845  21752320.745    21752338.890
       216.000         159.000
  18231460.803   -30727858.87549 -23913661.65048  18231460.576    18231471.289
       243.000         213.000
  20648395.483       -8236.20049      3077.33846  20648396.179    20648409.755
       224.000         173.000
 01  3 29 20  4 29.9920000  0  7G 9G24G30G10G 6G 5G 4
  21432056.612     -466245.38049   -344262.42946  21432056.865    21432078.042
       223.000         167.000
  18571469.368   -20165631.50549 -15678202.69548  18571469.508    18571480.395
       244.000         213.000
  19805293.553   -27740397.93649 -21240734.38447  19805293.946    19805306.190
       234.000         189.000
  20599258.111   -21693379.56949 -16870444.02846  20599257.240    20599275.328
       222.000         172.000
  21730721.074   -12557194.48649  -9487077.99445  21730721.236    21730739.626
       217.000         160.000
  18218469.258   -30796129.98049 -23966859.91948  18218469.136    18218479.861
       243.000         213.000
  20657905.098       41734.96149     42015.76546  20657906.053    20657918.883
       224.000         173.000
 01  3 29 20  4 59.9920000  0  7G 9G24G30G10G 6G 5G 4
  21440858.612     -419990.41649   -308219.95146  21440858.936    21440879.689
       221.000         167.000
  18570427.312   -20171107.09149 -15682469.41548  18570427.418    18570438.352
       244.000         213.000
  19781752.959   -27864104.87349 -21337129.32347  19781753.669    19781765.284
       235.000         190.000
  20572844.449   -21832182.48549 -16978601.82746  20572844.030    20572861.380
       223.000         174.000
  21709117.918   -12670717.96749  -9575537.62045  21709118.939    21709136.552
       216.000         160.000
  18205561.442   -30863961.29849 -24019715.49348  18205561.411    18205572.156
       244.000         214.000
  20667431.778       91798.77949     81026.40346  20667433.343    20667445.679
       222.000         173.000
 01  3 29 20  5 29.9920000  0  7G 9G24G30G10G 6G 5G 4
  21449644.334     -373821.84549   -272244.79546  21449644.862    21449666.198
       219.000         167.000
  18569424.977   -20176374.38849 -15686573.83148  18569425.040    18569436.111
       244.000         213.000
  19758234.818   -27987692.20549 -21433431.06047  19758235.439    19758247.572
       234.000         190.000
  20546439.073   -21970944.49949 -17086727.74846  20546438.334    20546456.253
       224.000         175.000
  21687485.132   -12784397.56449  -9664118.88445  21687485.151    21687503.165
       217.000         162.000
  18192711.399   -30931488.96149 -24072334.45448  18192711.253    18192722.002
       244.000         214.000
  20676949.242      141811.20749    119996.99646  20676949.319    20676963.001
       223.000         172.000
 01  3 29 20  5 59.9920000  0  7G 9G24G30G10G 6G 5G 4
  21458425.465     -327681.96249   -236291.99746  21458424.900    21458446.410
       220.000         166.000
  18568473.372   -20181374.69549 -15690470.20448  18568473.652    18568484.632
       244.000         213.000
  19734751.645   -28111096.73649 -21529590.35447  19734752.506    19734763.990
       234.000         190.000
  20520052.687   -22109601.71149 -17194772.00646  20520052.316    20520069.722
       223.000         175.000
  21665834.798   -12898172.52749  -9752774.47346  21665834.975    21665852.575
       217.000         163.000
  18179930.885   -30998651.04849 -24124668.55248  18179930.831    18179941.375
       244.000         214.000
  20686467.903      191830.72949    158973.12846  20686468.028    20686481.607
       222.000         172.000
 01  3 29 20  6 29.9920000  0  7G 9G24G30G10G 6G 5G 4
  21467204.850     -281544.69349   -200341.23446  21467205.078    21467226.597
       220.000         166.000
  18567577.957   -20186081.06949 -15694137.53347  18567578.086    18567588.998
       244.000         212.000
  19711309.308   -28234286.90949 -21625582.61147  19711310.035    19711321.957
       235.000         191.000
  20493693.273   -22248121.57249 -17302709.24846  20493693.676    20493710.009
       223.000         175.000
  21644171.164   -13012013.83349  -9841481.77346  21644171.579    21644190.171
       217.000         163.000
  18167225.720   -31065417.16149 -24176694.10348  18167225.603    18167236.203
       244.000         214.000
  20695992.507      241883.84949    197975.42146  20695992.795    20696006.509
       222.000         171.000
 01  3 29 20  6 59.9920000  0  7G 9G24G30G10G 6G 5G 4
  21475985.741     -235403.51149   -164387.43246  21475986.112    21476007.151
       221.000         166.000
  18566739.690   -20190485.92549 -15697569.91647  18566739.818    18566750.867
       244.000         212.000
  19687910.114   -28357250.98649 -21721398.69447  19687910.676    19687922.335
       235.000         191.000
  20467362.447   -22386491.37049 -17410529.56746  20467361.659    20467379.579
       224.000         177.000
  21622496.668   -13125912.08649  -9930233.45046  21622497.219    21622515.063
       217.000         163.000
  18154597.984   -31131776.36649 -24228402.58548  18154597.935    18154608.636
       244.000         214.000
  20705524.880      291977.78549    237009.52846  20705524.872    20705538.704
       222.000         169.000
 01  3 29 20  7 29.9920000  0  7G 9G24G30G10G 6G 5G 4
  21484777.286     -189205.89249   -128389.65246  21484777.246    21484797.891
       222.000         166.000
  18565968.726   -20194536.52449 -15700726.25547  18565969.022    18565979.922
       244.000         212.000
  19664564.690   -28479930.96149 -21816993.38947  19664565.392    19664577.394
       234.000         191.000
  20441070.654   -22524652.78249 -17518187.51346  20441070.037    20441087.712
       224.000         176.000
  21600822.343   -13239811.89649 -10018986.32446  21600822.500    21600840.106
       217.000         164.000
  18142058.480   -31197671.81349 -24279749.70248  18142058.459    18142069.043
       244.000         214.000
  20715075.798      342165.62549    276116.79846  20715075.873    20715089.409
       223.000         170.000
 01  3 29 20  7 59.9920000  0  7G 9G24G30G10G 6G 5G 4
  21493567.569     -143012.55849    -92395.19846  21493567.574    21493589.358
       220.000         167.000
  18565254.333   -20198292.32549 -15703652.87947  18565254.241    18565265.384
       244.000         212.000
  19641262.849   -28602382.13649 -21912409.79947  19641263.606    19641275.711
       235.000         192.000
  20414808.484   -22662660.05949 -17625725.36346  20414807.891    20414825.083
       225.000         177.000
  21579136.963   -13353770.97449 -10107785.39446  21579137.561    21579153.656
       215.000         163.000
  18129596.505   -31263159.89449 -24330779.38948  18129596.411    18129607.116
       244.000         214.000
  20724632.724      392387.40349    315250.50746  20724633.613    20724646.034
       223.000         171.000
 01  3 29 20  8 29.9920000  0  7G 9G24G30G10G 6G 5G 4
  21502357.656      -96821.50349    -56402.53146  21502356.910    21502378.144
       216.000         165.000
  18564596.074   -20201750.46849 -15706347.56047  18564596.228    18564607.564
       243.000         212.000
  19618006.164   -28724597.01749 -22007642.07947  19618006.776    19618018.593
       235.000         192.000
  20388577.250   -22800505.21349 -17733136.88646  20388576.437    20388593.797
       224.000         176.000
  21557440.139   -13467784.64549 -10196627.00546  21557440.754    21557458.394
       214.000         163.000
  18117213.119   -31328234.70749 -24381487.05048  18117213.078    18117223.785
       244.000         214.000
  20734196.873      442645.53549    354412.55946  20734197.104    20734210.341
       224.000         169.000
 01  3 29 20  8 59.9920000  0  7G 9G24G30G10G 6G 5G 4
  21511144.744      -50644.90149    -20421.14046  21511144.749    21511166.206
       215.000         164.000
  18563992.708   -20204922.01749 -15708818.92447  18563992.778    18564003.698
       244.000         212.000
  19594793.045   -28846582.38449 -22102695.52647  19594793.612    19594805.534
       236.000         192.000
  20362375.650   -22938194.04149 -17840426.61046  20362375.552    20362393.093
       225.000         177.000
  21535731.892   -13581861.91749 -10285518.17145  21535731.975    21535749.949
       214.000         162.000
  18104907.093   -31392903.98549 -24431878.70748  18104906.802    18104917.680
       244.000         214.000
  20743765.451      492928.66649    393594.09046  20743766.088    20743779.437
       224.000         170.000
 01  3 29 20  9 29.9920000  0  7G 9G24G30G10G 6G 5G 4
  21519936.582       -4448.62149     15575.59046  21519936.565    21519957.890
       219.000         166.000
  18563450.220   -20207772.39749 -15711040.02747  18563450.503    18563461.488
       243.000         212.000
  19571630.956   -28968298.65349 -22197539.28647  19571631.674    19571643.478
       236.000         193.000
  20336211.715   -23075686.01749 -17947562.94346  20336210.979    20336228.246
       226.000         177.000
  21514017.897   -13695965.86849 -10374430.13445  21514018.453    21514037.349
       213.000         162.000
  18092685.401   -31457129.35049 -24481924.46448  18092685.311    18092695.959
       244.000         214.000
  20753345.413      543271.52049    432822.15146  20753346.188    20753358.966
       224.000         170.000
 01  3 29 20  9 59.9920000  0  7G 9G24G30G10G 6G 5G 4
  21528736.140       41794.20249     51608.59146  21528736.620    21528757.934
       218.000         167.000
  18562974.315   -20210273.70149 -15712989.12447  18562974.341    18562985.577
       244.000         212.000
  19548526.828   -29089713.56949 -22292148.22347  19548526.927    19548539.180
       236.000         193.000
  20310091.248   -23212948.64449 -18054520.56946  20310090.553    20310107.739
       226.000         177.000
  21492305.166   -13810066.68149 -10463339.64545  21492304.900    21492323.587
       211.000         161.000
  18080554.093   -31520879.80849 -24531600.15848  18080554.026    18080564.741
       245.000         214.000
  20762941.971      593701.58849    472118.18246  20762941.797    20762956.099
       223.000         170.000
 01  3 29 20 10 29.9920000  0  7G 9G24G30G10G 6G 5G 4
  21537543.463       88072.69149     87669.37946  21537542.615    21537565.162
       219.000         165.000
  18562562.857   -20212436.14849 -15714674.18147  18562562.963    18562574.056
       244.000         212.000
  19525478.442   -29210833.07349 -22386526.97647  19525478.655    19525490.793
       236.000         194.000
  20284013.705   -23349986.44749 -18161303.01946  20284013.133    20284030.192
       226.000         178.000
  21470591.373   -13924172.33549 -10552252.92345  21470591.009    21470609.773
       211.000         160.000
  18068511.911   -31584162.15649 -24580911.09848  18068511.885    18068522.607
       244.000         215.000
  20772552.978      644208.67049    511474.22746  20772553.416    20772567.277
       221.000         168.000
 01  3 29 20 10 59.9920000  0  7G 9G24G30G10G 6G 5G 4
  21546346.505      134335.28049    123717.76346  21546347.025    21546369.727
       219.000         165.000
  18562206.244   -20214310.10249 -15716134.43747  18562206.437    18562217.583
       243.000         211.000
  19502477.498   -29331702.72249 -22480711.03447  19502478.082    19502490.011
       236.000         193.000
  20257970.219   -23486844.70149 -18267945.54646  20257969.278    20257986.661
       226.000         178.000
  21448867.489   -14038331.54349 -10641207.92245  21448867.604    21448885.473
       212.000         160.000
  18056549.803   -31647023.83249 -24629894.24048  18056549.685    18056560.360
       244.000         215.000
  20782169.727      694741.68249    550850.46346  20782169.863    20782183.663
       223.000         167.000
 01  3 29 20 11 29.9920000  0  7G 9G24G30G10G 6G 5G 4
  21555154.957      180621.00149    159784.18846  21555155.061    21555176.800
       219.000         165.000
  18561912.157   -20215856.07749 -15717339.12547  18561912.362    18561923.173
       243.000         212.000
  19479532.447   -29452278.35049 -22574665.98847  19479533.322    19479545.048
       236.000         193.000
  20231969.503   -23623478.21349 -18374412.95346  20231969.122    20231985.927
       225.000         178.000
  21427141.939   -14152502.03349 -10730171.73545  21427141.843    21427159.140
       213.000         161.000
  18044675.806   -31709421.50449 -24678515.81948  18044675.680    18044686.484
       244.000         215.000
  20791798.388      745340.60649    590278.05946  20791798.656    20791812.929
       223.000         168.000
 01  3 29 20 11 59.9920000  0  7G 9G24G30G10G 6G 5G 4
  21563969.158      226935.35149    195872.89846  21563969.132    21563990.920
       219.000         164.000
  18561681.476   -20217067.68949 -15718283.27247  18561681.719    18561692.853
       243.000         211.000
  19456645.639   -29572548.95949 -22668383.26347  19456646.473    19456658.179
       237.000         193.000
  20206013.753   -23759875.38549 -18480696.20546  20206013.118    20206029.514
       226.000         178.000
  21405414.254   -14266675.39449 -10819137.76345  21405415.063    21405432.876
       211.000         160.000
  18032892.090   -31771345.69149 -24726768.45748  18032891.961    18032902.607
       244.000         215.000
  20801440.902      796011.63049    629761.84646  20801441.430    20801454.948
       223.000         168.000
 01  3 29 20 12 29.9920000  0  7G 9G24G30G10G 6G 5G 4
  21572764.857      273160.56049    231892.14646  21572764.882    21572787.154
       218.000         163.000
  18561492.438   -20218061.85349 -15719057.97847  18561492.644    18561503.813
       243.000         211.000
  19433795.560   -29692627.07549 -22761950.54547  19433796.139    19433807.844
       237.000         193.000
  20180081.892   -23896147.53749 -18586882.02446  20180080.651    20180097.505
       226.000         178.000
  21383666.562   -14380966.52649 -10908195.58245  21383666.806    21383684.441
       213.000         160.000
  18021176.872   -31832909.90849 -24774740.59648  18021176.666    18021187.560
       245.000         215.000
  20811074.432      846637.47849    669210.41246  20811075.252    20811088.767
       222.000         167.000
 01  3 29 20 12 59.9920000  0  7G 9G24G30G10G 6G 5G 4
  21581569.102      319424.44249    267941.51346  21581569.377    21581592.145
       219.000         164.000
  18561369.216   -20218709.79249 -15719562.90247  18561369.220    18561380.405
       243.000         211.000
  19411007.302   -29812379.65749 -22855264.17647  19411007.918    19411019.606
       237.000         195.000
  20154198.963   -24032161.34949 -18692866.54646  20154198.382    20154214.898
       226.000         179.000
  21361919.697   -14495244.99649 -10997243.52145  21361919.358    21361937.543
       213.000         160.000
  18009555.123   -31893982.65649 -24822329.77848  18009555.003    18009565.745
       244.000         215.000
  20820724.519      897346.72049    708723.98046  20820724.716    20820738.491
       222.000         167.000
 01  3 29 20 13 29.9920000  0  7G 9G24G30G10G 6G 5G 4
  21590374.634      365694.79149    303995.91946  21590375.227    21590397.871
       220.000         164.000
  18561305.754   -20219043.28349 -15719822.80647  18561305.876    18561317.058
       244.000         211.000
  19388275.997   -29931833.27949 -22948344.85247  19388276.448    19388288.559
       237.000         194.000
  20128360.461   -24167942.63449 -18798669.88546  20128360.176    20128376.651
       225.000         178.000
  21340169.840   -14609539.87949 -11086304.27145  21340169.899    21340186.894
       215.000         160.000
  17998021.486   -31954591.96049 -24869557.83348  17998021.369    17998032.335
       244.000         215.000
  20830383.972      948107.88549    748277.99346  20830384.454    20830398.063
       223.000         166.000
 01  3 29 20 13 59.9920000  0  7G 9G24G30G10G 6G 5G 4
  21599173.184      411930.10949    340022.99546  21599173.387    21599196.191
       217.000         163.000
  18561294.255   -20219103.05749 -15719869.43547  18561294.673    18561305.942
       244.000         211.000
  19365595.057   -30051024.44349 -23041221.02347  19365595.562    19365607.093
       238.000         195.000
  20102559.492   -24303526.68249 -18904319.52646  20102559.079    20102575.228
       226.000         178.000
  21318409.587   -14723889.83649 -11175407.93345  21318409.738    21318426.570
       214.000         161.000
  17986569.159   -32014775.21449 -24916453.90548  17986568.981    17986579.847
       246.000         215.000
  20840045.515      998879.89849    787840.44246  20840045.129    20840060.397
       222.000         164.000
 01  3 29 20 14 29.9920000  0  7G 9G24G30G10G 6G 5G 4
  21607972.383      458169.00149    376052.85846  21607971.534    21607996.455
       217.000         163.000
  18561342.783   -20218849.32949 -15719671.76747  18561342.851    18561353.993
       244.000         211.000
  19342971.989   -30169908.87549 -23133858.18047  19342972.360    19342984.123
       237.000         195.000
  20076804.594   -24438868.74249 -19009780.59846  20076803.821    20076820.629
       226.000         180.000
  21296646.976   -14838253.19349 -11264522.04545  21296646.558    21296664.480
       215.000         160.000
  17975205.937   -32074489.71549 -24962984.71348  17975205.802    17975216.621
       247.000         215.000
  20849716.768     1049702.34649    827442.18946  20849717.172    20849731.851
       222.000         165.000
 01  3 29 20 14 59.9920000  0  7G 9G24G30G10G 6G 5G 4
  21616772.273      504411.65749    412085.64845  21616771.913    21616797.421
       219.000         162.000
  18561450.746   -20218281.32149 -15719229.20847  18561450.850    18561462.144
       243.000         211.000
  19320408.181   -30288481.01149 -23226251.98447  19320408.707    19320420.968
       237.000         195.000
  20051096.824   -24573962.76649 -19115048.41146  20051095.759    20051112.988
       226.000         180.000
  21274882.061   -14952626.87249 -11353644.19945  21274882.729    21274899.588
       217.000         161.000
  17963932.578   -32133731.35149 -25009147.04748  17963932.477    17963943.053
       247.000         215.000
  20859397.881     1100575.97949    867083.82846  20859398.839    20859412.899
       221.000         164.000
 01  3 29 20 15 29.9920000  0  7G 9G24G30G10G 6G 5G 4
  21625571.863      550651.68049    448116.41345  21625571.457    21625596.834
       216.000         162.000
  18561617.697   -20217404.80949 -15718546.25147  18561617.574    18561628.814
       243.000         211.000
  19297903.857   -30406741.99249 -23318403.32747  19297904.250    19297916.309
       238.000         195.000
  20025435.995   -24708809.15549 -19220123.24046  20025434.963    20025452.131
       226.000         180.000
  21253114.608   -15067014.32049 -11442777.08045  21253114.352    21253132.280
       216.000         162.000
  17952748.748   -32192502.53549 -25054942.79948  17952748.737    17952759.366
       246.000         215.000
  20869087.677     1151495.04549    906760.87946  20869087.896    20869102.250
       220.000         164.000
 01  3 29 20 15 59.9920000  0  7G 9G24G30G10G 6G 5G 4
  21634375.138      596912.85249    484163.61645  21634377.400    21634400.920
       219.000         161.000
  18561847.884   -20216195.41949 -15717603.90447  18561847.999    18561859.048
       243.000         211.000
  19275464.184   -30524662.81349 -23410289.61047  19275464.761    19275476.345
       238.000         196.000
  19999828.618   -24843377.89649 -19324981.73646  19999828.033    19999844.514
       226.000         181.000
  21231349.440   -15181388.86049 -11531899.88245  21231349.950    21231367.366
       217.000         161.000
  17941659.824   -32250775.75949 -25100350.52548  17941659.770    17941670.449
       246.000         215.000
  20878790.639     1202483.98549    946492.37246  20878790.824    20878804.824
       219.000         164.000
 01  3 29 20 16 29.9920000  0  7G 9G24G30G10G 6G 5G 4
  21643184.927      643203.36249    520233.70845  21643185.362    21643209.348
       214.000         160.000
  18562143.161   -20214643.93049 -15716394.99047  18562143.236    18562154.453
       244.000         211.000
  19253091.759   -30642229.82449 -23501900.20647  19253092.519    19253104.319
       238.000         196.000
  19974276.175   -24977654.17249 -19429612.33446  19974275.635    19974291.972
       227.000         181.000
  21209589.775   -15295739.22949 -11621003.86246  21209590.696    21209606.855
       217.000         164.000
  17930667.987   -32308538.68949 -25145360.62448  17930667.969    17930678.611
       247.000         215.000
  20888508.878     1253551.98249    986285.48346  20888508.703    20888523.757
       219.000         164.000
 01  3 29 20 16 59.9920000  0  7G 9G24G30G10G 6G 5G 4
  21651992.156      689483.50849    556295.69245  21651992.831    21652016.089
       218.000         159.000
  18562495.968   -20212789.93249 -15714950.35547  18562496.052    18562507.352
       244.000         210.000
  19230780.524   -30759477.61849 -23593262.05747  19230780.949    19230792.373
       239.000         196.000
  19948773.189   -25111672.25249 -19534041.75146  19948772.990    19948789.291
       227.000         182.000
  21187826.225   -15410102.48149 -11710117.88646  21187826.644    21187843.512
       217.000         163.000
  17919766.176   -32365827.43949 -25190001.23048  17919765.938    17919776.934
       247.000         215.000
  20898233.876     1304659.90549   1026109.68846  20898235.386    20898247.991
       217.000         165.000
 01  3 29 20 17 29.9920000  0  7G 9G24G30G10G 6G 5G 4
  21660794.679      735739.28049    592338.71045  21660793.887    21660817.504
       213.000         159.000
  18562903.938   -20210646.45149 -15713280.15147  18562904.096    18562915.260
       243.000         210.000
  19208528.007   -30876414.64749 -23684381.75847  19208528.762    19208540.360
       239.000         196.000
  19923317.887   -25245440.16449 -19638276.23746  19923317.427    19923333.716
       228.000         183.000
  21166059.511   -15524489.52849 -11799250.45446  21166059.730    21166077.493
       217.000         163.000
  17908952.931   -32422652.05549 -25234280.17448  17908952.897    17908963.582
       247.000         215.000
  20907964.854     1355794.38749   1065954.58346  20907965.437    20907979.076
       218.000         165.000
 01  3 29 20 17 59.9920000  0  7G 9G24G30G10G 6G 5G 4
  21669595.747      781989.08349    628377.04345  21669596.108    21669619.275
       216.000         160.000
  18563370.563   -20208193.67349 -15711368.93347  18563370.777    18563381.850
       243.000         210.000
  19186339.450   -30993017.13349 -23775240.76947  19186339.783    19186351.268
       238.000         197.000
  19897915.097   -25378933.21049 -19742296.53646  19897914.618    19897930.528
       228.000         184.000
  21144291.523   -15638878.91149 -11888384.83146  21144291.599    21144308.714
       218.000         163.000
  17898232.135   -32478990.35049 -25278180.16248  17898232.045    17898242.816
       247.000         216.000
  20917704.720     1406974.62949   1105835.13646  20917704.278    20917719.101
       218.000         165.000
 01  3 29 20 18 29.9920000  0  7G 9G24G30G10G 6G 5G 4
  21678399.579      828252.79149    664426.23545  21678399.039    21678423.698
       213.000         155.000
  18563900.015   -20205411.47349 -15709201.02847  18563900.262    18563911.501
       243.000         210.000
  19164218.967   -31109260.08649 -23865819.63247  19164219.510    19164231.053
       238.000         197.000
  19872568.897   -25512125.53349 -19846082.51446  19872568.565    19872584.581
       228.000         183.000
  21122527.984   -15753248.06849 -11977503.45045  21122527.485    21122544.700
       218.000         162.000
  17887608.388   -32534818.56949 -25321682.69048  17887608.305    17887618.946
       246.000         215.000
  20927456.800     1458221.19249   1145767.36646  20927457.099    20927471.243
       219.000         165.000
 01  3 29 20 18 59.9920000  0  7G 9G24G30G10G 6G 5G 4
  21687211.852      874557.65249    700507.46845  21687212.027    21687235.037
       213.000         156.000
  18564497.584   -20202272.14349 -15706754.84147  18564497.888    18564509.011
       243.000         210.000
  19142173.139   -31225111.20649 -23956093.18147  19142173.528    19142185.139
       238.000         196.000
  19847286.644   -25644984.09649 -19949608.42846  19847286.098    19847302.205
       227.000         183.000
  21100773.790   -15867566.72449 -12066582.72746  21100773.237    21100790.547
       218.000         163.000
  17877087.620   -32590105.76549 -25364763.64248  17877087.452    17877098.193
       246.000         216.000
  20937226.749     1509562.06849   1185773.09846  20937227.278    20937241.820
       221.000         165.000
 01  3 29 20 19 29.9920000  0  7G 9G24G30G10G 6G 5G 4
  21696022.535      920855.71449    736583.42945  21696022.446    21696048.145
       212.000         157.000
  18565154.041   -20198822.93949 -15704067.19147  18565154.154    18565165.395
       243.000         210.000
  19120193.765   -31340613.04849 -24046094.55747  19120194.409    19120205.662
       238.000         197.000
  19822059.866   -25777551.00449 -20052907.07346  19822059.489    19822075.197
       229.000         184.000
  21079020.442   -15981880.00749 -12155657.81346  21079020.574    21079037.253
       220.000         164.000
  17866661.374   -32644896.22149 -25407457.52348  17866661.222    17866671.954
       247.000         216.000
  20947005.627     1560949.84549   1225815.38946  20947005.819    20947021.171
       219.000         165.000
 01  3 29 20 19 59.9920000  0  7G 9G24G30G10G 6G 5G 4
  21704823.885      967104.30349    772620.81045  21704823.137    21704847.398
       213.000         155.000
  18565861.283   -20195105.47749 -15701170.50647  18565861.673    18565872.614
       243.000         209.000
  19098273.852   -31455803.03549 -24135852.92947  19098274.401    19098285.724
       238.000         198.000
  19796881.795   -25909862.39549 -20156006.61846  19796881.319    19796896.986
       228.000         185.000
  21057260.615   -16096227.43049 -12244759.49846  21057260.738    21057277.070
       220.000         165.000
  17856322.250   -32699228.60649 -25449794.46748  17856322.074    17856332.846
       247.000         216.000
  20956785.369     1612342.80049   1265861.69746  20956784.813    20956799.126
       219.000         164.000
 01  3 29 20 20 29.9920000  0  7G 9G24G30G10G 6G 5G 4
  21713616.104     1013308.57849    808623.68545  21713616.734    21713641.814
       213.000         156.000
  18566620.842   -20191114.48749 -15698060.68347  18566620.964    18566632.282
       243.000         210.000
  19076415.018   -31570670.70149 -24225360.14247  19076415.669    19076427.036
       237.000         197.000
  19771754.346   -26041907.51549 -20258898.69846  19771753.462    19771769.465
       229.000         185.000
  21035495.837   -16210600.93349 -12333881.50446  21035496.004    21035512.917
       217.000         166.000
  17846072.015   -32753094.00349 -25491767.52048  17846071.822    17846082.619
       247.000         216.000
  20966567.199     1663746.99749   1305916.75646  20966567.168    20966582.086
       218.000         164.000
 01  3 29 20 20 59.9920000  0  7G 9G24G30G10G 6G 5G 4
  21722404.382     1059487.33349    844606.65245  21722403.801    21722427.773
       213.000         156.000
  18567436.251   -20186830.56049 -15694722.59947  18567436.224    18567447.457
       244.000         210.000
  19054622.316   -31685192.18449 -24314597.60447  19054623.117    19054634.480
       239.000         198.000
  19746682.215   -26173661.27449 -20361563.74546  19746681.494    19746698.097
       229.000         185.000
  21013731.050   -16324979.00949 -12423007.10346  21013730.549    21013746.795
       222.000         168.000
  17835914.869   -32806470.29449 -25533359.45848  17835914.756    17835925.508
       247.000         216.000
  20976354.814     1715181.62849   1345995.53146  20976356.417    20976368.650
       217.000         164.000
 01  3 29 20 21 29.9920000  0  7G 9G24G30G10G 6G 5G 4
  21731196.012     1105683.08349    880602.85445  21731195.944    21731220.167
       218.000         158.000
  18568315.532   -20182210.14549 -15691122.31747  18568315.573    18568326.673
       243.000         209.000
  19032904.561   -31799319.56349 -24403527.97647  19032905.004    19032916.646
       238.000         199.000
  19721674.791   -26305075.33149 -20463964.08746  19721674.818    19721689.684
       229.000         185.000
  20991972.955   -16439316.08049 -12512100.71246  20991973.347    20991989.234
       219.000         166.000
  17825859.665   -32859310.98549 -25574534.04048  17825859.477    17825870.245
       247.000         216.000
  20986157.249     1766690.14249   1386131.87646  20986157.643    20986171.400
       220.000         163.000
 01  3 29 20 21 59.9910000  0  7G 9G24G30G10G 6G 5G 4
  21739981.876     1151855.70249    916581.06145  21739981.688    21740006.758
       213.000         156.000
  18569251.505   -20177290.97949 -15687289.23747  18569251.659    18569262.889
       243.000         209.000
  19011256.351   -31913081.98649 -24492173.96347  19011256.730    19011268.387
       239.000         199.000
  19696726.668   -26436177.84549 -20566121.67146  19696726.249    19696741.686
       229.000         185.000
  20970216.361   -16553643.85849 -12601187.09246  20970216.612    20970233.472
       219.000         166.000
  17815900.021   -32911649.09549 -25615317.00148  17815899.816    17815910.689
       247.000         216.000
  20995965.757     1818233.24649   1426295.18846  20995966.392    20995980.462
       220.000         164.000
 01  3 29 20 22 29.9910000  0  7G 9G24G30G10G 6G 5G 4
  21748762.388     1197996.61049    952534.52245  21748761.413    21748787.100
       213.000         157.000
  18570242.234   -20172084.43049 -15683232.21547  18570242.312    18570253.867
       243.000         209.000
  18989674.822   -32026493.86849 -24580546.79847  18989675.344    18989686.511
       239.000         199.000
  19671834.848   -26566983.43049 -20668047.88346  19671834.311    19671849.975
       229.000         185.000
  20948458.798   -16667978.62349 -12690278.92146  20948458.744    20948476.014
       221.000         167.000
  17806033.825   -32963496.34849 -25655717.47548  17806033.637    17806044.567
       247.000         216.000
  21005778.933     1869803.22049   1466479.44546  21005779.348    21005793.688
       217.000         163.000
 01  3 29 20 22 59.9910000  0  7G 9G24G30G10G 6G 5G 4
  21757542.370     1244136.66949    988487.32845  21757542.240    21757567.485
       213.000         156.000
  18571294.271   -20166557.26549 -15678925.36247  18571294.202    18571305.775
       243.000         209.000
  18968168.014   -32139513.62749 -24668614.08747  18968168.829    18968180.019
       240.000         199.000
  19647007.961   -26697448.95949 -20769709.13246  19647007.189    19647023.182
       230.000         185.000
  20926708.016   -16782281.38449 -12779345.79446  20926707.611    20926724.370
       222.000         167.000
  17796268.307   -33014814.79449 -25695705.89348  17796268.179    17796278.984
       247.000         216.000
  21015603.404     1921431.65049   1506709.22846  21015604.113    21015618.449
       218.000         163.000
 01  3 29 20 23 29.9910000  0  7G 9G24G30G10G 6G 5G 4
  21766313.402     1290219.87049   1024395.81045  21766313.357    21766337.687
       216.000         158.000
  18572396.411   -20160765.45449 -15674412.29047  18572396.573    18572407.833
       243.000         209.000
  18946725.809   -32252192.56049 -24756415.79247  18946726.127    18946737.706
       239.000         200.000
  19622236.241   -26827625.11449 -20871144.89746  19622235.603    19622251.093
       230.000         185.000
  20904952.799   -16896605.54749 -12868429.35846  20904952.667    20904968.934
       219.000         168.000
  17786593.249   -33065657.51449 -25735323.61348  17786593.132    17786603.909
       247.000         216.000
  21025428.924     1973062.77349   1546941.12946  21025429.451    21025444.178
       219.000         164.000
 01  3 29 20 23 59.9910000  0  7G 9G24G30G10G 6G 5G 4
  21775086.480     1336316.86849   1060315.06745  21775086.130    21775110.432
       214.000         158.000
  18573562.461   -20154637.34849 -15669637.17047  18573562.784    18573573.832
       243.000         209.000
  18925362.932   -32364454.66349 -24843892.69847  18925363.473    18925374.836
       240.000         200.000
  19597533.931   -26957435.05049 -20972295.30246  19597533.868    19597548.866
       230.000         186.000
  20883207.518   -17010877.14449 -12957471.96046  20883207.619    20883224.363
       220.000         167.000
  17777022.987   -33115949.85649 -25774512.47048  17777022.854    17777033.594
       247.000         216.000
  21035268.268     2024768.46349   1587231.12845  21035267.941    21035283.214
       218.000         162.000
 01  3 29 20 24 29.9910000  0  7G 9G24G30G10G 6G 5G 4
  21783850.187     1382371.30449   1096201.14345  21783850.168    21783874.128
       214.000         157.000
  18574782.122   -20148228.29149 -15664643.12047  18574782.049    18574793.311
       243.000         209.000
  18904069.467   -32476351.09049 -24931084.66247  18904070.277    18904081.511
       239.000         200.000
  19572892.112   -27086929.48549 -21073199.86646  19572891.231    19572906.316
       230.000         187.000
  20861461.579   -17125149.61349 -13046515.23246  20861460.678    20861478.466
       218.000         167.000
  17767547.522   -33165744.57649 -25813313.56548  17767547.302    17767557.945
       247.000         216.000
  21045111.303     2076493.27549   1627536.04045  21045111.612    21045125.703
       216.000         161.000
 01  3 29 20 24 59.9910000  0  7G 9G24G30G10G 6G 5G 4
  21792609.525     1428402.08449   1132068.78145  21792609.308    21792634.823
       215.000         158.000
  18576058.793   -20141519.18149 -15659415.27247  18576058.922    18576070.207
       242.000         208.000
  18882850.489   -32587857.75849 -25017972.92047  18882851.085    18882862.642
       239.000         200.000
  19548314.531   -27216083.53349 -21173839.19646  19548314.325    19548329.674
       230.000         186.000
  20839720.442   -17239401.36249 -13135542.36346  20839720.650    20839736.846
       219.000         167.000
  17758170.756   -33215019.60949 -25851709.71548  17758170.537    17758181.382
       247.000         216.000
  21054961.419     2128256.53049   1667870.89745  21054961.622    21054976.140
       217.000         160.000
 01  3 29 20 25 29.9910000  0  7G 9G24G30G10G 6G 5G 4
  21801358.259     1474378.42849   1167894.00045  21801358.656    21801385.097
       215.000         158.000
  18577386.801   -20134540.57949 -15653977.42147  18577386.984    18577398.196
       242.000         208.000
  18861700.830   -32699000.47549 -25104577.57947  18861701.710    18861712.743
       240.000         200.000
  19523797.243   -27344921.95749 -21274232.58946  19523796.711    19523811.764
       231.000         186.000
  20817978.012   -17353660.06449 -13224574.91446  20817977.554    20817993.968
       220.000         167.000
  17748887.742   -33263802.17749 -25889722.12548  17748887.581    17748898.294
       247.000         216.000
  21064813.627     2180028.34949   1708212.42845  21064814.054    21064828.779
       219.000         158.000
 01  3 29 20 25 59.9910000  0  7G 9G24G30G10G 6G 5G 4
  21810095.049     1520287.38549   1203666.70245  21810095.258    21810119.843
       214.000         158.000
  18578763.854   -20127304.12849 -15648338.64747  18578763.943    18578775.457
       242.000         208.000
  18840618.989   -32809786.48649 -25190904.27947  18840619.619    18840630.952
       240.000         201.000
  19499338.868   -27473451.56749 -21374385.33546  19499338.650    19499353.642
       231.000         187.000
  20796231.264   -17467935.55549 -13313620.54346  20796231.814    20796248.219
       219.000         167.000
  17739696.672   -33312101.24749 -25927357.78048  17739696.545    17739707.281
       247.000         216.000
  21074665.054     2231796.97149   1748551.49045  21074666.048    21074679.427
       217.000         157.000
 01  3 29 20 26 29.9910000  0  7G 9G24G30G10G 6G 5G 4
  21818823.092     1566150.22549   1239403.48245  21818822.758    21818847.777
       213.000         157.000
  18580193.990   -20119788.36949 -15642482.24147  18580194.203    18580205.646
       242.000         208.000
  18819609.978   -32920189.75549 -25276932.74847  18819610.436    18819621.718
       240.000         201.000
  19474944.118   -27601645.62449 -21474276.61547  19474943.738    19474958.748
       232.000         188.000
  20774486.870   -17582203.89849 -13402660.60146  20774487.162    20774503.134
       219.000         168.000
  17730602.408   -33359892.56249 -25964597.78848  17730602.214    17730612.879
       247.000         216.000
  21084519.722     2283584.05149   1788904.91245  21084519.857    21084534.473
       213.000         154.000
 01  3 29 20 26 59.9910000  0  7G 9G24G30G10G 6G 5G 4
  21827542.407     1611971.01049   1275107.45745  21827543.224    21827568.415
       213.000         158.000
  18581678.401   -20111988.65349 -15636404.57347  18581678.583    18581689.847
       242.000         208.000
  18798675.399   -33030201.28649 -25362655.96047  18798675.930    18798687.012
       240.000         201.000
  19450615.397   -27729494.26749 -21573898.74047  19450614.861    19450629.922
       232.000         188.000
  20752744.602   -17696458.13549 -13491689.66646  20752745.240    20752761.216
       218.000         169.000
  17721605.942   -33407168.85749 -26001436.48248  17721605.866    17721616.616
       247.000         216.000
  21094379.212     2335394.37549   1829276.45845  21094378.469    21094394.207
       214.000         154.000
 01  3 29 20 27 29.9910000  0  7G 9G24G30G10G 6G 5G 4
  21836259.514     1657777.06049   1310799.96445  21836259.943    21836285.752
       212.000         157.000
  18583222.019   -20103876.94149 -15630083.79247  18583222.146    18583233.341
       242.000         208.000
  18777821.503   -33139788.51049 -25448048.55047  18777821.957    18777833.455
       240.000         201.000
  19426358.649   -27856964.36349 -21673225.88647  19426358.036    19426372.851
       233.000         188.000
  20731010.975   -17810668.10949 -13580684.24146  20731011.178    20731027.878
       220.000         170.000
  17712713.387   -33453899.64349 -26037850.10448  17712713.360    17712723.897
       247.000         216.000
  21104248.297     2387256.09149   1869688.04945  21104248.936    21104263.505
       214.000         150.000
 01  3 29 20 27 59.9910000  0  7G 9G24G30G10G 6G 5G 4
  21844974.560     1703572.62449   1346484.30745  21844973.181    21845002.372
       210.000         154.000
  18584825.946   -20095448.60849 -15623516.29147  18584825.952    18584837.551
       242.000         208.000
  18757050.223   -33248942.23049 -25533103.34547  18757050.862    18757062.082
       240.000         201.000
  19402175.450   -27984046.04449 -21772250.38047  19402174.757    19402190.000
       233.000         189.000
  20709287.522   -17924826.38649 -13669638.53546  20709287.315    20709303.775
       220.000         170.000
  17703926.301   -33500077.00049 -26073832.48148  17703926.160    17703936.871
       247.000         216.000
  21114127.257     2439174.40349   1910143.74045  21114128.171    21114141.842
       211.000         151.000
 01  3 29 20 28 29.9910000  0  7G 9G24G30G10G 6G 5G 4
  21853683.215     1749336.39149   1382143.83545  21853683.049    21853710.056
       211.000         155.000
  18586486.120   -20086724.60449 -15616718.40647  18586486.140    18586497.764
       242.000         207.000
  18736358.284   -33357678.57549 -25617832.91247  18736359.092    18736369.961
       240.000         202.000
  19378063.691   -28110754.95949 -21870984.39947  19378063.246    19378077.790
       233.000         189.000
  20687569.697   -18038951.31149 -13758566.84846  20687570.079    20687586.427
       220.000         170.000
  17695240.852   -33545718.74849 -26109397.50548  17695240.740    17695251.439
       247.000         216.000
  21124014.348     2491128.88349   1950627.60545  21124014.879    21124030.142
       214.000         152.000
 01  3 29 20 28 59.9910000  0  7G 9G24G30G10G 6G 5G 4
  21862383.614     1795049.00349   1417763.52345  21862383.722    21862409.510
       210.000         155.000
  18588199.030   -20077723.79149 -15609704.81747  18588199.170    18588210.469
       242.000         207.000
  18715743.116   -33466011.89549 -25702248.43347  18715743.534    18715755.020
       240.000         201.000
  19354019.718   -28237104.58649 -21969438.45547  19354019.499    19354033.935
       233.000         190.000
  20665855.444   -18153059.54849 -13847482.15646  20665856.106    20665871.970
       220.000         170.000
  17686654.539   -33590841.17549 -26144557.86448  17686654.460    17686665.068
       246.000         216.000
  21133904.518     2543100.58149   1991124.89145  21133903.615    21133919.862
       209.000         152.000
 01  3 29 20 29 29.9910000  0  7G 9G24G30G10G 6G 5G 4
  21871078.888     1840745.69949   1453370.78345  21871079.597    21871106.447
       212.000         153.000
  18589971.358   -20068409.90449 -15602447.27347  18589971.383    18589982.818
       242.000         207.000
  18695212.037   -33573902.07349 -25786318.64747  18695212.726    18695223.884
       240.000         202.000
  19330052.158   -28363053.84249 -22067580.52347  19330051.720    19330066.418
       233.000         190.000
  20644152.227   -18267112.93249 -13936354.72546  20644152.539    20644168.112
       221.000         170.000
  17678174.164   -33635405.76449 -26179283.54148  17678173.878    17678184.691
       246.000         216.000
  21143804.042     2595125.74749   2031663.83145  21143804.717    21143819.395
       209.000         152.000
 01  3 29 20 29 59.9910000  0  7G 9G24G30G10G 6G 5G 4
  21879766.588     1886397.64549   1488943.18245  21879767.754    21879793.762
       213.000         152.000
  18591797.785   -20058811.42049 -15594967.97147  18591797.897    18591809.336
       242.000         207.000
  18674761.356   -33681372.74849 -25870061.98047  18674761.679    18674773.091
       241.000         202.000
  19306156.558   -28488625.74349 -22165428.55347  19306155.620    19306170.614
       233.000         190.000
  20622453.830   -18381137.14349 -14025204.55546  20622453.473    20622469.907
       222.000         171.000
  17669795.075   -33679437.90449 -26213594.32848  17669794.856    17669805.649
       246.000         216.000
  21153709.329     2647176.59049   2072222.77645  21153709.583    21153725.436
       212.000         154.000
 01  3 29 20 30 29.9910000  0  7G 9G24G30G10G 6G 5G 4
  21888441.065     1931979.71749   1524461.14045  21888441.519    21888467.575
       213.000         151.000
  18593674.179   -20048952.50149 -15587285.73647  18593674.194    18593685.421
       242.000         206.000
  18654386.222   -33788443.89449 -25953493.99447  18654386.849    18654397.840
       241.000         202.000
  19282328.948   -28613839.72549 -22262997.68647  19282328.424    19282343.217
       234.000         191.000
  20600757.160   -18495154.45949 -14114049.03246  20600756.944    20600772.609
       222.000         171.000
  17661513.260   -33722959.48849 -26247507.28148  17661512.987    17661523.726
       246.000         216.000
  21163614.674     2699228.74449   2112782.74645  21163615.026    21163630.118
       213.000         155.000
 01  3 29 20 30 59.9910000  0  7G 9G24G30G10G 6G 5G 4
  21897096.411     1977462.81749   1559901.96545  21897096.596    21897123.019
       210.000         149.000
  18595594.268   -20038862.57349 -15579423.50247  18595594.392    18595605.813
       242.000         206.000
  18634082.653   -33895139.67549 -26036633.51347  18634083.080    18634094.320
       240.000         202.000
  19258565.165   -28738718.96649 -22360305.98147  19258564.913    19258579.161
       234.000         191.000
  20579056.304   -18609191.19549 -14202908.63546  20579057.021    20579072.239
       221.000         170.000
  17653323.691   -33765996.64649 -26281042.75948  17653323.406    17653334.049
       246.000         216.000
  21173515.545     2751253.71649   2153321.53445  21173515.477    21173530.198
       213.000         157.000
 01  3 29 20 31 29.9910000  0  7G 9G24G30G10G 6G 5G 4
  21905739.330     2022876.80949   1595288.94345  21905739.593    21905767.349
       208.000         148.000
  18597564.036   -20028510.68149 -15571357.13547  18597564.255    18597575.436
       242.000         206.000
  18613857.263   -34001425.45549 -26119453.54647  18613857.765    18613869.023
       241.000         202.000
  19234871.373   -28863228.16449 -22457325.92947  19234871.118    19234885.692
       233.000         190.000
  20557358.501   -18723214.45749 -14291757.75046  20557357.988    20557373.263
       222.000         170.000
  17645232.346   -33808516.51749 -26314175.15648  17645232.211    17645242.827
       246.000         216.000
  21183416.191     2803282.45149   2193863.25445  21183416.359    21183431.453
       215.000         159.000
 01  3 29 20 31 59.9910000  0  7G 9G24G30G10G 6G 5G 4
  21914371.598     2068241.00349   1630637.10945  21914371.032    21914398.445
       208.000         144.000
  18599587.364   -20017877.44649 -15563071.54247  18599587.647    18599598.818
       242.000         206.000
  18593714.232   -34107277.13949 -26201935.32647  18593714.698    18593725.938
       241.000         203.000
  19211253.274   -28987342.74449 -22554038.38347  19211252.847    19211267.435
       234.000         191.000
  20535667.158   -18837202.19249 -14380579.18346  20535667.416    20535682.368
       222.000         171.000
  17637243.818   -33850496.78049 -26346887.08148  17637243.607    17637254.315
       246.000         216.000
  21193321.361     2855334.94949   2234423.48445  21193321.909    21193336.576
       217.000         158.000
 01  3 29 20 32 29.9910000  0  7G 9G24G30G10G 6G 5G 4
  21922997.846     2113565.40149   1665954.25645  21922997.114    21923024.916
       209.000         146.000
  18601666.509   -20006952.05749 -15554558.30047  18601666.498    18601677.891
       241.000         205.000
  18573656.983   -34212679.51049 -26284066.99247  18573657.438    18573668.335
       242.000         203.000
  19187712.844   -29111046.52449 -22650430.74447  19187712.533    19187726.811
       232.000         191.000
  20513985.427   -18951141.31449 -14469362.73546  20513985.157    20514000.781
       223.000         171.000
  17629360.330   -33891924.16449 -26379168.19248  17629360.162    17629370.983
       246.000         216.000
  21203234.110     2907422.14449   2275010.75145  21203234.445    21203249.124
       219.000         160.000
 01  3 29 20 32 59.9910000  0  7G 9G24G30G10G 6G 5G 4
  21931617.415     2158857.71549   1701246.41245  21931617.645    21931644.400
       209.000         145.000
  18603802.907   -19995726.39949 -15545811.07847  18603802.843    18603814.265
       242.000         205.000
  18553687.479   -34317620.01249 -26365838.76447  18553687.962    18553698.761
       242.000         203.000
  19164253.505   -29234326.44549 -22746492.81847  19164253.185    19164267.262
       233.000         192.000
  20492314.209   -19065021.27849 -14558100.19546  20492314.242    20492329.872
       222.000         171.000
  17621584.305   -33932788.11349 -26411010.26148  17621584.048    17621594.898
       246.000         216.000
  21213153.851     2959552.31349   2315631.52945  21213153.596    21213169.087
       217.000         160.000
 01  3 29 20 33 29.9910000  0  7G 9G24G30G10G 6G 5G 4
  21940229.960     2204121.70849   1736516.49545  21940231.062    21940258.396
       211.000         146.000
  18605996.879   -19984196.51949 -15536826.80447  18605997.004    18606008.480
       241.000         205.000
  18533807.213   -34422089.84149 -26447243.78247  18533807.961    18533818.872
       242.000         203.000
  19140876.315   -29357173.18349 -22842217.35047  19140875.647    19140890.123
       233.000         191.000
  20470656.304   -19178835.27749 -14646786.26446  20470656.230    20470671.470
       222.000         171.000
  17613916.715   -33973081.60049 -26442407.81548  17613916.358    17613927.343
       246.000         216.000
  21223083.190     3011730.21049   2356289.48145  21223083.935    21223098.487
       218.000         161.000
 01  3 29 20 33 59.9910000  0  7G 9G24G30G10G 6G 5G 4
  21948845.579     2249385.53749   1771786.44845  21948845.886    21948871.596
       212.000         148.000
  18608254.359   -19972333.37349 -15527582.83647  18608254.432    18608265.986
       241.000         205.000
  18514023.262   -34526055.72549 -26528256.11347  18514023.987    18514034.958
       242.000         204.000
  19117588.366   -29479552.69549 -22937577.81847  19117587.698    19117601.975
       234.000         192.000
  20449016.182   -19292552.23749 -14735396.71746  20449016.824    20449031.742
       222.000         170.000
  17606363.732   -34012773.27349 -26473336.42648  17606363.466    17606374.402
       246.000         216.000
  21233026.846     3063985.11149   2397007.44045  21233027.236    21233042.469
       216.000         161.000
 01  3 29 20 34 29.9910000  0  7G 9G24G30G10G 6G 5G 4
  21957452.240     2294615.39849   1807029.92345  21957452.006    21957480.271
       213.000         149.000
  18610568.891   -19960170.18449 -15518105.08847  18610569.054    18610580.668
       241.000         205.000
  18494329.346   -34629546.94249 -26608898.57947  18494329.860    18494340.802
       242.000         204.000
  19094383.391   -29601493.40349 -23032596.36847  19094382.818    19094397.501
       233.000         191.000
  20427389.044   -19406203.20249 -14823955.74946  20427389.420    20427404.954
       221.000         171.000
  17598919.321   -34051894.05249 -26503820.18448  17598919.098    17598929.928
       246.000         216.000
  21242979.074     3116283.71849   2437759.43145  21242979.976    21242994.080
       217.000         160.000
 01  3 29 20 34 59.9910000  0  7G 9G24G30G10G 6G 5G 4
  21966050.544     2339798.33649   1842236.84345  21966050.945    21966078.817
       211.000         148.000
  18612938.369   -19947719.54649 -15508403.34747  18612938.565    18612949.916
       241.000         205.000
  18474724.423   -34732571.49849 -26689177.41247  18474724.901    18474736.051
       241.000         204.000
  19071261.030   -29723002.43149 -23127278.55547  19071260.635    19071274.796
       234.000         192.000
  20405772.632   -19519798.12949 -14912471.12846  20405772.881    20405788.097
       222.000         171.000
  17591581.660   -34090453.99249 -26533866.92748  17591581.342    17591592.273
       246.000         216.000
  21252937.830     3168613.97349   2478536.09845  21252938.425    21252952.004
       214.000         157.000
 01  3 29 20 35 29.9910000  0  7G 9G24G30G10G 6G 5G 4
  21974636.005     2384910.95049   1877388.97145  21974635.548    21974664.686
       213.000         149.000
  18615358.069   -19935004.65249 -15498495.69247  18615357.962    18615369.486
       241.000         204.000
  18455204.959   -34835147.66849 -26769106.85047  18455205.406    18455216.407
       242.000         204.000
  19048217.200   -29844097.76149 -23221638.37847  19048216.683    19048230.853
       234.000         193.000
  20384163.081   -19633357.25849 -15000958.61746  20384163.209    20384178.191
       222.000         171.000
  17584346.868   -34128473.51349 -26563492.56648  17584346.641    17584357.402
       246.000         217.000
  21262897.984     3220953.46949   2519319.98245  21262897.582    21262913.009
       214.000         155.000
 01  3 29 20 35 59.9910000  0  7G 9G24G30G10G 6G 5G 4
  21983206.370     2429944.89249   1912479.79745  21983206.231    21983233.778
       213.000         149.000
  18617826.376   -19922033.42949 -15488388.29847  18617826.588    18617838.010
       241.000         205.000
  18435769.784   -34937279.43449 -26848690.00347  18435770.351    18435781.398
       242.000         204.000
  19025251.659   -29964782.57749 -23315678.33147  19025251.028    19025264.849
       234.000         193.000
  20362558.706   -19746886.20949 -15089422.57746  20362558.311    20362574.487
       221.000         171.000
  17577213.729   -34165958.27649 -26592701.51048  17577213.463    17577224.389
       246.000         216.000
  21272857.649     3273294.69749   2560105.20045  21272858.299    21272873.396
       214.000         153.000
 01  3 29 20 36 29.9910000  0  7G 9G24G30G10G 6G 5G 4
  21991760.337     2474894.29149   1947504.74645  21991760.710    21991788.523
       214.000         151.000
  18620342.564   -19908810.73649 -15478084.95447  18620342.518    18620353.951
       241.000         204.000
  18416419.012   -35038967.59249 -26927927.48447  18416419.655    18416430.638
       242.000         205.000
  19002363.818   -30085057.14949 -23409398.61647  19002363.258    19002377.222
       234.000         193.000
  20340960.150   -19860387.88449 -15177865.28546  20340960.604    20340975.268
       222.000         171.000
  17570181.872   -34202911.06849 -26621495.93448  17570181.596    17570192.473
       246.000         217.000
  21282817.402     3325632.79849   2600888.00345  21282818.400    21282833.789
       211.000         151.000
 01  3 29 20 36 59.9910000  0  7G 9G24G30G10G 6G 5G 4
  22000291.152     2519730.20449   1982441.25845  22000291.299    22000321.483
       210.000         149.000
  18622901.165   -19895365.39349 -15467608.11647  18622901.152    18622912.835
       241.000         204.000
  18397148.084   -35140236.33849 -27006838.15747  18397149.010    18397159.808
       242.000         205.000
  18979550.136   -30204944.67849 -23502817.32347  18979549.568    18979563.286
       234.000         193.000
  20319362.000   -19973888.30149 -15266307.03046  20319361.776    20319376.986
       221.000         172.000
  17563246.234   -34239358.05449 -26649896.22848  17563246.135    17563256.901
       246.000         217.000
  21292770.969     3377939.38649   2641646.21045  21292771.792    21292786.521
       208.000         149.000
 01  3 29 20 37 29.9910000  0  7G 9G24G30G10G 6G 5G 4
  22008809.241     2564487.95049   2017316.82745  22008809.401    22008838.919
       211.000         149.000
  18625509.069   -19881661.58849 -15456929.87647  18625509.148    18625520.744
       241.000         204.000
  18377964.856   -35241045.63949 -27085390.82147  18377965.494    18377976.530
       242.000         205.000
  18956817.418   -30324404.75449 -23595902.95347  18956817.167    18956830.787
       235.000         194.000
  20297770.160   -20087349.17649 -15354717.95646  20297770.239    20297785.350
       221.000         171.000
  17556414.171   -34275261.00649 -26677872.60048  17556413.961    17556424.900
       246.000         216.000
  21302726.138     3430250.75249   2682408.16645  21302726.011    21302741.262
       213.000         148.000
 01  3 29 20 37 59.9910000  0  7G 9G24G30G10G 6G 5G 4
  22017308.407     2609147.69749   2052116.07245  22017308.600    22017336.263
       213.000         152.000
  18628162.427   -19867718.91949 -15446065.50947  18628162.464    18628173.929
       242.000         204.000
  18358866.014   -35341410.66649 -27163597.29747  18358866.522    18358877.670
       243.000         205.000
  18934163.538   -30443451.30949 -23688666.36647  18934162.912    18934176.494
       236.000         194.000
  20276183.858   -20200787.53449 -15443111.34146  20276184.106    20276199.479
       222.000         172.000
  17549682.271   -34310637.25449 -26705438.55548  17549682.165    17549692.925
       247.000         216.000
  21312677.291     3482547.84949   2723158.98645  21312677.169    21312693.917
       209.000         147.000
 01  3 29 20 38 29.9910000  0  7G 9G24G30G10G 6G 5G 4
  22025785.734     2653695.85149   2086828.30945  22025786.078    22025815.407
       213.000         153.000
  18630858.520   -19853550.63249 -15435025.33847  18630858.610    18630869.989
       241.000         204.000
  18339850.291   -35441339.87349 -27241464.17347  18339850.561    18339861.671
       242.000         205.000
  18911586.722   -30562092.72949 -23781114.08547  18911586.200    18911600.210
       235.000         194.000
  20254599.439   -20314213.89749 -15531495.38346  20254599.629    20254614.911
       221.000         173.000
  17543048.643   -34345497.57349 -26732602.49048  17543048.443    17543059.360
       246.000         216.000
  21322624.655     3534818.07349   2763888.86245  21322625.121    21322640.247
       211.000         147.000
 01  3 29 20 38 59.9900000  0  7G 9G24G30G10G 6G 5G 4
  22034239.886     2698117.13649   2121441.71445  22034240.019    22034269.100
       213.000         155.000
  18633594.999   -19839170.03949 -15423819.72947  18633595.044    18633606.403
       241.000         203.000
  18320915.889   -35540839.32749 -27318996.17747  18320916.497    18320927.486
       242.000         205.000
  18889086.004   -30680333.67149 -23873249.75047  18889085.554    18889099.150
       235.000         195.000
  20233016.027   -20427635.55449 -15619875.75446  20233015.887    20233030.797
       222.000         173.000
  17536511.263   -34379851.97549 -26759372.20248  17536511.058    17536521.982
       246.000         216.000
  21332563.952     3587046.96449   2804586.56045  21332563.949    21332579.390
       212.000         147.000
 01  3 29 20 39 29.9900000  0  7G 9G24G30G10G 6G 5G 4
  22042673.225     2742430.87649   2155971.31345  22042673.109    22042701.548
       216.000         154.000
  18636375.219   -19824560.15649 -15412435.45147  18636375.238    18636386.771
       241.000         203.000
  18302066.349   -35639894.74049 -27396182.17547  18302066.939    18302078.004
       242.000         205.000
  18866664.268   -30798160.12149 -23965062.44047  18866663.717    18866678.170
       235.000         195.000
  20211435.804   -20541040.89049 -15708243.40646  20211435.970    20211450.892
       223.000         174.000
  17530073.372   -34413683.61549 -26785734.56748  17530073.150    17530084.105
       246.000         216.000
  21342498.644     3639254.74949   2845267.79145  21342498.131    21342514.113
       213.000         148.000
 01  3 29 20 39 59.9900000  0  7G 9G24G30G10G 6G 5G 4
  22051086.718     2786643.52249   2190422.15745  22051086.769    22051116.224
       214.000         156.000
  18639200.696   -19809712.40949 -15400865.81947  18639200.927    18639212.271
       241.000         203.000
  18283304.307   -35738489.96449 -27473009.58447  18283304.782    18283315.658
       242.000         206.000
  18844324.768   -30915554.79949 -24056538.68047  18844324.108    18844338.016
       235.000         195.000
  20189861.093   -20654415.06949 -15796586.78046  20189860.691    20189875.755
       223.000         174.000
  17523737.266   -34446980.43449 -26811680.18948  17523737.028    17523747.904
       246.000         216.000
  21352431.031     3691448.75449   2885938.32245  21352431.159    21352447.502
       214.000         150.000
 01  3 29 20 40 29.9900000  0  7G 9G24G30G10G 6G 5G 4
  22059481.416     2830761.37749   2224799.10045  22059482.329    22059512.484
       210.000         155.000
  18642072.678   -19794620.47949 -15389105.91247  18642072.808    18642084.371
       240.000         203.000
  18264631.865   -35836614.25249 -27549470.02847  18264632.480    18264643.199
       242.000         206.000
  18822069.529   -31032506.34749 -24147669.63647  18822068.805    18822082.612
       235.000         195.000
  20168294.365   -20767749.05049 -15884898.83446  20168294.631    20168309.180
       222.000         174.000
  17517504.606   -34479733.89849 -26837202.41648  17517504.300    17517515.115
       246.000         216.000
  21362362.220     3743636.23049   2926603.73945  21362361.918    21362379.016
       211.000         149.000
 01  3 29 20 40 59.9900000  0  7G 9G24G30G10G 6G 5G 4
  22067860.734     2874788.65249   2259105.48045  22067861.078    22067889.660
       207.000         152.000
  18644991.947   -19779279.60149 -15377152.01947  18644991.972    18645003.573
       240.000         203.000
  18246050.924   -35934258.48349 -27625556.40547  18246051.437    18246062.329
       243.000         206.000
  18799900.527   -31149004.92149 -24238447.61047  18799900.164    18799913.897
       235.000         196.000
  20146735.972   -20881035.53949 -15973173.87146  20146735.720    20146751.332
       223.000         174.000
  17511376.479   -34511937.08749 -26862295.86148  17511376.207    17511387.164
       246.000         216.000
  21372293.005     3795822.23449   2967267.99345  21372293.305    21372308.278
       212.000         149.000
 01  3 29 20 41 29.9900000  0  7G 9G24G30G10G 6G 5G 4
  22076223.464     2918732.54849   2293346.83645  22076223.999    22076253.252
       205.000         150.000
  18647960.251   -19763681.67749 -15364997.83647  18647960.223    18647971.857
       241.000         203.000
  18227563.273   -36031410.70649 -27701259.39947  18227563.802    18227574.826
       242.000         206.000
  18777820.068   -31265038.06149 -24328862.90647  18777819.691    18777832.962
       235.000         196.000
  20125189.664   -20994264.52749 -16061404.10346  20125189.796    20125204.767
       223.000         175.000
  17505355.175   -34543580.19449 -26886952.87848  17505354.823    17505365.754
       247.000         216.000
  21382224.986     3848014.99649   3007937.53545  21382225.478    21382239.677
       214.000         150.000
 01  3 29 20 41 59.9900000  0  7G 9G24G30G10G 6G 5G 4
  22084558.946     2962533.39349   2327476.74645  22084558.864    22084590.209
       203.000         148.000
  18650965.991   -19747886.51249 -15352689.95347  18650965.881    18650977.471
       240.000         202.000
  18209158.856   -36128126.17849 -27776622.07147  18209159.279    18209170.289
       243.000         206.000
  18755817.703   -31380660.11049 -24418957.87347  18755817.261    18755831.226
       236.000         195.000
  20103643.287   -21107492.44749 -16149633.49446  20103642.648    20103658.223
       225.000         175.000
  17499429.329   -34574720.24049 -26911217.89648  17499429.064    17499440.177
       246.000         216.000
  21392146.807     3900155.60849   3048566.43045  21392147.439    21392162.158
       215.000         151.000
 01  3 29 20 42 29.9900000  0  7G 9G24G30G10G 6G 5G 4
  22092876.665     3006247.52649   2361539.10945  22092877.427    22092907.853
       199.000         146.000
  18654020.134   -19731837.15949 -15340184.01247  18654019.911    18654031.706
       241.000         202.000
  18190849.153   -36224343.74149 -27851596.75947  18190849.714    18190860.701
       243.000         206.000
  18733905.517   -31495809.69449 -24508684.68647  18733904.957    18733918.597
       235.000         196.000
  20082108.009   -21220660.36249 -16237816.13546  20082107.675    20082122.404
       224.000         176.000
  17493610.567   -34605298.49449 -26935045.15648  17493610.294    17493621.297
       247.000         216.000
  21402070.503     3952301.42749   3089199.40445  21402070.184    21402085.591
       214.000         151.000
 01  3 29 20 42 59.9900000  0  7G 9G24G30G10G 6G 5G 4
  22101180.285     3049875.02949   2395533.92445  22101179.956    22101210.667
       200.000         144.000
  18657122.589   -19715533.54449 -15327479.93647  18657122.621    18657133.922
       240.000         202.000
  18172635.311   -36320059.25549 -27926180.23947  18172635.743    18172646.581
       243.000         207.000
  18712084.023   -31610481.56149 -24598039.25247  18712083.527    18712097.115
       236.000         197.000
  20060583.889   -21333765.31649 -16325949.70446  20060583.602    20060598.435
       223.000         176.000
  17487899.146   -34635312.30049 -26958432.58148  17487898.953    17487909.859
       247.000         216.000
  21411993.795     4004453.24249   3129837.01845  21411995.278    21412010.664
       217.000         153.000
 01  3 29 20 43 29.9900000  0  7G 9G24G30G10G 6G 5G 4
  22109470.848     3093444.57449   2429483.62445  22109471.037    22109502.951
       196.000         143.000
  18660279.106   -19698946.58849 -15314555.08447  18660279.130    18660290.762
       240.000         202.000
  18154522.964   -36415239.16949 -28000346.36747  18154523.490    18154534.523
       242.000         207.000
  18690359.952   -31724641.71249 -24686995.09047  18690359.587    18690372.886
       236.000         197.000
  20039079.163   -21446775.49449 -16414009.42546  20039078.984    20039093.700
       224.000         177.000
  17482301.164   -34664730.64149 -26981356.01048  17482301.029    17482311.750
       247.000         216.000
  21421924.610     4056640.73049   3170502.45145  21421925.011    21421941.861
       212.000         152.000
 01  3 29 20 43 59.9900000  0  7G 9G24G30G10G 6G 5G 4
  22117748.405     3136928.48949   2463366.56645  22117749.256    22117778.034
       200.000         141.000
  18663484.386   -19682103.46549 -15301430.62547  18663484.058    18663495.954
       240.000         201.000
  18136508.436   -36509906.80849 -28074113.32447  18136508.855    18136519.829
       243.000         207.000
  18668728.946   -31838312.77149 -24775569.82747  18668728.345    18668741.948
       236.000         197.000
  20017587.441   -21559716.09049 -16502014.92946  20017587.587    20017601.632
       225.000         177.000
  17476811.464   -34693578.89149 -27003835.21648  17476811.339    17476822.119
       247.000         216.000
  21431858.348     4108836.82649   3211174.58545  21431858.529    21431873.928
       214.000         153.000
 01  3 29 20 44 29.9900000  0  7G 9G24G30G10G 6G 5G 4
  22126003.304     3180313.09949   2497172.15845  22126003.639    22126035.589
       198.000         141.000
  18666735.727   -19665017.34049 -15288116.81347  18666735.657    18666747.371
       240.000         201.000
  18118589.401   -36604071.07049 -28147488.04347  18118589.888    18118600.965
       243.000         207.000
  18647189.458   -31951503.17949 -24863770.02447  18647188.612    18647202.793
       236.000         196.000
  19996106.592   -21672597.45849 -16589974.29046  19996106.554    19996121.233
       226.000         177.000
  17471428.295   -34721868.25449 -27025878.92348  17471427.965    17471438.990
       247.000         216.000
  21441789.827     4161029.21149   3251843.82245  21441790.764    21441805.593
       211.000         152.000
 01  3 29 20 44 59.9900000  0  7G 9G24G30G10G 6G 5G 4
  22134245.472     3223623.24149   2530919.69045  22134244.651    22134277.125
       201.000         142.000
  18670038.100   -19647662.65649 -15274593.74647  18670038.047    18670049.796
       240.000         201.000
  18100771.820   -36697702.57949 -28220447.63347  18100772.494    18100783.439
       243.000         207.000
  18625747.147   -32064182.59149 -24951572.04947  18625746.523    18625760.079
       236.000         197.000
  19974642.358   -21785391.78849 -16677865.82846  19974642.055    19974656.837
       223.000         177.000
  17466156.562   -34749571.14749 -27047465.64448  17466156.379    17466167.310
       247.000         216.000
  21451726.091     4213243.57349   3292530.17045  21451726.626    21451742.570
       212.000         152.000
 01  3 29 20 45 29.9900000  0  7G 9G24G30G10G 6G 5G 4
  22142473.247     3266856.03349   2564606.98045  22142473.239    22142504.894
       205.000         141.000
  18673391.098   -19630042.69349 -15260863.96247  18673390.863    18673402.784
       239.000         201.000
  18083056.085   -36790800.15649 -28292991.17347  18083056.559    18083067.580
       243.000         208.000
  18604402.564   -32176349.24249 -25038974.52047  18604401.838    18604415.671
       237.000         197.000
  19953194.412   -21898099.30549 -16765689.72446  19953194.837    19953209.186
       225.000         177.000
  17460996.366   -34776688.38549 -27068596.00948  17460996.146    17461007.127
       247.000         216.000
  21461666.292     4265477.84949   3333232.04845  21461667.750    21461681.582
       209.000         150.000
 01  3 29 20 45 59.9900000  0  7G 9G24G30G10G 6G 5G 4
  22150687.628     3310023.09949   2598243.04045  22150687.731    22150719.147
       206.000         141.000
  18676797.029   -19612144.86349 -15246917.65547  18676796.952    18676808.594
       239.000         201.000
  18065444.918   -36883347.74349 -28365106.15247  18065445.368    18065456.279
       243.000         208.000
  18583158.700   -32287986.39349 -25125964.39347  18583158.102    18583171.629
       236.000         198.000
  19931765.959   -22010705.62349 -16853434.76746  19931766.054    19931781.238
       224.000         177.000
  17455950.206   -34803206.11549 -27089259.22648  17455949.901    17455961.007
       246.000         216.000
  21471612.120     4317744.40749   3373959.05845  21471612.442    21471629.246
       208.000         149.000
 01  3 29 20 46 29.9900000  0  7G 9G24G30G10G 6G 5G 4
  22158881.707     3353082.93549   2631795.57645  22158881.283    22158913.426
       207.000         142.000
  18680247.935   -19594010.72249 -15232787.21747  18680247.782    18680259.580
       239.000         200.000
  18047931.271   -36975382.27549 -28436821.35147  18047931.944    18047942.678
       243.000         208.000
  18562008.520   -32399130.52249 -25212570.09047  18562008.015    18562021.335
       237.000         198.000
  19910349.821   -22123249.33449 -16941131.02946  19910350.204    19910364.494
       225.000         177.000
  17451010.714   -34829163.60949 -27109485.89748  17451010.472    17451021.604
       246.000         216.000
  21481556.802     4370002.69849   3414679.64945  21481556.486    21481573.086
       204.000         149.000
 01  3 29 20 46 59.9900000  0  7G 9G24G30G10G 6G 5G 4
  22167053.996     3396020.41449   2665252.71645  22167054.571    22167083.751
       210.000         142.000
  18683740.778   -19575654.71949 -15218483.90547  18683740.810    18683752.805
       239.000         200.000
  18030513.155   -37066914.30049 -28508144.98947  18030513.823    18030524.798
       243.000         208.000
  18540950.401   -32509791.68649 -25298799.45447  18540949.795    18540963.084
       237.000         198.000
  19888943.035   -22235742.64749 -17028788.02646  19888943.648    19888958.239
       226.000         178.000
  17446175.396   -34854573.59449 -27129285.93648  17446175.278    17446186.306
       246.000         216.000
  21491496.961     4422238.81149   3455382.94245  21491496.707    21491513.294
       201.000         147.000
 01  3 29 20 47 29.9900000  0  6G24G30G10G 6G 5G 4
  18687288.761   -19557011.66749 -15203956.91247  18687288.557    18687300.456
       239.000         200.000
  18013203.993   -37157874.58749 -28579023.11147  18013204.658    18013215.433
       243.000         208.000
  18519997.409   -32619899.72049 -25384597.81147  18519996.956    18520010.086
       237.000         199.000
  19867558.504   -22348117.62549 -17116352.81946  19867558.635    19867573.367
       225.000         178.000
  17441457.028   -34879369.04249 -27148607.11548  17441456.878    17441467.841
       246.000         216.000
  21501444.742     4474518.36149   3496120.10545  21501445.635    21501461.795
       203.000         148.000
 01  3 29 20 47 59.9900000  0  6G24G30G10G 6G 5G 4
  18690878.978   -19538144.30049 -15189255.12347  18690879.166    18690891.113
       239.000         200.000
  17995992.495   -37248322.15949 -28649501.71547  17995993.017    17996003.819
       243.000         208.000
  18499138.360   -32729513.05749 -25470010.68247  18499137.968    18499151.192
       237.000         198.000
  19846185.228   -22460434.49549 -17203872.32646  19846184.912    19846200.030
       225.000         178.000
  17436843.998   -34903611.02249 -27167497.01948  17436843.718    17436854.858
       246.000         216.000
  21511390.817     4526779.17149   3536842.67245  21511391.456    21511406.678
       206.000         146.000
 01  3 29 20 48 29.9900000  0  6G24G30G10G 6G 5G 4
  18694495.054   -19519141.76649 -15174448.01047  18694495.305    18694506.898
       239.000         200.000
  17978862.212   -37338341.91649 -28719646.95747  17978862.797    17978873.794
       245.000         208.000
  18478358.052   -32838716.23249 -25555103.95047  18478357.558    18478370.445
       237.000         199.000
  19824806.266   -22572779.90649 -17291414.08746  19824806.514    19824820.969
       226.000         178.000
  17432319.523   -34927386.76149 -27186023.61848  17432319.348    17432330.518
       246.000         216.000
  21521315.056     4578932.66549   3577481.61245  21521317.334    21521332.003
       203.000         146.000
 01  3 29 20 48 59.9900000  0  6G24G30G10G 6G 5G 4
  18698145.588   -19499958.98349 -15159500.44747  18698145.658    18698157.585
       239.000         200.000
  17961822.689   -37427885.18549 -28789420.90947  17961823.335    17961834.289
       245.000         209.000
  18457664.452   -32947459.74549 -25639839.04447  18457663.930    18457677.237
       237.000         199.000
  19803431.359   -22685106.44249 -17378941.12046  19803431.486    19803445.630
       225.000         178.000
  17427892.940   -34950649.54149 -27204150.51048  17427892.583    17427903.893
       246.000         216.000
  21531227.379     4631024.48049   3618072.46345  21531229.049    21531245.086
       210.000         144.000
 01  3 29 20 49 29.9900000  0  6G24G30G10G 6G 5G 4
  18701833.215   -19480581.71449 -15144401.32947  18701833.246    18701844.666
       239.000         199.000
  17944877.339   -37516933.37249 -28858809.08447  17944878.258    17944888.710
       245.000         209.000
  18437062.470   -33055723.87149 -25724200.58047  18437062.035    18437075.224
       237.000         199.000
  19782063.405   -22797396.78349 -17466439.97046  19782062.764    19782076.945
       226.000         179.000
  17423566.936   -34973382.88749 -27221864.86048  17423566.663    17423577.712
       247.000         216.000
  21541132.364     4683069.44549   3658626.82445  21541132.966    21541148.438
       207.000         144.000
 01  3 29 20 49 59.9900000  0  7G24G17G30G10G 6G 5G 4
  18705551.295   -19461041.62349 -15129175.34247  18705551.329    18705563.163
       239.000         199.000
  22215223.437    -1273923.46459   -954600.36355  22215223.203    22215254.144
       206.000         140.000
  17928021.043   -37605514.29949 -28927833.16647  17928021.458    17928032.312
       245.000         209.000
  18416546.393   -33163536.28849 -25808210.14047  18416545.791    18416558.967
       237.000         199.000
  19760696.644   -22909680.34249 -17553933.53546  19760696.151    19760710.882
       226.000         178.000
  17419335.936   -34995617.00149 -27239190.19748  17419335.653    17419346.766
       246.000         216.000
  21551021.387     4735036.62649   3699120.56145  21551022.370    21551036.406
       204.000         141.000
 01  3 29 20 50 29.9900000  0  7G24G17G30G10G 6G 5G 4
  18709301.188   -19441335.82849 -15113820.22747  18709301.331    18709313.369
       239.000         199.000
  22189053.838    -1411445.23149  -1061759.49045  22189053.434    22189084.259
       204.000         141.000
  17911254.609   -37693621.46449 -28996488.07947  17911255.111    17911266.132
       245.000         209.000
  18396117.514   -33270889.65049 -25891861.99347  18396116.966    18396129.836
       237.000         199.000
  19739331.326   -23021951.61149 -17641417.51246  19739331.439    19739345.773
       225.000         178.000
  17415200.780   -35017347.25249 -27256122.91748  17415200.536    17415211.753
       246.000         216.000
  21560896.864     4786929.18649   3739556.20345  21560895.979    21560911.026
       207.000         142.000
 01  3 29 20 50 59.9900000  0  7G24G17G30G10G 6G 5G 4
  18713096.243   -19421393.68449 -15098280.94647  18713096.348    18713107.927
       239.000         199.000
  22162914.658    -1548801.26949  -1168789.46645  22162913.538    22162944.597
       205.000         140.000
  17894592.615   -37781180.07049 -29064715.54447  17894593.199    17894604.058
       245.000         208.000
  18375790.462   -33377708.72249 -25975097.51047  18375789.891    18375802.965
       237.000         199.000
  19717983.416   -23134137.18849 -17728834.71446  19717983.014    19717998.444
       226.000         178.000
  17411175.497   -35038501.25949 -27272606.61348  17411175.206    17411186.455
       247.000         216.000
  21570770.904     4838818.92849   3779989.64645  21570771.126    21570788.067
       207.000         143.000
 01  3 29 20 51 29.9900000  0  7G24G17G30G10G 6G 5G 4
  18716933.994   -19401226.56049 -15082566.35247  18716933.962    18716946.034
       239.000         199.000
  22136806.696    -1686000.00049  -1275696.88945  22136806.799    22136835.769
       204.000         143.000
  17878033.997   -37868197.81149 -29132521.55747  17878034.340    17878045.273
       246.000         209.000
  18355563.665   -33484000.72849 -26057922.32947  18355562.982    18355576.467
       238.000         200.000
  19696649.526   -23246246.28349 -17816192.31746  19696649.829    19696663.831
       225.000         179.000
  17407257.749   -35059089.21249 -27288649.22748  17407257.500    17407268.735
       246.000         216.000
  21580641.973     4890694.61149   3820412.14745  21580642.407    21580659.305
       214.000         143.000
 01  3 29 20 51 59.9900000  0  7G24G17G30G10G 6G 5G 4
  18720806.029   -19380880.32449 -15066712.19347  18720806.046    18720817.863
       239.000         199.000
  22110719.032    -1823084.60449  -1382515.39845  22110718.602    22110749.439
       203.000         143.000
  17861570.036   -37954716.64149 -29199938.80847  17861570.502    17861581.215
       245.000         209.000
  18335429.270   -33589807.18549 -26140368.80147  18335428.572    18335442.027
       238.000         200.000
  19675322.283   -23358322.02149 -17903523.92946  19675322.171    19675336.980
       225.000         179.000
  17403439.364   -35079155.15749 -27304285.08448  17403439.081    17403450.322
       246.000         216.000
  21590502.063     4942511.03849   3860788.46445  21590501.879    21590518.091
       213.000         142.000
 01  3 29 20 52 29.9900000  0  7G24G17G30G10G 6G 5G 4
  18724710.993   -19360358.49849 -15050721.21647  18724711.165    18724722.557
       239.000         198.000
  22084654.106    -1960055.19849  -1489245.06845  22084652.969    22084684.056
       199.000         142.000
  17845200.961   -38040736.17349 -29266966.99747  17845201.383    17845212.284
       245.000         209.000
  18315387.645   -33695126.61049 -26222435.76447  18315387.254    18315400.181
       238.000         200.000
  19654000.537   -23470365.08549 -17990830.07046  19654000.783    19654015.033
       225.000         179.000
  17399719.943   -35098700.79349 -27319515.50748  17399719.733    17399731.066
       247.000         216.000
  21600351.845     4994265.72249   3901116.65745  21600352.519    21600368.784
       213.000         144.000
 01  3 29 20 52 59.9900000  0  7G24G17G30G10G 6G 5G 4
  18728648.304   -19339667.48749 -15034598.40447  18728648.409    18728660.207
       238.000         198.000
  22058610.606    -2096915.27349  -1595888.67845  22058609.806    22058638.801
       202.000         143.000
  17828926.634   -38126258.96049 -29333608.11147  17828927.215    17828937.966
       246.000         210.000
  18295438.136   -33799961.09749 -26304124.84047  18295437.728    18295450.519
       238.000         201.000
  19632685.484   -23582379.45649 -18078113.85646  19632685.319    19632699.622
       226.000         178.000
  17396098.686   -35117730.92049 -27334344.23448  17396098.409    17396109.626
       246.000         216.000
  21610187.502     5045952.51849   3941391.98745  21610187.725    21610201.660
       215.000         141.000
 01  3 29 20 53 29.9900000  0  7G24G17G30G10G 6G 5G 4
  18732623.613   -19318777.67749 -15018320.68647  18732623.382    18732635.680
       238.000         197.000
  22032593.818    -2233631.90249  -1702420.55945  22032593.041    22032623.971
       203.000         143.000
  17812753.052   -38211251.78249 -29399836.26947  17812753.590    17812764.234
       246.000         210.000
  18275587.501   -33904276.78749 -26385409.66347  18275586.734    18275600.137
       238.000         201.000
  19611381.029   -23694332.95649 -18165350.20846  19611381.161    19611395.806
       226.000         180.000
  17392581.425   -35136214.36849 -27348746.98148  17392581.213    17392592.385
       246.000         216.000
  21620015.565     5097601.84549   3981638.15345  21620017.250    21620032.150
       215.000         144.000
 01  3 29 20 53 59.9900000  0  7G24G17G30G10G 6G 5G 4
  18736643.699   -19297651.17649 -15001858.52947  18736643.785    18736655.642
       237.000         197.000
  22006611.827    -2370165.06449  -1808809.51345  22006611.171    22006640.881
       202.000         142.000
  17796688.050   -38295673.23849 -29465619.20347  17796688.721    17796699.368
       245.000         210.000
  18255843.484   -34008031.78949 -26466257.58847  18255843.080    18255855.821
       239.000         201.000
  19590096.163   -23806185.46549 -18252507.86946  19590096.318    19590110.161
       226.000         181.000
  17389175.708   -35154112.06549 -27362693.29948  17389175.500    17389186.679
       246.000         216.000
  21629844.765     5149251.66249   4021884.65345  21629844.724    21629860.380
       213.000         144.000
 01  3 29 20 54 29.9900000  0  6G24G17G30G10G 6G 5
  18740702.310   -19276324.38449 -14985240.30647  18740702.370    18740714.272
       238.000         197.000
  21980659.577    -2506547.92149  -1915081.40645  21980658.310    21980687.364
       200.000         143.000
  17780725.798   -38379555.65249 -29530982.10947  17780726.293    17780737.176
       246.000         210.000
  18236200.071   -34111257.81649 -26546693.32347  18236199.403    18236212.334
       238.000         201.000
  19568824.328   -23917970.62649 -18339613.06146  19568824.396    19568839.006
       228.000         181.000
  17385874.827   -35171458.97449 -27376210.43748  17385874.520    17385885.751
       246.000         215.000
 01  3 29 20 54 59.9900000  0  6G24G17G30G10G 6G 5
  18744794.856   -19254818.08949 -14968482.21447  18744794.827    18744807.052
       238.000         197.000
  21954731.624    -2642798.14949  -2021250.01345  21954731.318    21954759.547
       203.000         143.000
  17764862.663   -38462916.22049 -29595938.38647  17764863.197    17764874.127
       245.000         210.000
  18216654.226   -34213971.37249 -26626729.73247  18216653.637    18216666.373
       239.000         201.000
  19547561.663   -24029706.54549 -18426679.87846  19547561.564    19547575.296
       227.000         182.000
  17382674.949   -35188274.25649 -27389313.32048  17382674.658    17382686.147
       246.000         216.000
 01  3 29 20 55 29.9900000  0  6G24G17G30G10G 6G 5
  18748925.662   -19233110.71349 -14951567.43147  18748925.614    18748937.492
       237.000         197.000
  21928832.919    -2778890.84449  -2127295.88545  21928832.693    21928861.815
       199.000         144.000
  17749103.789   -38545729.55149 -29660468.23547  17749104.209    17749115.161
       245.000         210.000
  18197210.895   -34316146.13249 -26706346.29747  18197210.337    18197223.134
       239.000         202.000
  19526312.852   -24141368.67649 -18513689.19346  19526312.862    19526327.094
       227.000         182.000
  17379580.742   -35204534.49549 -27401983.69948  17379580.494    17379591.888
       246.000         216.000
 01  3 29 20 55 59.9890000  0  6G24G17G30G10G 6G 5
  18753098.659   -19211182.08949 -14934480.25947  18753098.780    18753110.467
       238.000         197.000
  21902970.260    -2914798.16449  -2233197.32645  21902969.956    21902999.610
       200.000         146.000
  17733454.340   -38627968.49549 -29724550.51647  17733454.794    17733465.663
       245.000         210.000
  18177875.603   -34417753.93949 -26785521.08147  18177874.913    18177887.624
       239.000         202.000
  19505083.055   -24252930.28249 -18600620.19246  19505083.459    19505097.193
       227.000         182.000
  17376596.559   -35220217.27349 -27414204.11348  17376596.309    17376607.662
       246.000         216.000
 01  3 29 20 56 29.9890000  0  6G24G17G30G10G 6G 5
  18757306.165   -19189070.76149 -14917250.71347  18757306.248    18757318.278
       237.000         196.000
  21877134.399    -3050566.20049  -2338990.26845  21877133.754    21877162.610
       205.000         146.000
  17717905.975   -38709674.66849 -29788217.65147  17717906.501    17717917.382
       245.000         210.000
  18158639.837   -34518837.76449 -26864287.56747  18158639.388    18158652.113
       239.000         202.000
  19483864.373   -24364436.25449 -18687507.83046  19483864.177    19483878.026
       229.000         181.000
  17373714.505   -35235362.23749 -27426005.44648  17373714.313    17373725.656
       246.000         215.000
 01  3 29 20 56 59.9890000  0  6G24G17G30G10G 6G 5
  18761548.673   -19166776.55549 -14899878.66447  18761548.623    18761561.021
       237.000         196.000
  21851326.225    -3186186.16849  -2444667.84245  21851326.796    21851355.008
       208.000         146.000
  17702460.735   -38790840.75249 -29851463.93647  17702461.157    17702471.965
       245.000         210.000
  18139505.609   -34619388.46149 -26942638.63947  18139505.206    18139517.327
       240.000         203.000
  19462657.129   -24475879.05449 -18774346.25246  19462656.644    19462671.111
       228.000         182.000
  17370935.472   -35249966.30649 -27437385.30448  17370935.294    17370946.697
       246.000         215.000
